GFSSGP_con_3kmhel_000.txt.gz
Helicity
-9 -26 -43 -6 36 34 122 135 65 38 18 -27 -38 -39 -3 -22 -13 50 37 23 8 -9 -14 -12 -28 -9 20 16 11 15 24 26 24 43 54 74 87 85 101 95 78 65 59 57 54 48 61 74 80
-16 -32 -26 9 12 64 135 56 46 22 10 3 -7 -14 -6 30 21 44 23 -11 -42 -48 -49 -35 -31 -20 -11 -4 -3 5 16 33 51 75 82 98 89 96 92 85 78 56 49 52 49 54 75 97 111
-36 -41 1 24 16 95 127 16 41 24 -18 -36 2 3 5 47 30 31 -21 -39 -53 -53 -52 -30 -26 -25 -7 -4 -5 8 26 37 58 69 83 98 108 96 78 73 68 63 58 63 85 98 99 93 87
-22 -14 -23 -33 125 87 66 37 17 -3 -9 -13 13 49 23 -1 11 -31 -24 -27 -27 -25 -27 -33 -47 -35 -9 5 19 30 35 50 66 67 64 64 74 89 95 78 57 48 51 64 79 89 90 87 77
-33 -51 3 59 105 62 39 13 -8 16 12 17 -0 26 37 10 -26 -10 -9 -17 -16 -24 -27 -25 -44 -16 -1 16 28 40 59 70 65 62 58 58 50 55 62 64 54 44 38 43 56 64 68 65 57
-30 -57 1 60 91 46 19 -13 -20 -6 11 28 21 31 25 -5 7 2 -2 5 -8 -12 -19 -11 -12 -20 -4 10 24 36 51 55 60 61 47 43 54 57 52 41 35 28 30 33 34 34 35 42 50
-41 -22 45 61 47 31 18 -16 -6 16 27 23 33 15 13 14 -1 -9 -0 -0 -9 -11 -0 -0 -3 -0 -4 7 26 34 25 28 42 40 26 33 41 38 36 31 25 22 22 23 30 34 36 40 39
-3 15 43 42 16 39 12 -8 -2 -0 23 33 -1 -3 21 10 16 7 3 -3 -8 -4 -1 -8 -5 10 33 50 39 26 15 20 30 31 26 34 30 31 35 17 51 41 34 27 28 30 35 38 43
15 7 39 41 27 47 9 10 2 8 31 19 10 15 4 45 33 12 -15 -15 -9 -0 -4 -5 9 28 34 23 31 29 24 20 21 28 37 22 36 39 29 69 43 42 36 31 30 27 24 12 21
11 10 70 36 29 36 9 11 15 33 28 30 23 4 16 56 46 33 27 17 16 17 2 9 5 17 17 19 15 17 18 18 22 23 28 30 51 62 56 68 70 63 55 44 38 30 7 -13 42
63 64 59 38 -15 8 22 36 31 24 17 8 16 21 50 47 32 30 29 21 17 11 6 1 4 9 6 11 5 6 4 3 10 17 23 41 43 57 57 64 53 48 48 36 33 35 37 50 42
119 28 -8 -11 13 21 14 2 27 24 -14 5 -3 18 52 41 25 19 24 14 9 6 -6 -6 1 15 15 -1 -1 -11 -6 -0 -2 6 20 33 40 49 56 63 62 47 54 45 42 49 51 37 32
13 -6 13 15 9 23 25 15 8 17 1 -14 -1 21 37 30 32 24 16 15 11 -2 -14 -9 7 16 13 5 -7 -3 -2 13 9 11 21 24 23 36 49 61 58 62 59 50 46 43 43 43 41
18 6 3 1 -5 1 21 -7 32 34 39 -2 3 23 36 30 30 38 22 5 -12 -19 -8 9 23 26 26 12 6 8 18 18 22 21 20 14 15 23 33 40 46 49 52 50 50 47 47 49 50
-0 -19 -14 1 3 8 29 8 -6 45 33 25 -3 10 19 29 36 30 16 -7 -18 -16 -2 28 48 43 39 43 32 29 25 16 22 23 17 4 2 10 16 25 34 45 53 51 46 52 54 55 64
1 5 10 27 29 25 35 49 68 17 32 -0 -4 -10 17 30 30 27 10 -9 -24 -18 19 47 72 64 60 58 43 27 29 27 33 37 30 33 26 31 35 39 44 48 55 56 59 61 64 62 58
4 6 9 13 33 36 31 38 73 -7 -19 -8 -20 -33 3 22 37 31 5 4 -0 15 54 76 94 77 76 89 62 48 41 26 45 50 53 53 51 61 74 74 74 79 89 94 98 97 106 107 114
22 2 -6 19 35 44 38 53 51 39 58 27 -3 -12 -0 48 76 66 20 16 18 50 77 91 103 101 120 122 77 51 49 52 60 74 87 81 74 77 79 78 76 91 95 93 87 94 111 155 138
8 7 25 39 41 45 44 54 82 91 132 125 95 66 66 129 91 63 57 61 98 110 115 87 174 175 173 145 101 93 87 94 108 113 107 87 94 83 82 83 94 97 115 115 113 123 134 137 155
8 7 26 32 32 38 51 70 103 124 174 163 128 120 108 119 115 117 114 120 125 144 182 178 198 206 185 146 127 112 120 150 128 128 102 92 102 100 96 98 95 90 97 100 113 120 145 171 182
19 26 36 28 25 25 29 79 106 122 142 144 149 138 168 190 198 193 175 155 139 149 166 197 214 203 197 169 148 133 132 128 144 133 118 97 99 92 81 70 72 72 84 109 124 140 141 166 180
18 37 21 12 21 48 43 93 109 123 147 154 165 183 190 178 153 138 121 123 142 181 200 228 217 196 176 161 135 120 149 163 141 99 43 44 79 61 45 63 73 92 125 146 163 173 194 176 182
60 38 29 32 31 49 76 49 147 106 166 174 199 203 166 154 148 133 111 159 201 223 238 220 194 164 122 103 91 80 88 49 21 81 142 115 102 65 71 74 88 124 153 183 182 198 209 192 192
39 25 33 45 61 73 98 90 148 132 151 172 210 253 200 154 115 100 122 150 189 217 209 180 146 115 120 62 34 -1 -12 1 93 144 131 119 87 88 88 120 159 186 217 248 230 241 265 267 342
44 23 43 57 68 119 74 52 215 111 128 155 177 159 124 108 106 111 137 175 195 201 161 93 86 49 32 -11 -50 -26 95 137 139 144 143 116 98 91 96 128 175 219 240 239 233 208 194 197 190
42 55 69 71 75 74 51 80 128 96 138 166 140 92 74 90 95 120 156 157 147 143 150 117 81 50 80 122 155 147 166 158 152 142 103 72 65 73 144 172 215 245 222 200 176 289 337 293 220
30 56 41 55 51 32 61 70 79 109 135 153 97 44 47 54 75 113 101 90 56 49 35 74 124 130 136 156 178 158 154 139 110 88 54 39 74 134 148 191 215 261 254 264 252 250 220 239 199
50 42 29 49 62 35 46 30 20 109 74 108 86 59 46 60 95 105 105 66 33 71 105 135 151 171 174 176 180 166 143 121 101 63 64 103 105 114 162 215 217 216 196 214 186 117 93 58 41
57 63 80 76 63 42 19 22 165 74 64 68 77 81 61 95 124 125 114 84 37 75 116 159 179 171 174 184 172 132 99 71 81 112 128 121 120 147 161 174 178 202 224 127 89 49 19 35 57
97 117 109 86 75 89 112 53 98 35 84 71 61 116 107 138 119 140 134 96 80 108 161 228 169 203 233 160 108 81 49 81 108 126 131 131 134 138 175 224 219 127 69 68 78 85 77 82 81

GFSSGP_con_3kmhel_003.txt.gz
Helicity
2 -28 -8 -31 3 -62 112 65 72 84 71 45 37 4 94 102 86 93 103 41 32 34 31 15 23 4 6 12 20 20 32 59 76 80 83 83 73 79 74 73 79 74 74 60 52 50 52 52 47
7 -18 -25 -28 -31 -28 70 53 30 75 83 18 12 -8 24 56 58 54 51 43 32 20 10 18 22 21 6 19 18 21 34 59 55 75 100 99 91 83 91 86 75 63 56 50 45 52 61 87 81
-13 -32 -21 -29 -66 12 107 2 112 58 14 -9 32 34 15 61 65 114 68 23 12 5 22 34 34 23 19 9 17 19 41 63 79 84 82 79 81 82 72 68 71 59 40 47 66 73 79 77 67
-4 -24 -15 -72 60 98 46 76 39 29 19 -8 17 75 53 48 53 60 24 13 10 6 27 26 30 35 29 24 27 45 58 55 65 75 77 74 63 62 61 67 66 64 63 68 68 65 64 57 55
-67 -83 -47 3 85 42 44 35 -6 -1 24 17 -31 79 73 80 63 21 24 15 15 19 29 30 38 36 20 13 23 27 52 68 80 83 87 81 72 78 84 76 68 56 50 50 51 56 57 50 39
-64 -77 -8 48 43 33 30 15 -9 8 24 45 -7 35 58 39 32 35 29 33 27 36 28 11 8 6 14 24 39 50 57 52 52 65 70 67 68 75 69 68 62 53 49 41 42 37 33 34 35
-116 -64 29 83 42 29 56 8 -12 2 17 2 13 23 46 24 27 7 12 36 41 32 25 19 25 26 29 36 43 47 41 48 55 57 51 51 60 64 63 62 58 52 42 30 22 24 30 31 29
21 9 60 39 5 65 57 -1 14 -18 37 54 9 28 8 18 11 5 7 32 23 15 38 40 13 26 24 33 35 34 36 38 40 40 37 33 38 42 45 47 67 58 50 36 22 20 22 21 21
-59 -24 30 11 8 54 33 12 6 47 36 18 13 63 29 61 26 26 20 29 23 28 53 12 22 8 0 14 21 24 25 26 25 30 29 14 25 44 52 112 86 69 60 35 19 16 5 -9 -16
-66 -19 65 29 27 32 16 -7 12 38 0 21 4 9 39 24 17 31 40 41 31 50 28 32 14 14 0 3 17 24 22 24 24 34 28 29 61 63 52 76 56 36 34 26 -4 -4 -17 -31 25
-34 67 87 40 23 11 -2 12 14 25 15 -16 1 -9 40 37 32 40 32 31 35 34 17 37 19 -3 -18 10 -9 12 12 14 19 8 15 26 31 55 45 69 70 76 60 31 50 43 25 72 39
45 48 23 17 15 31 12 -8 5 31 -1 -6 -5 32 59 31 31 33 22 32 18 35 25 14 14 2 -7 -20 2 11 4 22 6 35 18 31 28 42 46 47 63 57 76 78 45 55 64 34 33
38 2 8 -13 -1 22 23 2 23 -2 13 24 -4 36 52 46 44 47 21 -4 26 27 28 35 35 6 12 8 2 6 6 19 28 28 42 29 33 42 25 39 33 44 46 47 52 48 42 50 33
11 -10 -13 -10 -13 -5 18 -20 5 38 -9 9 18 10 34 27 29 43 16 6 26 20 54 41 36 31 32 22 41 32 37 35 31 39 66 41 34 43 20 33 24 20 36 53 59 55 53 44 54
-4 -12 -32 -13 -9 -3 20 9 21 69 26 6 14 7 13 35 25 35 23 9 4 27 27 65 25 75 54 58 62 54 73 39 34 35 42 37 34 40 36 32 29 28 48 52 53 65 71 65 56
17 25 12 45 15 13 33 46 93 31 15 19 22 14 11 33 31 38 32 11 10 -4 40 58 58 94 77 115 89 98 85 48 26 27 54 58 52 54 45 42 45 56 78 72 69 71 79 89 99
14 38 11 48 24 14 20 37 90 37 10 2 -2 37 34 10 34 48 31 13 8 17 12 42 108 65 108 116 98 103 83 32 35 56 58 117 73 98 84 71 70 81 96 107 86 81 84 96 101
45 6 26 19 66 -6 13 14 81 41 27 35 10 7 20 18 37 42 45 17 9 15 23 21 127 87 129 127 121 86 83 59 59 87 124 114 83 128 105 94 99 103 108 112 109 115 105 107 116
80 33 30 67 63 38 51 42 86 58 55 70 54 59 42 24 56 139 100 109 89 80 45 34 145 267 108 114 133 145 120 110 135 110 151 137 193 101 94 70 115 143 136 129 126 115 111 129 124
23 19 34 39 39 44 35 56 82 86 115 116 98 93 98 141 163 154 135 110 89 150 139 224 236 202 151 177 240 157 145 157 123 117 186 84 125 59 54 175 168 145 129 108 101 103 133 147 140
32 61 64 61 26 4 15 61 88 95 109 115 162 198 164 171 177 167 158 165 155 147 179 222 276 282 295 269 228 220 150 139 157 196 124 110 95 105 136 138 147 138 118 115 134 155 159 164 169
34 59 32 17 11 -1 33 27 154 139 149 150 164 183 173 141 133 133 137 133 138 179 249 285 299 300 267 278 223 151 152 180 167 128 139 130 86 124 121 129 132 135 101 102 118 159 227 208 195
89 35 21 22 23 44 36 21 189 87 150 172 216 186 165 180 173 163 136 127 150 178 220 235 242 238 196 157 119 79 161 154 115 117 170 151 105 163 136 140 148 101 73 99 136 171 189 189 224
17 9 12 16 41 62 109 57 83 112 197 155 143 130 167 187 145 120 104 99 140 192 215 189 191 140 65 3 32 114 138 119 117 130 144 178 179 144 150 146 154 77 66 143 178 165 269 387 294
20 7 33 41 54 60 104 43 156 180 145 188 131 125 133 127 95 64 68 132 189 163 133 113 88 79 77 127 160 124 62 91 114 159 196 172 136 139 128 141 106 120 136 141 232 276 253 290 291
19 26 57 58 81 77 80 48 148 151 109 116 119 115 96 95 62 82 110 111 116 104 91 82 55 47 99 78 110 138 148 164 201 221 158 101 93 107 118 114 129 119 180 194 208 212 179 171 156
27 40 29 40 55 49 55 103 98 100 79 85 73 60 87 94 99 77 54 85 81 111 107 75 41 46 109 159 158 176 189 217 204 144 58 97 108 113 124 120 143 155 173 236 229 162 131 127 105
26 37 22 51 69 63 79 27 133 100 87 109 29 43 50 55 38 51 48 81 103 103 129 103 86 101 164 211 213 246 219 158 108 97 102 120 133 144 159 203 161 173 214 222 193 163 113 113 104
54 57 55 59 86 82 81 72 133 152 126 115 57 37 19 37 54 47 85 114 107 98 128 184 144 226 214 222 196 137 136 107 112 132 167 229 186 137 162 193 198 198 209 138 105 115 97 110 106
57 102 99 82 100 80 74 47 136 93 76 32 53 55 77 60 43 54 71 119 140 182 190 180 301 224 159 117 122 121 153 132 95 182 238 181 150 159 138 120 133 86 95 89 99 102 100 85 102

GFSSGP_con_3kmhel_006.txt.gz
Helicity
20 57 68 65 45 -30 -33 59 77 84 56 47 108 121 70 126 95 161 128 93 99 40 39 58 37 40 47 61 71 77 77 63 64 62 72 69 67 72 82 87 93 90 94 89 82 74 66 64 65
37 105 -0 23 8 -61 14 88 97 189 159 68 74 20 82 65 12 50 99 41 112 95 56 64 52 45 62 74 78 74 66 67 55 56 50 58 67 71 78 82 79 88 87 76 66 50 55 65 79
51 94 -5 -36 -54 -24 122 52 187 70 30 25 24 91 140 71 144 145 72 74 57 101 55 74 84 73 77 77 70 60 71 76 71 63 70 76 69 75 74 76 79 82 68 60 58 57 56 64 68
-13 14 6 -47 -106 72 85 111 80 72 72 -26 72 86 143 68 137 116 54 52 81 24 59 74 70 73 71 76 71 73 79 79 82 88 86 77 73 70 74 73 75 73 63 52 46 41 41 41 42
58 -47 -41 -47 55 82 66 58 34 9 21 24 -15 124 186 143 108 53 49 59 79 34 41 49 65 75 83 91 98 89 83 78 73 71 68 67 58 55 65 65 61 57 49 38 31 28 24 20 28
-46 -41 -32 -33 112 61 50 19 -4 63 21 66 27 103 186 79 68 53 46 64 101 67 43 51 60 69 81 83 75 70 67 55 52 60 58 51 48 49 55 63 68 68 63 51 38 30 27 26 27
-32 -55 -33 96 66 64 66 29 -15 10 37 21 29 144 107 84 45 36 59 72 71 57 64 39 44 62 63 57 53 53 49 46 55 54 41 34 37 42 52 69 71 69 66 51 33 25 21 17 20
68 -12 91 14 6 57 80 -15 27 -5 118 90 -4 54 117 162 17 78 79 64 65 66 70 60 46 21 33 -3 30 34 36 35 32 29 26 26 11 7 30 50 53 56 49 38 26 16 7 4 -5
54 100 23 42 9 103 92 -3 17 57 53 82 73 66 183 134 57 37 47 44 65 79 47 47 54 36 57 19 5 6 20 22 25 18 32 40 22 50 46 71 67 39 20 16 17 -9 -6 -1 -5
-32 -3 96 56 50 51 36 -5 60 -3 44 39 35 54 144 94 42 37 42 41 63 96 26 74 34 32 -10 46 5 3 11 -13 -2 27 20 43 61 41 39 101 95 51 28 4 18 18 -8 8 30
-14 27 70 105 70 29 24 28 38 4 -13 -38 -2 29 128 66 32 50 42 55 72 53 22 72 66 18 -13 21 -17 1 10 20 30 35 44 16 12 46 52 82 80 87 66 46 53 81 63 91 69
1 29 30 119 69 25 25 27 2 51 20 74 83 59 124 69 52 40 34 75 47 66 101 176 30 17 -1 -8 -6 9 23 33 10 45 46 43 29 51 50 46 47 35 51 53 60 68 78 79 102
49 29 72 35 14 45 51 7 34 24 74 75 20 66 113 63 53 29 6 34 54 53 150 167 136 29 15 15 33 41 37 59 49 51 92 72 42 63 52 34 36 36 33 40 63 67 55 76 85
21 11 -3 -16 -2 -4 2 -15 -9 -2 64 31 26 43 78 80 75 77 26 12 39 51 123 181 152 44 37 40 73 64 68 64 41 90 88 71 55 63 44 55 45 38 39 62 84 84 97 102 116
11 -5 -17 -23 -19 -12 7 -4 -9 86 48 46 53 15 32 61 31 80 77 8 25 65 113 315 216 102 107 93 78 72 120 68 72 100 83 73 58 60 66 54 46 52 70 101 94 99 122 126 145
15 31 -24 -18 -36 3 22 -0 60 91 79 35 46 56 6 50 56 75 74 14 20 47 227 235 8 147 129 136 87 71 130 103 25 60 88 99 96 77 90 82 84 81 86 105 121 120 111 122 118
-9 17 1 -2 47 51 32 13 62 48 42 22 -8 58 42 -9 80 94 98 56 18 27 70 12 159 139 130 163 63 104 123 69 105 102 104 203 207 168 195 113 96 96 101 109 111 120 138 140 127
95 6 34 4 92 5 22 -26 91 73 53 24 14 -22 72 72 32 124 78 27 33 36 97 105 236 334 -14 104 167 89 85 58 89 152 139 232 129 178 138 104 96 93 121 140 138 131 122 108 109
111 102 54 63 93 35 9 23 119 72 10 27 15 41 50 82 173 331 248 147 121 90 100 211 278 301 182 167 211 244 267 286 277 211 219 191 167 203 104 84 103 133 191 198 179 155 129 121 111
82 82 34 72 65 26 -8 -8 146 130 102 93 63 106 111 151 156 175 200 258 277 270 206 153 104 213 291 328 297 218 304 232 177 201 244 255 254 195 104 108 158 200 156 168 155 140 114 118 121
35 78 92 84 46 -10 5 24 185 165 90 145 266 229 164 203 209 218 270 301 302 337 276 288 327 337 344 380 412 441 302 276 231 186 191 267 225 137 96 153 158 149 131 111 111 115 129 150 146
72 76 39 20 18 -2 81 21 127 117 161 171 215 235 200 160 138 143 190 169 170 195 220 238 228 196 258 299 194 151 122 83 112 188 170 96 114 146 209 173 148 143 152 124 113 146 158 164 166
97 35 29 21 15 26 -3 28 175 99 109 182 238 155 207 245 233 262 187 135 113 102 147 176 169 187 143 106 102 58 98 126 126 116 120 172 274 249 180 181 170 182 163 145 129 137 197 250 246
28 14 18 -0 8 57 -19 40 149 61 150 166 170 150 164 128 139 142 86 76 74 63 101 106 96 86 70 13 74 127 78 50 91 110 242 311 210 172 161 168 153 144 151 122 188 263 287 269 275
36 54 44 41 47 42 91 53 167 193 319 232 176 203 190 130 142 98 128 165 134 98 63 56 104 107 94 134 165 108 113 242 311 289 266 207 162 150 133 114 110 115 151 245 267 268 223 189 137
5 11 40 60 92 83 43 61 217 205 142 151 152 154 67 91 72 118 109 76 95 91 67 99 121 84 114 161 208 241 325 329 309 264 193 163 142 132 100 191 213 273 302 269 287 244 225 202 162
2 43 14 48 57 69 15 118 200 143 78 92 56 29 62 97 111 74 1 61 76 114 118 144 154 145 92 177 286 364 379 316 211 166 149 124 206 215 208 169 178 224 228 223 213 179 175 139 128
18 17 33 71 79 78 68 49 92 79 59 55 141 121 95 56 70 52 39 102 113 166 189 183 204 283 278 364 372 299 183 162 145 154 145 254 203 166 161 196 169 181 194 190 141 118 92 103 99
59 97 63 46 98 106 113 108 79 125 150 188 114 71 97 152 112 66 134 208 205 196 179 160 289 385 401 389 287 170 146 145 152 169 233 234 181 155 128 109 100 110 111 106 85 77 88 97 107
74 105 89 109 122 156 137 73 142 190 273 121 82 83 151 256 260 241 190 160 149 174 209 284 330 254 284 194 195 158 160 186 199 199 196 158 80 53 90 74 91 112 111 104 52 78 68 80 87

GFSSGP_con_3kmhel_009.txt.gz
Helicity
17 58 74 58 32 -4 22 43 109 104 216 102 14 41 86 92 80 125 48 76 82 97 69 91 85 92 98 100 100 89 67 53 52 57 64 74 83 91 83 78 78 75 78 81 75 73 73 66 62
25 69 61 17 6 58 84 126 93 93 37 134 82 17 151 153 158 161 147 64 45 84 92 87 91 85 87 94 97 86 68 62 65 71 86 86 82 79 68 56 46 52 59 54 52 53 58 59 57
29 52 65 -42 4 58 48 67 82 53 14 52 138 226 94 64 115 94 133 186 107 83 78 66 87 94 99 100 101 93 86 76 67 76 77 70 63 54 49 48 47 47 43 32 27 22 22 25 23
78 37 65 -3 46 91 163 136 106 120 142 112 106 111 218 131 116 100 129 125 97 68 76 84 88 95 88 87 85 84 82 82 85 76 47 50 51 49 48 48 44 42 34 23 16 17 15 11 7
75 25 -20 -15 68 24 60 7 24 85 65 124 134 125 107 96 45 106 114 34 34 43 55 62 67 75 86 97 101 95 83 73 55 40 46 50 50 44 51 47 47 43 39 30 27 17 8 8 12
1 24 17 128 70 14 48 2 52 72 122 63 148 146 39 76 125 106 82 19 33 47 51 49 62 78 94 94 78 63 53 47 45 43 40 49 42 43 50 47 42 40 34 29 22 11 2 3 6
11 17 109 140 59 87 146 95 30 -45 -8 87 102 78 105 140 66 88 83 21 64 50 39 21 44 64 65 57 52 49 41 35 34 30 38 26 33 20 24 39 44 52 44 33 26 10 1 10 11
-6 13 98 53 90 122 77 121 32 72 125 -11 53 102 183 107 67 99 89 64 37 32 16 8 27 18 -12 -6 13 14 17 19 8 23 25 14 19 7 4 36 33 23 21 18 -1 -7 -8 -2 6
35 94 57 13 -36 106 89 136 61 55 109 134 104 123 178 130 139 112 65 28 70 41 31 2 24 2 -12 -43 -25 -8 -5 -5 -18 0 6 -7 12 14 17 41 42 19 26 13 1 11 -4 -6 -3
53 68 42 54 50 56 20 58 35 58 75 123 195 254 209 136 108 66 50 65 114 75 86 53 41 19 -11 -21 -12 -35 -33 -33 -37 -31 3 -12 -7 12 32 56 64 37 52 30 10 20 29 34 48
3 19 28 139 66 4 55 63 14 32 41 101 140 113 110 73 59 62 33 60 92 88 120 96 48 49 26 31 -5 -18 -40 -35 -21 -9 21 22 29 44 56 62 37 48 34 40 39 43 69 63 84
20 56 51 71 141 109 86 23 31 5 47 114 199 161 105 61 59 23 2 50 98 162 214 146 113 84 30 32 14 15 16 35 49 41 69 64 62 56 67 43 28 25 33 47 48 48 45 55 67
69 71 93 59 127 172 98 11 31 29 33 44 185 189 125 64 23 -5 28 100 110 250 232 201 114 93 57 67 62 79 80 75 71 112 104 101 92 64 43 22 18 15 30 44 58 56 55 66 72
64 89 26 0 52 26 16 17 10 28 71 124 153 139 107 97 74 44 7 126 119 271 217 293 116 45 54 93 78 72 86 71 100 89 84 96 85 58 53 43 47 46 47 47 58 58 55 73 97
42 25 38 10 12 -19 -2 0 18 36 99 107 109 126 116 121 105 126 49 89 96 327 457 473 142 17 58 74 84 116 83 95 74 78 87 94 108 83 91 104 70 63 64 65 60 53 61 80 103
13 8 57 -22 71 -10 53 -10 -11 95 91 89 104 81 105 116 115 102 68 62 222 322 523 479 125 101 79 49 80 120 139 73 96 111 142 192 255 199 172 155 120 122 120 100 98 77 62 78 100
-19 22 3 -16 58 35 37 -26 78 40 50 47 75 75 19 72 113 153 113 88 188 217 299 233 166 34 38 96 91 138 114 85 100 158 221 246 258 238 252 223 205 161 113 95 108 128 101 88 71
26 16 49 112 37 17 -31 12 73 29 47 50 1 -5 35 128 204 293 268 237 201 104 175 122 52 66 39 81 165 213 218 242 281 340 388 382 329 315 217 188 186 149 124 117 80 84 82 55 77
71 55 62 81 74 38 12 43 143 242 189 167 89 150 300 355 418 486 437 264 244 204 165 164 46 45 67 167 299 302 328 325 445 415 293 235 218 151 186 151 161 178 155 91 71 56 73 91 74
58 59 91 43 54 50 102 38 145 234 300 357 121 116 184 249 319 434 480 399 325 280 296 301 294 361 372 365 343 331 298 276 183 100 141 190 184 211 230 253 240 196 157 123 75 79 68 66 81
138 72 99 69 41 -3 33 125 245 251 288 424 394 236 139 144 232 265 270 295 313 281 195 181 167 201 233 234 212 229 214 173 166 143 110 111 200 237 259 233 221 206 179 144 113 89 101 99 88
65 62 50 42 44 42 22 130 227 306 359 400 370 401 345 222 181 166 159 185 215 171 102 53 58 88 103 119 163 140 132 122 72 73 133 217 248 271 239 215 199 164 134 139 118 146 138 125 110
29 21 14 28 25 51 44 64 195 262 303 286 247 174 156 234 228 161 74 86 90 97 80 54 56 83 92 61 43 48 33 63 128 216 264 240 259 226 184 156 137 154 120 124 125 116 123 127 145
46 74 64 48 59 61 35 53 267 341 242 310 207 200 191 166 111 102 113 83 35 2 1 24 58 32 31 67 128 143 186 275 296 245 223 210 164 156 175 214 174 166 151 159 160 144 147 127 145
42 70 64 74 80 68 43 106 117 277 204 184 297 266 205 189 149 142 105 58 33 40 5 16 67 89 116 115 226 335 356 369 344 296 243 202 192 179 188 130 128 94 127 169 202 222 241 235 219
50 11 37 44 67 45 50 124 218 232 277 221 124 57 99 91 121 113 52 68 67 71 128 162 159 147 229 246 273 307 324 290 301 332 162 218 220 179 164 116 100 133 146 156 150 136 158 167 150
-1 25 18 55 24 58 77 73 127 53 41 18 35 15 33 99 125 109 213 243 159 110 165 220 200 246 260 289 331 340 322 262 254 234 238 260 195 157 121 88 87 94 103 109 109 110 108 93 96
29 26 48 39 52 35 110 125 53 95 131 112 106 132 105 122 241 285 317 227 206 187 154 155 191 194 194 232 239 212 177 176 249 255 247 207 155 127 84 84 65 60 68 72 99 95 78 86 73
30 69 55 70 112 106 65 124 52 244 239 231 254 241 287 341 250 247 221 197 175 118 52 61 83 137 207 188 120 106 117 210 197 183 226 218 135 116 36 7 39 50 61 60 71 82 91 89 79
51 62 98 114 115 147 155 67 127 187 220 259 274 250 208 148 117 181 193 139 51 35 27 75 128 144 114 89 87 124 199 265 173 215 264 291 144 89 78 115 103 84 86 77 70 56 92 103 91

GFSSGP_con_3kmhel_012.txt.gz
Helicity
17 24 43 53 44 3 112 71 75 144 183 103 106 127 139 136 109 99 11 66 109 111 117 93 92 85 81 81 89 87 82 67 60 63 66 71 74 78 69 55 48 43 50 46 45 48 49 48 44
30 39 53 48 41 57 84 53 160 94 -23 -21 26 69 165 133 126 94 101 33 111 117 105 76 87 93 95 102 99 90 68 55 71 81 86 91 82 58 40 33 31 33 30 23 19 17 21 24 27
29 62 33 -7 11 45 44 46 51 14 -32 21 13 129 72 22 13 -4 21 53 90 95 67 76 90 88 95 99 106 79 64 71 84 74 82 65 55 45 36 41 40 31 23 21 13 13 8 10 10
8 25 52 31 174 38 37 37 161 208 97 97 41 128 32 6 7 36 46 44 101 70 61 67 80 82 95 106 90 76 70 70 75 65 44 46 42 39 40 34 25 19 16 15 14 12 12 14 14
-5 69 1 87 113 44 10 64 103 98 129 131 44 32 -0 66 146 102 36 65 99 59 68 72 76 84 86 82 78 78 69 65 49 34 38 38 40 39 29 20 16 18 16 18 21 17 21 26 31
34 33 -12 130 54 152 133 55 168 224 182 105 98 74 35 19 164 41 32 41 51 72 62 48 68 65 72 76 67 55 50 43 30 25 23 31 25 23 9 14 15 12 5 10 -1 -2 14 18 25
19 12 44 97 135 2 60 2 70 88 85 79 14 41 16 66 71 52 19 43 53 42 43 21 29 44 54 42 45 46 36 17 15 11 12 8 -5 -13 -14 -1 2 -8 -8 -17 -26 -19 -5 -2 -2
23 2 40 59 98 71 44 50 82 126 111 79 77 3 20 121 52 36 31 54 37 10 11 6 -2 -11 -7 8 18 3 -12 -1 -1 -10 1 2 -9 -18 -19 -15 -10 -5 -13 -27 -31 -41 -27 -23 -22
-4 65 80 27 118 102 -25 159 121 47 73 50 2 25 84 143 110 116 94 72 45 21 6 -16 2 -22 -28 -26 -32 -19 -20 -14 -6 -2 11 1 -24 -20 -3 5 -10 2 -12 -30 -30 -26 -12 -12 -14
18 49 36 19 14 19 74 92 88 121 156 155 188 167 134 158 156 143 120 84 51 42 -0 4 9 -19 -29 -38 -35 -42 -44 -27 -16 -11 -1 8 18 12 13 5 2 11 17 -3 -8 -15 -14 -3 23
9 4 10 17 -36 40 63 97 69 145 30 57 121 96 109 138 155 124 108 81 32 53 29 -9 23 1 -7 -4 -21 -26 -42 -33 -15 -3 -4 24 28 24 31 19 20 16 17 33 24 17 25 25 44
-14 -60 55 57 29 69 68 88 35 4 5 102 149 117 123 142 154 126 85 65 104 98 85 26 34 11 19 33 -2 2 4 -2 -14 -2 25 71 76 74 67 58 48 48 52 44 37 31 32 31 37
17 46 73 85 116 76 64 51 38 12 130 157 179 137 89 103 106 43 45 74 184 175 156 95 74 34 42 41 42 35 22 19 19 46 67 87 94 98 115 84 56 79 80 72 65 58 48 41 18
28 65 54 101 103 85 47 39 40 23 147 223 241 147 114 90 50 2 39 119 230 290 269 170 135 129 144 88 68 89 112 127 94 82 83 92 120 131 183 153 139 155 134 110 103 98 81 66 56
41 42 31 22 9 22 36 22 -2 75 171 229 164 153 152 137 137 75 47 123 302 331 251 213 86 110 149 108 91 107 116 132 126 110 108 143 174 210 253 264 247 166 122 121 99 102 102 95 79
35 68 -3 14 -13 -2 8 -0 7 57 196 169 121 146 139 120 109 25 29 163 378 410 326 315 154 139 146 116 60 100 84 125 162 152 185 252 353 349 315 278 220 158 148 178 130 108 66 93 77
45 70 49 27 15 -3 9 34 9 35 109 94 106 131 91 62 66 103 56 198 361 409 423 413 159 129 119 126 112 143 155 171 237 314 346 374 319 245 235 182 159 173 195 182 94 36 77 72 72
22 62 44 70 -2 -8 39 21 73 -41 20 71 55 214 304 301 269 323 266 233 337 400 369 223 135 80 112 182 193 237 247 331 319 268 245 284 216 157 137 188 185 207 215 184 133 104 90 59 56
30 26 78 122 35 15 104 201 195 155 252 281 365 319 421 408 444 471 429 353 355 321 257 222 130 87 172 190 227 259 248 249 256 235 183 137 105 192 184 158 203 207 225 203 165 119 109 96 73
50 87 127 110 88 59 191 273 293 334 335 287 343 383 342 445 426 402 390 393 306 293 246 186 139 127 112 141 165 179 159 190 178 199 179 236 227 204 197 194 209 240 210 190 153 116 76 62 46
154 125 81 43 41 74 199 246 280 396 389 384 374 340 267 212 225 225 191 105 101 81 30 64 83 109 129 129 131 141 112 112 151 152 166 181 174 161 179 192 204 181 146 134 121 112 121 114 90
49 67 75 72 66 70 58 203 259 278 367 354 335 274 216 173 105 86 77 47 42 20 25 48 56 72 76 67 79 87 95 99 107 130 122 176 192 197 201 193 173 154 108 108 99 115 100 110 127
28 48 49 62 61 77 128 182 213 187 262 250 196 160 72 -33 -53 -2 -12 -18 1 4 -0 -13 8 30 2 26 52 52 62 119 162 227 264 274 265 307 318 165 126 176 215 180 156 145 152 123 111
75 69 84 89 95 119 155 158 205 272 267 243 135 138 38 10 28 1 4 45 43 5 7 48 50 50 34 55 103 111 170 227 264 265 302 342 337 235 226 138 115 96 93 91 76 104 146 154 181
65 57 81 93 110 116 68 133 138 175 221 209 228 106 53 38 37 101 89 61 68 94 94 48 105 139 161 214 248 258 268 274 309 316 290 263 199 223 171 163 130 71 59 80 90 96 114 117 145
20 22 27 38 43 53 99 119 102 159 185 109 123 68 83 70 37 108 167 220 236 212 206 200 170 141 139 194 233 236 222 196 180 167 222 169 82 155 107 105 105 74 65 56 77 116 141 138 129
18 19 20 38 25 61 77 145 74 83 119 167 89 70 142 209 383 327 270 235 256 213 185 145 125 108 102 125 154 165 139 103 110 108 146 132 166 114 127 119 63 49 10 16 47 107 148 128 88
15 -5 -2 -5 41 98 118 152 166 142 175 223 218 190 316 350 367 340 296 216 213 128 100 86 54 52 26 65 135 121 106 124 140 160 190 213 155 143 146 151 68 -6 13 31 36 67 108 106 77
-19 -10 9 28 48 95 182 166 117 264 285 275 280 325 345 347 309 290 254 221 159 119 82 21 29 59 41 95 96 77 109 140 166 206 213 191 224 166 194 188 101 63 92 86 71 79 106 133 103
18 22 30 58 53 102 139 155 107 139 205 186 151 159 295 254 250 285 207 150 76 59 76 89 138 129 95 77 79 87 119 138 186 203 173 179 191 259 255 148 93 101 95 108 118 162 155 148 132

GFSSGP_con_3kmhel_015.txt.gz
Helicity
24 23 45 64 75 35 101 87 36 71 144 81 98 74 90 94 92 62 -3 2 64 29 43 65 86 77 72 82 73 76 83 70 55 54 49 56 73 66 50 39 38 37 35 27 20 19 22 19 24
9 11 64 35 65 28 69 43 103 13 -13 68 115 95 67 82 24 38 52 42 45 63 64 89 93 87 91 74 74 81 77 51 49 52 57 66 56 42 27 28 28 31 29 27 25 27 27 19 22
4 4 48 53 40 42 89 31 42 7 -20 28 69 43 40 43 90 34 -8 31 49 83 72 86 94 89 80 72 73 72 56 47 46 54 64 46 36 21 23 24 26 26 27 27 32 33 34 40 41
12 47 52 59 67 56 34 43 79 78 81 98 147 16 3 29 9 -8 27 51 88 74 57 79 83 81 74 79 88 61 51 49 53 42 32 23 16 13 15 15 16 13 17 17 21 27 31 34 38
63 47 91 66 90 54 77 56 70 96 44 -4 -18 41 58 -46 72 98 27 28 74 65 64 68 77 80 82 63 55 58 58 46 29 22 16 8 3 -3 -1 1 1 -1 2 2 12 16 24 33 40
109 128 101 129 154 92 115 79 103 106 33 105 109 138 20 -1 97 27 22 45 44 76 58 53 51 46 45 64 69 57 36 26 17 7 1 -7 -14 -13 -8 -9 -14 -10 -6 -6 -3 -0 2 4 10
55 37 61 35 148 194 177 72 73 117 41 49 58 39 -2 -35 31 19 29 25 18 31 25 14 12 34 62 62 40 24 19 13 6 -4 -19 -31 -27 -26 -15 -14 -16 -16 -22 -21 -18 -13 -12 -9 -4
44 69 66 71 81 201 304 85 11 66 46 81 58 17 -38 -78 13 18 12 34 23 6 -0 -2 19 37 23 13 14 8 5 5 -7 -27 -35 -25 -13 -17 -11 -11 -13 -17 -21 -16 -11 -13 -20 -17 -14
-1 59 80 121 72 -4 -52 6 26 67 122 42 35 54 19 47 80 55 51 57 42 6 -0 1 -0 -14 -10 -11 -22 -10 -11 -12 -19 -27 -17 -6 -13 -9 -6 -11 -11 -19 -26 -24 -15 -16 -20 -20 -20
21 80 35 71 92 56 -29 23 138 134 57 76 168 215 116 75 118 105 74 70 35 -11 -22 -40 -19 -27 -21 -20 -33 -31 -28 -27 -24 -9 -3 3 1 2 6 11 4 1 -11 -13 -5 -12 -18 -2 13
-2 34 46 44 58 44 16 1 119 184 54 8 134 126 60 67 83 129 70 54 28 -18 -25 -49 -45 -31 -30 -28 -40 -29 -16 -19 -17 10 16 13 17 14 25 42 54 56 34 51 54 38 33 32 41
56 56 19 -22 18 45 80 65 112 41 5 -20 160 123 61 64 126 152 100 53 18 11 -10 -35 -32 -3 -41 -40 -17 -13 1 -3 10 28 29 44 65 69 79 83 106 110 88 75 61 56 44 35 27
25 17 26 25 65 72 81 78 8 2 44 63 166 112 65 120 142 133 101 52 59 64 31 22 10 20 -2 10 -3 9 1 7 26 43 50 68 100 106 111 140 152 140 111 85 79 62 50 47 56
16 10 60 94 90 67 67 39 18 19 108 142 174 127 124 159 162 116 40 57 93 101 95 61 40 39 35 51 66 21 36 18 33 51 72 91 121 145 182 183 170 153 119 107 113 105 117 112 91
51 80 113 106 113 58 25 41 9 43 124 156 121 123 119 89 111 139 114 75 149 140 155 107 68 45 41 55 78 66 58 57 57 119 125 150 169 188 209 197 180 156 141 166 169 158 129 126 97
43 34 -23 -22 23 46 28 6 26 105 170 123 89 66 44 6 -15 32 82 115 185 247 311 167 91 86 170 128 125 106 115 128 137 164 181 201 236 252 260 213 157 136 138 161 113 63 94 76 65
82 -31 -6 3 23 30 12 10 31 80 138 127 98 101 91 88 110 86 90 98 242 367 460 337 234 271 142 147 121 77 180 216 184 241 254 269 286 234 172 159 137 131 151 154 96 106 112 109 139
24 -9 20 2 25 35 4 -6 74 156 123 135 188 203 195 208 203 195 252 292 380 547 597 384 276 186 144 104 136 136 239 263 242 242 250 221 253 239 180 177 152 117 112 158 171 160 145 124 113
44 55 22 16 56 86 65 147 183 232 238 298 314 328 319 345 309 364 319 319 360 413 380 228 186 123 116 111 133 168 170 152 171 233 205 139 188 131 148 140 139 124 153 150 149 134 145 123 98
54 41 81 120 158 158 185 295 224 237 230 284 382 409 410 399 384 308 242 248 248 227 197 138 151 101 74 121 96 82 53 94 157 122 162 168 181 184 210 182 176 163 167 193 209 171 104 65 93
70 76 77 95 126 154 270 277 294 261 290 311 306 266 265 229 207 184 154 84 66 86 95 108 68 51 41 18 27 55 78 101 128 146 154 194 216 215 218 217 190 219 207 181 211 165 139 109 115
106 109 130 132 142 106 129 190 225 225 264 248 220 186 146 98 27 13 -31 -13 20 15 38 54 53 58 53 37 46 42 36 53 82 129 164 211 253 284 254 289 268 93 37 100 135 76 84 100 159
56 92 100 106 137 185 199 208 207 253 248 189 152 87 38 -39 -58 -71 -77 -46 -37 10 65 110 142 107 56 67 61 56 78 132 194 237 281 292 272 255 218 172 71 141 94 95 117 111 128 115 121
82 88 112 111 123 170 199 193 164 224 197 189 121 87 -69 22 -69 -99 -71 -2 56 69 106 118 118 85 95 131 154 171 199 216 221 206 215 239 177 215 147 148 127 131 89 49 92 120 126 101 96
79 83 79 64 70 93 180 188 140 89 253 114 30 -8 12 -9 -37 18 40 167 152 158 171 171 154 141 136 153 158 165 171 163 175 217 242 232 217 188 171 165 133 73 84 87 97 91 67 66 75
57 37 29 11 24 52 109 116 107 147 116 1 4 37 28 103 150 192 272 232 215 200 196 180 148 137 142 151 136 137 107 120 152 184 180 184 192 183 180 143 136 143 106 113 76 79 59 49 90
27 49 30 60 53 60 83 149 155 168 188 143 144 199 207 235 303 361 343 284 220 177 153 145 129 136 133 84 62 90 119 121 127 111 135 153 147 168 156 147 146 86 140 83 68 48 21 61 74
26 1 7 10 25 42 72 132 159 237 238 203 246 294 290 389 456 449 386 234 187 173 158 143 136 152 116 83 86 112 110 101 102 130 146 169 163 208 257 231 229 150 126 63 51 51 45 72 113
28 4 15 17 25 47 60 71 128 234 234 228 263 318 408 427 366 390 311 182 158 124 100 125 130 145 101 107 100 104 117 117 113 146 165 212 276 278 285 190 112 144 105 86 68 68 68 131 134
23 17 27 44 29 57 88 66 96 230 285 310 277 261 274 307 462 417 281 218 148 112 57 71 181 173 148 121 121 113 85 76 85 102 141 191 212 218 208 164 86 106 84 86 88 93 138 143 146

GFSSGP_con_3kmhel_018.txt.gz
Helicity
26 11 33 51 72 206 213 90 52 126 115 69 53 45 58 61 89 133 29 32 12 11 -8 15 49 66 68 73 78 79 66 67 53 46 43 46 49 34 26 30 28 40 50 48 40 38 42 37 39
19 38 85 81 53 132 158 21 91 59 -27 9 130 107 135 150 34 28 81 65 25 20 8 20 47 65 66 66 77 67 71 54 38 38 39 37 27 23 26 29 26 38 45 43 47 51 52 50 43
43 64 103 66 37 64 68 75 21 50 108 -71 76 -21 59 45 5 44 99 82 39 34 22 25 44 59 63 76 75 72 59 39 26 29 21 16 16 16 22 26 24 36 42 44 48 52 54 51 47
69 105 116 62 16 36 88 159 103 49 47 99 -4 2 37 -7 -3 16 98 91 79 30 11 29 43 57 85 73 70 66 47 34 29 12 12 14 14 12 14 10 17 24 31 36 39 44 41 37 29
103 111 108 57 75 59 6 111 83 15 31 47 14 33 1 31 79 97 92 72 54 19 20 22 45 63 64 65 62 58 47 33 11 4 2 -1 -8 -5 -1 7 13 16 25 24 23 17 16 13 8
106 105 76 97 94 88 154 93 32 35 61 -24 60 34 16 63 77 60 54 38 1 26 14 18 26 49 58 57 62 47 37 14 4 -7 -14 -18 -16 -9 -0 5 7 13 18 17 15 16 11 5 -0
106 113 89 140 129 210 163 25 83 109 5 9 62 19 48 88 51 51 33 14 -4 -0 12 7 18 42 45 53 44 32 22 5 -7 -20 -23 -21 -19 -10 -4 3 4 4 4 8 11 12 12 8 4
92 98 69 87 205 238 106 44 44 -94 -2 96 45 22 16 28 22 45 13 -9 -22 -28 -20 8 20 29 32 25 20 18 6 -7 -18 -18 -18 -12 -9 -10 -10 -6 -8 -8 -5 -0 2 10 13 10 -0
84 68 85 47 38 138 241 46 -2 48 110 74 28 40 60 91 42 31 -13 -37 -40 -36 -10 -0 7 9 6 -4 -3 8 -1 -13 -18 -15 -0 1 -10 -6 -6 -14 -17 -6 -1 -4 -7 -3 -2 -0 -5
68 92 62 34 71 24 18 65 63 25 117 55 80 142 156 109 46 43 16 3 -7 -18 -30 -26 -24 -16 -13 -15 -0 -7 -21 -28 -20 -8 -3 -4 9 11 13 11 -12 -0 10 4 5 7 8 6 -3
54 75 76 11 -17 21 67 101 84 82 29 14 101 104 93 64 15 37 10 10 11 -9 -16 -40 -32 -29 -27 -21 -25 -30 -30 -24 -16 -0 6 12 30 27 25 32 30 32 45 32 37 43 30 11 -0
50 52 78 -25 -58 67 93 103 59 49 -21 36 103 138 67 63 18 21 30 17 19 20 -20 -28 -22 -31 -38 -35 -35 -37 -22 -10 3 -0 21 44 57 68 71 74 71 74 69 78 58 50 50 36 23
60 19 8 7 24 53 113 61 7 -7 22 89 86 103 63 47 28 26 65 34 35 -5 -19 -33 -25 -28 -18 -23 -12 -14 -12 -2 13 26 49 75 77 82 90 101 108 125 105 101 95 99 91 80 62
19 29 30 26 131 131 87 38 32 -23 51 108 122 86 75 76 59 -15 -16 5 31 14 7 -9 -5 -10 -6 -7 5 -1 -3 5 20 58 76 95 87 85 126 164 171 140 122 111 114 114 108 93 77
41 56 67 96 102 111 78 36 8 8 69 96 75 63 20 -0 -11 -3 -4 -6 48 54 109 102 73 61 55 37 52 33 24 14 67 77 97 116 136 167 196 190 162 147 145 126 119 136 165 153 133
57 53 53 64 76 83 37 7 62 21 128 56 59 61 48 70 16 -14 3 32 46 170 248 248 183 152 128 114 124 121 67 45 72 128 133 169 185 206 179 169 157 130 129 151 139 175 141 147 171
75 24 35 16 33 23 37 27 77 55 73 115 122 121 91 105 124 86 76 92 180 260 399 443 324 273 137 120 169 95 142 125 154 186 189 179 172 166 119 148 111 163 136 170 133 124 148 162 168
18 -19 8 -0 38 91 58 55 63 120 83 102 148 163 156 149 158 162 198 239 310 392 493 529 396 305 235 152 136 159 158 119 145 128 126 159 144 111 145 184 204 207 177 137 121 114 96 85 103
29 21 34 40 58 83 27 28 74 149 170 121 158 190 192 197 187 223 245 261 276 323 390 400 289 167 80 76 126 91 63 66 76 94 143 142 229 233 207 203 222 190 157 116 99 61 89 95 79
59 54 69 89 151 125 89 102 126 185 151 124 151 183 185 212 222 196 217 192 141 110 117 126 114 32 21 -3 9 43 27 43 100 131 188 214 206 189 196 188 159 153 150 168 150 128 109 46 91
90 86 53 71 152 151 126 121 145 166 196 204 209 158 142 114 109 54 25 13 17 20 56 74 80 76 78 75 54 64 67 98 124 169 195 210 224 226 216 200 183 162 145 96 109 117 95 102 123
74 60 82 85 111 102 114 93 126 156 218 194 157 152 132 96 76 32 38 30 56 75 71 84 87 89 70 49 69 88 98 125 156 211 213 210 190 157 180 203 156 153 160 202 171 156 140 147 172
58 78 108 100 121 129 171 157 167 230 219 166 133 107 77 67 25 -10 61 60 29 41 75 71 89 109 98 108 122 144 153 152 169 189 180 173 194 205 201 180 152 169 166 141 98 78 87 85 81
58 95 121 95 102 114 143 182 147 218 192 190 141 87 73 67 -10 8 97 22 18 97 127 105 136 146 144 156 173 170 178 178 189 198 206 200 211 188 163 165 204 224 184 135 129 133 145 142 132
90 103 92 83 113 3 90 188 121 82 153 155 76 16 39 21 -1 118 119 61 118 165 168 170 165 169 157 171 180 171 170 162 153 167 196 195 206 194 165 179 176 205 155 150 158 138 99 131 117
97 91 91 7 21 28 62 64 121 58 103 104 34 85 78 54 124 163 147 147 212 226 196 171 169 149 109 120 142 152 131 120 113 125 155 155 177 193 197 207 218 181 167 151 109 106 121 121 79
45 54 57 44 -18 12 52 66 83 139 213 211 211 204 147 117 164 238 234 235 311 309 211 158 114 64 66 96 125 95 88 103 106 111 124 154 161 179 221 265 193 188 166 103 80 128 102 94 80
40 38 38 58 12 24 5 46 85 140 189 231 227 183 166 200 257 273 250 342 321 261 173 177 149 44 60 87 125 127 116 118 126 124 128 142 158 189 226 215 197 176 126 133 127 125 82 89 106
61 21 39 28 35 40 31 20 50 171 187 237 201 217 279 306 308 314 337 393 342 303 212 338 107 136 103 160 126 130 107 102 115 121 110 104 119 160 204 240 238 193 156 102 112 104 111 119 135
33 22 38 49 34 59 64 32 27 56 165 263 237 253 279 284 357 364 372 358 289 241 140 153 155 82 143 120 123 97 96 109 106 111 91 95 117 145 176 195 195 157 91 122 145 132 151 165 142

GFSSGP_con_3kmhel_021.txt.gz
Helicity
10 7 25 37 62 115 137 140 87 84 120 136 165 183 139 124 165 185 18 14 74 40 4 -5 29 45 58 62 79 92 92 62 50 49 50 68 47 35 32 33 33 40 50 53 48 46 44 44 43
31 39 52 74 75 102 137 84 132 97 53 65 93 90 160 198 112 28 -31 12 47 67 12 -1 17 41 47 61 74 79 69 47 45 44 54 36 25 28 34 37 34 39 46 47 48 44 41 39 42
41 43 63 73 77 33 30 64 118 172 184 156 112 4 -49 68 30 24 -22 29 84 38 20 8 16 31 52 56 58 71 51 40 36 40 26 18 19 23 21 17 18 29 38 39 41 40 36 30 27
65 67 74 50 43 45 72 48 99 142 89 52 -28 -36 -21 -65 -50 -6 38 48 47 13 -0 -3 22 42 44 43 65 65 40 30 32 14 12 15 17 15 13 13 26 38 38 34 29 25 22 13 6
91 78 73 78 74 88 69 36 41 112 50 24 -121 -44 -0 59 34 94 79 42 51 14 -12 3 22 35 42 55 62 44 38 33 11 6 4 5 5 6 14 16 20 28 29 21 14 13 11 8 6
101 92 69 103 116 102 72 85 133 106 2 -81 -76 39 26 69 52 60 43 33 18 2 -8 -1 17 39 51 52 56 47 31 12 4 -1 -3 -2 1 6 6 9 14 17 18 19 17 13 8 4 8
102 86 60 93 129 111 144 104 124 17 -32 -57 7 33 31 86 42 35 29 8 -22 -23 4 8 17 26 46 62 54 29 17 6 1 -1 -5 1 -1 -3 -4 -2 -0 2 7 12 14 19 10 -0 -9
89 79 76 109 224 282 145 86 65 2 48 47 9 -8 18 75 33 19 -13 -22 -24 -12 4 8 2 28 52 41 26 17 2 -2 -3 -2 -1 -1 -2 3 6 -11 -11 -12 -7 2 4 7 8 1 -2
63 80 74 128 206 194 332 271 46 -25 -7 14 2 10 45 90 37 22 -11 -33 -30 -15 -7 -2 17 22 16 11 4 -5 -7 -7 -2 -8 -2 3 -0 8 5 -6 -24 -18 -12 -1 8 17 14 3 -8
53 62 53 49 104 143 114 -15 4 -22 6 -2 50 83 114 54 23 14 -20 -32 -22 -15 -11 -5 7 4 5 -10 -12 -17 -12 -11 -15 -7 4 7 10 12 8 7 -11 3 20 33 43 49 24 11 -6
6 51 63 1 31 80 2 37 71 39 -24 -9 27 82 81 27 -4 4 -8 -9 -5 -3 -12 -8 -9 -6 -15 -14 -12 -14 -12 -12 -2 6 9 15 22 30 21 25 36 46 67 70 57 59 52 40 20
28 19 6 -12 -46 -29 31 70 7 5 6 -14 76 128 67 17 -0 14 13 8 -14 -8 -13 -22 -14 -6 -15 -17 -15 -13 -3 2 5 15 21 33 44 56 60 65 71 76 82 107 101 99 106 77 66
93 52 9 -14 -123 39 85 17 6 -12 1 41 72 63 42 18 -2 -23 -56 -62 -27 -15 -19 -8 4 -2 -4 5 -0 13 22 16 19 28 46 51 56 77 82 93 90 102 100 122 127 121 125 134 125
31 48 6 30 17 61 54 37 2 -3 14 51 61 34 18 13 -28 -66 -75 -59 -31 -21 17 27 28 25 34 36 51 56 37 31 -10 55 91 65 68 84 92 106 114 123 132 152 151 132 117 127 126
-6 34 25 43 87 91 64 58 15 30 38 38 15 -15 -7 -31 -39 -49 -54 -44 -17 11 73 131 85 71 85 78 64 48 111 101 -35 29 53 73 94 107 109 101 120 133 182 153 183 128 150 152 130
47 61 47 76 77 108 32 20 38 75 -20 37 40 9 11 7 -19 8 -19 2 13 74 131 175 180 197 177 134 83 66 168 47 93 34 56 100 102 123 134 153 163 169 224 178 183 124 151 139 135
73 29 37 77 106 53 54 14 95 88 28 60 65 53 56 64 68 72 61 58 81 105 187 268 264 282 283 272 66 100 85 94 54 34 44 46 69 111 191 207 176 152 175 190 174 147 118 125 150
25 36 21 24 68 101 70 36 67 98 51 64 87 111 100 96 104 102 131 135 149 205 279 352 306 203 197 128 71 76 85 33 43 82 84 112 141 130 139 161 178 171 178 161 126 120 91 70 96
42 45 48 61 51 73 55 42 64 74 84 58 68 104 123 129 126 139 143 160 192 197 240 277 264 182 123 57 65 26 40 57 70 96 136 143 145 154 177 190 169 149 156 138 125 110 125 172 171
51 50 53 59 67 57 33 47 61 89 93 63 60 93 123 154 176 161 136 108 94 145 151 128 107 110 69 37 -12 4 36 70 111 129 152 161 181 178 149 162 189 170 167 177 189 202 176 163 170
83 44 25 44 101 104 49 40 56 86 103 110 112 107 126 113 105 112 67 27 22 26 15 45 60 44 -1 -21 15 64 106 131 128 147 162 161 175 208 197 190 179 177 171 195 201 181 161 167 137
40 37 36 57 65 56 68 -18 82 107 132 138 142 127 126 100 94 22 -44 -43 -18 9 22 53 85 61 39 38 77 102 103 116 146 171 190 213 196 194 183 176 167 166 169 186 187 190 188 186 214
-3 44 60 71 116 71 90 70 95 154 153 156 160 157 138 105 81 50 4 43 16 9 89 138 111 96 118 123 111 120 148 156 186 188 172 161 160 143 159 154 131 145 169 203 206 169 162 154 178
21 109 117 101 90 58 96 102 89 174 147 163 173 162 122 121 91 82 70 67 93 139 119 128 165 183 154 152 159 159 148 143 157 152 155 154 147 136 145 137 147 179 185 172 160 151 135 133 112
64 99 43 60 78 72 100 94 94 106 99 151 126 107 111 88 80 80 106 111 133 128 183 213 219 208 157 152 144 127 119 134 151 162 153 128 121 127 142 148 209 241 203 146 149 130 120 118 121
86 81 85 -5 -12 -16 14 19 31 11 117 106 101 113 106 77 65 84 119 131 136 190 252 254 226 190 183 187 127 128 137 138 100 95 96 105 133 151 134 151 198 171 150 162 131 129 151 169 139
58 79 89 77 24 -1 19 33 40 83 126 172 225 230 167 103 99 123 159 180 209 251 276 247 268 281 253 189 132 113 140 116 82 87 112 125 111 107 99 119 142 150 173 158 123 132 119 120 92
49 60 42 59 -1 7 16 28 35 36 89 148 189 204 169 152 156 162 200 244 257 274 269 260 182 129 139 103 131 151 120 84 84 101 119 105 93 91 99 112 137 167 197 150 103 96 101 120 108
60 54 71 53 41 17 8 11 24 44 105 161 157 180 178 176 178 215 275 304 278 240 208 190 167 130 110 93 147 143 127 100 96 99 107 110 96 90 100 109 133 152 179 137 97 94 127 136 119
47 45 39 40 29 61 51 22 29 5 31 94 126 165 168 179 227 281 317 305 269 257 186 135 74 112 83 136 138 123 96 97 93 99 110 105 91 88 98 119 131 150 131 90 98 137 156 117 137

GFSSGP_con_3kmhel_024.txt.gz
Helicity
21 13 16 23 29 51 68 85 154 118 195 182 180 262 290 295 282 225 33 61 55 40 35 33 12 8 22 57 69 61 60 60 58 50 49 42 44 49 43 39 33 30 28 31 33 33 35 40 38
31 26 27 37 23 30 48 83 97 185 95 139 205 185 210 253 160 72 102 28 32 21 53 28 6 5 33 58 59 57 59 60 54 46 40 41 48 46 34 21 17 20 28 31 31 27 27 31 36
32 36 39 32 -1 7 62 93 112 67 78 181 148 120 49 104 66 80 38 13 48 34 53 18 21 22 37 49 54 52 51 58 51 47 38 41 40 28 18 10 12 20 23 28 30 30 26 25 28
46 43 43 14 2 56 47 84 60 54 42 39 53 -3 -7 33 22 -6 50 -9 26 72 11 13 27 33 36 52 48 45 60 53 44 35 36 33 21 18 12 8 9 16 20 23 22 18 20 12 6
57 59 31 15 43 74 54 79 37 61 65 -32 12 37 -4 -66 -71 -81 -17 67 22 14 -6 12 14 17 32 46 42 47 55 51 39 34 26 16 17 12 8 10 9 12 13 15 13 7 3 3 1
49 71 34 8 48 56 59 64 35 20 56 67 -19 17 5 63 25 0 37 28 -28 18 -5 7 9 10 35 53 38 53 61 47 35 24 14 17 13 6 9 8 6 0 -2 5 7 8 15 15 16
56 34 35 54 61 93 78 92 16 78 3 -48 -10 -44 22 50 7 -16 -5 15 45 9 18 23 15 30 62 45 48 62 49 37 28 17 13 14 5 3 -1 1 -4 -6 -4 -1 7 17 18 20 14
74 69 56 40 66 109 133 146 103 253 72 18 27 -19 25 73 35 7 4 -5 11 4 29 27 27 22 27 38 54 50 42 35 19 9 10 8 5 5 7 4 2 -3 -7 4 8 32 43 19 10
80 44 28 59 37 115 81 113 61 -5 -15 2 -2 10 65 92 32 -1 -19 -29 -16 18 27 26 22 30 40 43 48 36 27 18 4 8 6 -6 1 5 6 27 8 13 13 21 35 47 38 -3 10
52 28 33 47 63 54 46 130 62 -20 2 0 39 39 114 51 21 -1 -15 -21 -3 14 21 22 26 38 36 22 13 16 18 -2 1 5 5 4 12 19 18 27 34 44 39 48 60 56 24 10 34
10 19 53 22 -1 35 -32 -29 11 -67 -38 20 23 56 57 8 -14 -20 -18 -28 -25 -8 24 24 36 24 12 19 15 17 8 2 3 11 12 22 21 28 19 31 40 45 56 53 55 68 93 83 49
-28 -3 59 31 -21 -6 -32 21 -3 -47 33 7 29 66 37 3 -15 -7 -2 -1 4 11 24 23 29 34 31 21 25 19 18 14 21 29 24 30 27 37 36 43 49 47 61 63 66 98 106 101 70
15 13 12 -19 -38 -54 -35 -35 -25 -2 15 23 37 33 -2 -4 -12 -9 -6 -8 0 1 10 23 30 25 23 31 38 40 31 31 24 34 63 95 54 47 44 61 56 64 60 68 88 114 125 113 83
51 62 36 -18 -34 -6 -44 12 -19 19 17 42 24 2 -32 -19 -16 -9 -30 -19 -11 3 21 35 38 35 43 60 56 56 50 31 41 2 17 71 60 23 50 74 79 83 98 106 109 148 130 124 104
43 9 11 14 52 13 -12 13 16 34 31 3 18 -26 -52 -47 -51 -36 -28 -11 5 19 55 77 81 81 78 84 100 117 17 18 -24 -83 19 78 66 54 69 81 95 114 145 121 134 131 120 133 135
38 12 19 46 28 33 -20 42 18 51 -25 0 19 2 -14 -35 -34 -16 -5 15 29 64 98 126 142 153 189 179 147 160 61 76 13 -89 27 42 45 51 75 113 154 151 153 137 134 161 155 133 114
21 4 21 53 62 43 2 29 29 45 -8 5 22 29 27 9 8 4 18 46 70 103 148 176 224 283 346 274 147 166 49 55 59 51 54 66 86 109 123 139 150 128 136 159 176 167 130 118 122
-5 22 2 34 70 12 18 12 46 43 9 26 46 50 52 45 38 36 46 69 87 125 134 178 257 275 156 182 51 72 62 43 37 56 63 78 108 126 126 144 151 157 158 161 166 130 130 114 129
28 15 13 28 56 49 39 34 40 42 56 46 31 48 58 60 68 76 79 108 150 157 149 143 172 111 76 95 93 42 40 55 52 65 85 99 114 115 135 164 177 177 169 167 154 152 148 136 154
17 26 42 38 19 43 16 24 34 47 61 60 36 43 59 82 88 109 133 143 151 145 152 110 70 32 43 81 66 24 23 36 77 102 118 139 166 178 190 204 196 169 141 145 140 136 142 135 172
43 29 22 24 56 47 12 3 20 53 78 86 82 74 76 84 112 112 97 62 50 37 38 38 40 87 98 94 48 49 64 72 83 111 150 188 189 198 193 177 159 150 137 143 145 153 143 164 155
27 43 3 17 -19 -20 20 13 74 70 86 98 107 106 106 94 105 119 101 68 27 39 47 86 137 135 85 67 83 83 101 124 142 158 195 193 161 160 155 144 131 121 126 131 135 153 168 182 164
39 8 16 11 13 19 46 1 115 72 77 128 168 164 147 139 161 159 122 87 74 70 87 135 141 129 141 137 120 133 149 148 156 156 149 144 134 124 126 121 118 119 127 159 184 191 197 160 156
35 19 29 24 29 -4 66 42 47 52 61 159 172 157 160 171 177 153 105 86 102 105 95 122 173 193 186 175 167 177 179 170 168 154 128 131 126 114 96 127 107 121 139 174 189 183 134 151 156
10 -58 -17 -9 -1 0 80 29 8 96 99 120 153 137 136 147 134 102 79 73 99 108 107 162 199 219 203 201 210 187 215 113 161 149 133 97 102 108 115 115 109 124 150 187 165 170 146 124 136
-41 -20 -9 5 20 15 47 -5 41 48 55 88 95 108 126 122 103 95 91 98 111 152 152 191 204 238 253 243 192 158 70 140 119 110 91 96 111 121 118 100 94 97 136 142 148 127 140 95 116
45 10 91 57 51 0 -5 11 3 49 49 98 159 193 175 136 123 108 114 122 140 177 193 209 222 213 222 229 133 110 111 120 120 95 83 102 98 100 102 93 98 99 115 124 117 116 100 72 98
66 80 30 26 -3 12 16 29 9 34 68 91 152 166 142 136 141 139 125 160 176 220 232 243 249 224 192 133 114 111 120 112 89 77 91 96 104 109 99 88 88 97 115 106 118 105 67 61 104
64 43 51 49 48 31 34 35 38 28 35 68 93 125 130 134 131 137 156 196 222 250 294 289 266 296 247 111 74 105 123 97 86 91 101 117 107 93 88 88 92 94 106 123 117 63 67 86 98
63 33 29 33 25 47 45 13 42 27 23 45 64 97 101 116 136 152 196 233 269 300 325 313 357 291 146 0 105 115 116 100 90 107 104 103 92 93 92 98 100 103 123 116 49 104 148 120 92

GFSSGP_con_3kmhel_027.txt.gz
Helicity
9 -2 3 8 33 37 6 -11 110 126 225 125 99 222 320 274 303 197 178 201 117 83 51 30 35 47 54 41 57 70 65 53 56 54 41 38 38 38 35 26 16 18 23 24 26 28 32 35 35
5 18 10 5 38 -14 6 65 92 243 174 97 124 141 283 244 132 106 143 85 90 67 43 14 48 62 44 41 58 63 59 57 63 51 38 37 36 30 22 14 8 11 17 17 15 17 19 20 23
27 19 10 21 -3 -8 33 129 191 95 -13 46 85 179 122 177 136 87 82 66 66 56 7 34 81 42 36 40 61 67 62 64 65 40 37 37 29 21 15 10 8 13 22 22 23 23 21 20 17
22 26 16 24 -11 18 51 107 296 67 40 23 50 59 19 -17 50 45 48 40 47 38 72 79 51 43 29 53 74 71 74 78 67 45 40 32 20 18 15 11 12 16 14 15 16 18 26 23 20
17 -6 -3 -0 -23 62 25 131 -11 37 42 23 -7 58 40 -3 11 48 57 75 93 95 62 53 36 26 41 55 75 80 86 83 63 54 39 20 20 13 16 18 19 12 11 10 17 27 22 18 6
4 -16 -8 -14 -1 70 11 75 28 115 42 25 87 37 4 -1 -14 -32 29 163 154 73 8 31 15 13 54 94 89 78 83 86 67 47 25 19 18 16 18 20 13 9 4 5 14 26 24 13 11
-19 5 -1 8 76 46 26 118 45 124 183 29 -0 42 7 10 40 47 78 116 97 94 -8 23 48 58 91 71 81 81 88 64 47 34 28 23 24 17 14 14 14 10 3 -4 6 16 19 17 8
4 25 7 25 80 85 33 104 111 97 26 53 22 -46 -4 27 47 39 93 79 -43 31 4 27 34 45 51 68 82 79 61 44 41 30 22 12 9 7 6 10 25 13 7 6 12 15 6 -2 -3
21 1 -18 -1 84 9 49 102 140 161 152 99 17 -45 42 87 49 42 46 30 -5 20 33 32 33 17 41 48 56 48 47 35 26 19 1 -4 -8 -1 17 49 30 28 24 28 27 22 -0 -24 16
8 -12 -15 79 98 124 23 63 92 96 287 -67 -10 41 123 50 43 24 30 32 45 55 75 68 86 61 89 65 36 40 25 9 -2 -1 3 -1 18 29 37 41 36 35 41 41 41 26 -3 -3 42
4 31 69 41 53 60 -2 29 -47 7 15 -67 35 82 68 16 -3 1 19 40 48 54 62 45 46 59 27 40 13 9 -0 7 15 18 25 44 19 18 17 36 32 32 37 32 45 58 54 77 53
40 32 18 24 50 -19 23 21 -39 181 46 148 98 54 41 4 -9 1 15 26 51 38 38 27 53 35 53 34 21 35 24 34 30 34 48 45 42 25 42 43 47 33 59 62 70 74 97 61 48
31 23 16 29 17 -0 -23 -10 25 39 2 63 52 28 16 13 9 17 4 23 28 35 61 60 44 40 46 53 54 90 57 30 42 46 58 66 93 95 55 38 26 46 60 69 84 104 104 73 60
2 35 22 4 7 14 -16 -2 -5 51 37 61 46 32 16 10 22 37 36 43 15 56 47 51 58 53 48 73 87 69 71 41 45 68 53 16 42 158 200 162 129 42 82 121 115 155 102 131 118
39 29 16 2 27 -42 38 10 52 28 40 42 75 58 15 24 34 39 28 32 32 44 85 109 101 104 122 131 175 144 65 36 65 8 39 13 22 130 131 63 50 147 126 119 132 126 130 116 117
76 45 3 49 26 29 23 64 42 18 22 20 45 50 31 29 26 33 23 33 44 80 107 108 141 164 158 267 225 184 113 77 -99 11 -3 22 44 143 88 129 151 108 87 124 122 108 106 94 100
23 -21 32 14 -17 24 38 21 78 5 -1 41 57 50 44 45 35 35 33 39 50 114 129 146 180 272 276 247 171 149 -44 -14 -21 55 50 65 87 96 99 109 133 112 129 114 83 121 90 104 113
12 47 29 -3 26 -8 -12 74 40 12 23 49 53 59 80 63 48 43 28 41 66 130 140 135 256 222 252 246 97 72 -13 40 49 41 37 53 82 94 96 110 100 95 93 113 166 113 124 129 134
33 17 -7 81 51 -25 7 41 40 32 27 40 42 65 63 60 98 42 49 83 111 210 163 213 218 147 155 101 66 64 46 54 36 45 67 66 84 84 88 111 105 93 103 135 99 100 109 116 121
25 4 48 31 9 20 6 16 40 17 20 50 44 61 66 75 94 74 93 114 130 248 152 111 112 89 57 74 37 57 61 42 60 66 60 75 93 130 119 121 130 175 136 123 142 171 136 136 144
-0 1 49 12 22 13 6 51 25 30 50 32 55 45 56 104 83 92 128 166 119 120 77 51 50 45 60 124 108 95 93 79 56 62 84 150 152 153 145 148 152 155 142 161 173 163 187 157 153
13 34 -7 9 52 40 26 24 44 89 77 73 82 83 106 103 103 116 152 153 113 60 29 41 47 116 142 72 87 75 57 70 176 172 181 164 141 156 153 158 160 159 143 144 142 156 230 145 189
52 21 12 3 16 32 14 -4 167 12 87 89 99 103 146 93 120 149 182 162 95 73 40 119 134 126 106 125 122 105 170 177 162 136 118 120 114 119 123 129 148 136 124 137 166 181 159 155 200
26 29 8 2 9 6 21 -4 45 112 53 125 97 146 132 158 182 203 220 157 128 104 131 140 118 139 170 187 223 276 244 269 277 328 90 156 169 152 155 181 158 132 112 124 142 196 175 248 191
2 -6 6 3 16 -3 56 44 5 32 106 114 135 98 119 160 190 217 175 138 121 124 143 118 151 180 205 225 247 253 250 255 182 89 173 199 146 155 167 157 123 114 113 117 178 206 153 150 100
-13 32 8 24 24 12 73 18 50 148 84 72 132 88 91 116 144 152 135 133 117 132 150 156 178 200 218 238 249 222 184 150 87 172 179 132 137 139 152 111 101 90 90 98 201 166 157 94 104
7 -9 58 54 41 16 -5 12 85 54 60 55 120 106 111 123 152 140 138 142 131 140 167 184 201 214 252 294 249 226 196 149 155 154 106 117 123 118 126 113 97 92 93 81 138 117 84 111 90
24 74 19 20 31 12 24 4 57 32 33 43 104 116 109 105 127 138 151 164 149 139 180 202 227 330 305 320 308 246 192 19 138 104 105 110 107 111 112 103 98 96 84 78 101 136 96 64 72
29 9 28 68 50 28 44 44 107 41 37 36 47 105 102 104 117 118 145 168 161 176 212 216 291 361 359 377 286 243 -90 96 109 101 98 99 126 102 99 95 93 85 89 102 139 146 106 73 56
90 29 22 17 11 33 59 50 31 55 19 36 48 83 115 119 130 161 164 181 182 208 224 297 344 375 401 326 267 109 30 115 114 111 101 116 113 103 105 102 100 101 116 189 129 101 109 92 211

GFSSGP_con_3kmhel_030.txt.gz
Helicity
6 3 19 40 46 40 20 7 169 226 80 161 84 106 230 245 219 230 84 144 278 144 114 95 85 56 48 53 69 69 70 60 56 58 49 46 48 47 42 29 20 16 19 19 19 20 21 21 20
6 21 23 43 49 42 4 203 94 207 301 131 128 173 253 181 135 123 149 176 195 153 94 88 92 56 56 65 72 66 67 60 57 60 50 50 43 37 32 20 13 15 20 22 23 24 25 26 16
15 68 51 43 2 37 11 137 152 32 12 82 115 116 107 142 80 108 130 177 141 136 82 80 68 58 59 77 76 70 69 58 61 60 49 45 37 38 32 22 26 26 33 30 29 23 19 16 13
30 31 24 54 27 -10 5 85 13 10 64 58 117 123 87 144 97 45 156 83 231 156 84 75 43 48 63 77 72 72 72 65 69 61 47 44 42 38 39 35 30 32 36 32 21 14 10 11 16
59 51 15 6 -27 44 24 126 38 216 225 177 231 77 71 73 143 109 157 152 141 195 130 120 44 40 60 49 80 83 81 71 62 58 52 48 36 32 28 31 28 29 28 22 11 4 -1 -6 1
13 2 53 -3 -47 24 87 89 150 243 69 165 -5 74 60 54 42 94 76 113 135 151 140 91 58 65 50 81 99 102 79 68 66 58 51 37 25 20 21 19 18 20 18 12 -0 -10 -15 -21 -25
10 -16 3 26 10 75 27 205 239 204 33 63 170 91 73 74 74 88 179 156 253 221 197 92 62 60 105 101 112 100 77 65 56 41 30 15 11 10 11 22 23 16 10 7 1 -13 -21 -21 -33
20 11 45 26 23 63 60 64 40 113 11 70 55 75 74 68 202 173 216 268 260 211 46 109 -2 89 109 76 43 67 62 51 46 24 4 -7 -9 -1 11 23 30 24 17 15 5 -10 -12 2 -21
-3 28 46 28 28 192 203 333 -14 -23 56 75 79 83 42 239 193 183 216 148 171 99 26 -59 21 21 35 33 76 71 40 25 21 -0 -10 -16 -29 -14 18 33 39 34 23 23 21 6 -9 34 41
5 16 47 27 73 56 29 115 192 64 144 34 53 69 120 103 68 69 33 16 -17 29 3 -49 1 -18 -27 57 27 6 -13 -26 -23 -17 13 -16 2 24 41 37 26 18 16 28 20 16 27 48 73
-13 36 33 44 45 9 20 -1 5 199 150 95 104 43 57 29 32 29 -76 -102 -61 -43 20 2 92 40 45 7 -12 -20 -48 -36 24 27 32 36 46 21 47 56 -11 -5 -3 25 50 61 94 75 59
14 5 13 19 6 -31 4 66 181 51 8 91 125 -2 29 29 40 35 43 53 58 61 57 77 77 79 40 -39 -51 -21 49 95 51 31 32 39 25 45 87 60 109 138 64 74 79 87 130 127 98
18 50 8 19 43 64 17 182 116 -61 -20 39 40 -0 28 16 26 19 24 29 5 32 53 77 55 70 14 42 124 222 183 86 34 53 82 125 110 88 84 146 176 195 142 106 99 127 112 122 111
-14 41 11 27 19 43 42 -14 34 -5 -30 -50 29 44 25 5 42 23 22 31 37 99 130 86 56 62 110 214 162 178 99 68 67 105 94 121 115 147 81 97 130 129 125 127 96 70 79 84 86
42 44 18 22 44 60 89 -59 -17 17 53 55 43 29 9 3 90 80 131 62 138 103 110 88 75 76 216 178 178 149 76 70 18 68 61 72 100 84 82 146 148 108 106 79 66 81 116 109 92
37 55 38 29 5 45 130 113 65 45 25 19 22 57 38 57 71 77 65 40 99 121 131 123 90 206 237 160 96 123 202 53 15 -8 -46 -36 91 111 105 96 93 91 80 88 84 105 131 97 85
32 19 12 36 67 48 117 24 36 20 32 55 59 34 59 41 58 59 64 59 124 230 229 135 159 279 208 137 160 199 179 -15 -89 -51 27 -14 68 57 51 87 84 70 107 115 143 161 134 109 92
20 19 18 -0 3 -17 81 -3 59 21 18 89 48 46 76 56 77 74 59 97 97 330 292 209 218 181 208 177 175 81 66 39 13 10 33 2 41 65 88 70 68 69 104 151 156 115 91 102 93
31 3 20 59 16 14 9 63 69 35 -0 71 74 94 99 65 125 109 67 117 177 376 309 208 215 142 169 171 132 66 89 74 62 42 74 74 62 76 114 183 153 140 141 140 122 142 161 120 124
30 48 17 35 28 -20 6 28 77 43 40 49 48 96 151 120 216 137 116 167 263 407 426 304 216 132 86 72 86 98 96 75 92 91 72 98 94 113 115 116 137 189 159 135 164 162 143 162 157
74 21 32 16 6 -9 5 4 85 53 16 -8 51 47 99 131 231 128 154 196 309 314 275 225 123 77 35 42 88 108 148 168 131 98 79 123 106 136 140 143 160 149 157 154 154 139 176 216 194
24 127 5 4 40 -0 27 -12 196 157 -4 46 63 75 118 89 223 135 139 316 361 248 161 110 61 69 45 38 86 136 126 163 172 191 276 184 112 87 137 148 131 144 144 132 144 166 196 191 212
-4 59 11 -8 9 48 61 -46 9 33 67 -3 8 46 104 139 274 220 262 260 218 143 83 37 91 74 150 83 147 117 273 326 346 380 348 190 134 165 161 228 264 249 211 165 153 155 180 213 240
-5 -12 6 10 20 110 88 168 76 86 91 4 40 46 54 226 232 175 310 203 187 112 61 67 72 252 175 187 251 248 317 357 368 337 217 119 269 270 277 276 231 181 178 171 156 173 252 293 240
-13 -20 11 65 -27 -0 -1 56 16 31 40 210 -20 155 171 136 151 197 275 229 185 120 136 184 245 253 238 270 320 362 390 375 329 221 217 269 229 251 241 223 175 160 151 135 127 163 207 199 183
-14 5 24 12 7 37 31 -10 35 131 121 90 166 243 150 171 193 216 237 249 235 208 204 187 255 289 296 288 291 321 346 307 212 301 282 189 227 214 204 179 172 144 134 116 105 171 191 161 168
48 34 28 21 19 -8 -0 23 87 101 83 96 199 164 155 174 197 210 178 245 254 217 174 177 272 299 303 313 379 345 364 377 340 278 173 142 205 150 217 193 156 139 122 116 111 124 142 145 123
35 46 17 19 15 9 19 4 102 96 63 41 144 143 131 170 195 175 167 238 245 216 212 191 246 341 372 414 410 379 345 311 300 267 76 185 163 174 162 150 142 124 108 102 109 165 158 156 128
11 -1 30 31 25 38 34 43 55 69 46 48 49 187 190 200 207 239 201 242 254 264 269 226 248 388 510 510 421 391 324 327 259 147 144 141 154 174 140 152 146 117 106 120 211 168 100 171 137
90 62 21 61 39 66 49 31 28 37 49 42 30 76 200 217 214 252 244 262 317 314 292 263 271 423 549 516 424 372 300 236 147 263 149 169 179 166 157 166 161 123 125 199 183 229 177 158 147

GFSSGP_con_3kmhel_033.txt.gz
Helicity
12 11 47 59 93 101 58 30 41 236 186 111 84 94 57 161 72 121 173 200 233 248 225 92 80 85 78 66 61 63 62 62 62 67 62 54 47 41 35 30 32 31 31 23 17 11 13 6 -1
20 51 71 89 79 70 38 86 110 152 28 33 121 85 113 126 154 139 280 160 214 299 205 111 83 93 80 64 56 57 58 58 55 59 61 51 44 39 38 42 48 42 33 23 20 22 22 19 11
27 39 82 83 59 58 1 40 -20 38 67 88 107 136 135 89 47 78 199 184 126 227 106 74 88 89 66 57 51 47 63 53 59 59 62 48 45 44 52 48 43 31 27 28 32 31 35 34 26
50 82 71 56 -7 14 63 84 -15 31 296 251 165 145 154 161 80 135 207 197 197 171 100 89 81 59 66 47 50 58 52 54 72 66 58 44 51 53 55 46 30 21 21 17 14 15 13 19 34
63 82 55 33 17 76 22 59 238 225 198 148 173 117 58 128 131 227 334 355 349 254 175 102 104 88 59 23 44 50 51 59 63 56 51 40 46 48 49 34 18 20 20 14 6 -6 -14 -3 -1
93 63 65 -2 17 19 96 187 341 292 172 148 143 153 72 77 117 88 217 340 269 342 264 162 89 95 69 25 42 51 57 53 46 47 38 38 42 43 40 26 17 20 15 10 1 -13 -24 -23 0
72 49 37 121 89 30 159 280 256 157 89 46 140 81 42 87 255 216 252 235 278 225 207 102 106 54 21 8 39 52 44 52 41 36 29 24 25 25 25 25 22 24 20 15 11 -2 -10 -19 -14
65 37 116 108 108 9 156 209 181 149 141 110 89 126 100 226 275 330 281 252 166 181 191 156 119 -37 -6 29 59 42 64 34 25 19 3 7 14 21 22 31 32 31 30 22 12 8 22 23 -8
1 113 79 28 -3 44 103 121 161 169 -3 52 117 155 211 239 272 330 240 191 211 237 104 44 -34 31 33 46 -4 34 40 15 2 13 15 -2 -3 9 19 9 33 32 34 26 8 18 38 37 29
47 29 54 -41 -8 -23 -80 -22 43 81 137 25 122 122 153 155 201 162 59 19 73 57 -7 13 16 10 0 -15 -24 -2 16 -26 -9 -3 -11 -21 -8 -8 17 18 25 15 26 25 21 22 6 41 47
62 72 57 -10 -20 -15 38 22 -4 67 93 72 88 76 53 114 82 -8 -110 -76 -27 -43 -100 -130 -44 17 0 -27 -34 7 -11 -16 18 9 8 -13 2 21 36 26 13 56 47 90 111 65 103 143 100
73 50 106 49 65 20 60 -17 43 -15 31 112 80 18 42 39 11 -44 -68 -96 -95 -118 -41 -28 -21 -28 -13 -3 -16 9 4 -1 13 48 71 101 150 142 123 137 124 134 97 105 128 165 133 111 100
12 28 23 165 57 -12 51 1 35 13 7 38 39 128 8 36 -7 -43 -68 -35 -36 -16 16 3 45 -4 -4 50 77 76 70 72 84 117 122 124 121 142 99 108 150 186 162 141 144 108 107 96 116
-8 43 74 18 -13 10 49 -29 40 -36 31 -37 23 0 -88 24 47 20 31 -19 32 65 62 80 50 52 106 142 191 166 172 172 138 115 82 105 101 117 157 204 156 196 122 105 125 102 113 108 119
38 38 17 10 42 44 72 39 9 11 -18 -23 -76 -61 -35 31 99 50 21 40 55 45 59 91 65 122 187 220 206 195 198 188 159 118 93 112 116 136 186 171 169 118 95 80 103 136 144 156 145
59 51 57 27 117 60 63 85 48 16 -3 -52 -61 -35 -8 79 135 72 50 143 146 126 98 72 103 157 198 197 169 186 213 187 144 105 24 0 63 139 111 126 109 105 88 96 120 127 136 131 133
44 85 17 -5 50 28 21 -2 1 16 -7 4 3 21 75 109 167 96 189 244 237 192 144 129 140 154 203 189 208 206 167 130 48 -24 -73 -45 74 108 87 109 102 128 156 145 120 116 110 108 85
55 25 25 -46 16 100 31 7 -10 49 111 78 73 83 113 128 128 138 181 231 304 249 146 237 192 207 213 236 217 152 107 60 28 21 22 88 103 64 62 73 93 134 142 136 110 108 86 62 44
78 20 28 31 -3 146 81 24 54 64 87 121 91 185 134 137 115 122 136 343 382 369 308 304 251 245 256 267 234 149 90 44 62 55 81 77 96 142 138 138 128 126 121 92 91 80 81 49 66
70 51 36 50 2 -18 40 82 48 19 111 136 178 239 196 153 200 144 179 380 447 432 436 331 242 239 214 209 150 108 57 73 122 129 147 126 126 132 137 152 134 132 119 125 109 102 87 92 102
10 -11 76 34 5 -53 -1 60 91 7 39 108 157 225 278 290 328 285 321 400 459 478 437 339 247 189 152 98 103 159 133 188 158 173 185 181 162 129 69 106 62 148 107 101 101 97 103 106 94
-20 41 39 53 1 4 26 45 127 97 67 3 119 178 262 301 397 337 381 404 446 342 299 294 171 145 99 87 123 231 209 231 179 217 199 180 146 124 111 194 219 223 161 162 113 103 120 154 144
10 12 1 -11 15 -2 84 80 41 65 -2 -68 -40 61 214 326 395 352 407 459 408 311 239 135 93 103 69 69 140 243 225 263 287 318 240 124 129 232 295 265 266 235 197 163 154 146 155 166 188
106 8 22 16 15 31 5 111 78 66 117 58 -84 -41 118 198 347 337 381 373 285 231 188 166 131 97 91 172 216 352 414 466 481 432 341 354 403 297 287 291 253 209 171 169 155 148 172 190 176
3 21 49 100 53 -14 37 56 35 72 41 100 39 98 48 226 328 323 380 358 315 227 221 157 155 185 276 385 416 456 472 490 460 401 439 376 306 299 292 233 209 155 155 153 154 160 162 157 157
23 -11 33 17 0 2 68 18 -5 62 5 58 100 86 113 186 211 280 329 276 206 195 187 148 232 343 399 395 429 500 516 487 428 448 378 346 338 314 379 237 195 179 132 133 132 140 136 161 176
25 84 23 64 48 34 13 29 112 154 44 83 116 184 195 248 271 270 287 262 241 207 201 249 357 413 412 402 396 421 439 459 448 410 394 337 318 365 298 221 201 185 142 118 114 151 144 151 161
30 22 65 67 35 26 31 15 32 101 39 43 99 170 223 265 310 364 374 340 297 278 245 263 347 405 397 412 421 432 395 373 368 380 304 307 286 233 256 237 190 158 124 107 141 171 145 149 112
27 52 54 70 75 16 53 62 17 13 42 72 163 252 278 308 345 350 338 356 365 347 299 240 311 419 465 484 471 449 345 333 335 289 354 251 326 160 165 155 169 152 136 121 166 167 172 154 133
51 25 38 71 46 73 28 24 43 53 41 33 43 155 265 330 358 374 388 421 422 418 379 307 322 454 546 575 570 484 366 316 287 251 335 221 198 174 156 178 192 174 144 147 198 188 175 160 150

GFSSGP_con_3kmhel_036.txt.gz
Helicity
30 29 48 84 114 122 80 36 27 43 68 38 92 75 81 134 138 92 102 124 162 153 123 138 130 139 155 66 60 65 58 54 71 81 71 61 56 56 50 45 50 49 49 50 47 46 57 70 72
29 33 86 105 119 98 48 28 41 18 65 56 93 8 66 51 57 70 168 124 142 154 146 171 259 238 124 77 61 55 45 51 86 73 63 51 55 55 59 60 54 44 43 47 48 56 57 76 109
35 50 81 95 83 56 27 24 -10 77 167 112 71 104 67 61 43 20 89 194 220 222 208 232 247 162 98 77 55 58 39 62 84 58 58 48 48 60 69 61 50 38 40 46 62 67 74 92 114
58 84 103 95 26 11 12 29 7 88 135 155 102 110 68 23 43 38 211 173 240 312 289 294 182 132 100 61 43 50 37 57 62 51 41 42 50 60 56 48 34 28 29 40 64 81 99 105 152
73 70 81 35 -0 -2 -6 -22 157 167 174 199 99 68 71 95 162 184 233 211 272 298 238 190 139 120 73 36 35 27 38 54 61 50 40 42 42 45 43 38 25 21 23 30 39 41 47 70 129
85 63 53 5 -1 30 -22 87 246 203 155 142 68 109 111 136 204 225 266 150 218 243 200 163 145 175 123 21 -12 19 38 50 45 35 43 48 42 34 40 34 24 27 32 27 20 20 38 30 49
32 39 -5 28 59 25 34 91 116 55 101 110 86 71 95 160 187 289 310 180 371 228 237 246 253 151 82 -14 -3 3 31 43 28 18 35 31 21 31 36 30 34 38 38 35 44 47 37 31 26
33 21 30 36 108 107 82 62 88 89 90 44 112 92 72 135 290 326 301 222 214 114 337 411 301 106 39 -18 6 25 17 30 -0 -2 22 31 37 38 31 28 34 44 44 46 59 45 54 28 21
35 34 28 70 132 -9 -77 26 -18 98 113 119 131 127 151 140 209 200 188 262 218 58 34 85 45 -50 -80 -52 -30 -12 -14 -33 -12 25 42 50 38 39 41 31 43 43 36 40 63 62 55 73 47
12 -1 52 40 -14 -16 -36 4 125 151 156 226 333 272 179 102 94 100 93 145 195 6 -8 -107 -144 -117 -77 -20 -19 -33 -9 -9 26 40 51 55 67 43 22 46 64 76 64 68 73 102 113 98 74
27 25 63 8 6 -0 -31 -40 8 69 34 152 161 186 155 69 -12 -32 -36 25 -67 -61 -134 -133 -16 5 2 -16 -35 -24 20 71 57 46 23 48 53 49 51 56 63 76 82 88 109 151 136 122 99
90 139 92 23 12 -36 56 -27 -60 -32 13 116 85 52 18 20 -77 22 -25 19 -122 -138 -156 -125 -14 -9 -11 -24 -25 -15 46 44 86 62 54 38 44 48 49 78 117 149 133 162 155 157 159 135 108
82 143 10 36 47 57 95 -49 -17 8 82 205 114 41 14 -7 -40 -34 -27 -20 -84 -72 -63 9 -14 -33 -27 -5 -12 -0 51 91 83 96 104 69 76 99 119 171 184 179 168 186 187 166 141 143 141
65 138 14 86 4 122 19 10 -17 -2 52 123 51 24 61 54 2 -2 28 -31 -35 -28 -34 4 -9 -26 1 43 36 60 113 112 104 106 136 125 122 131 153 172 203 226 206 214 164 135 114 116 123
61 83 54 18 -68 -65 22 19 19 -45 19 55 54 59 56 16 17 36 35 -5 13 -0 10 -5 -5 13 41 56 72 131 124 110 117 115 123 140 125 138 166 205 239 198 171 143 126 113 114 131 131
65 43 30 -61 -38 -59 2 -23 8 -12 41 32 38 50 39 37 46 66 55 53 13 26 23 8 28 74 116 149 196 202 166 152 138 138 129 124 142 137 166 207 228 156 165 138 125 114 115 111 101
89 94 62 44 -29 31 -11 21 -13 25 16 -31 -27 5 34 73 104 115 85 36 33 40 56 106 131 186 215 224 217 203 185 143 126 99 98 78 117 148 181 212 200 168 151 144 114 119 79 70 68
70 74 51 14 6 44 32 17 3 91 48 -13 -7 37 150 167 178 156 133 52 48 39 122 164 181 236 265 271 245 220 200 144 111 91 76 114 161 178 185 199 161 136 128 120 98 74 73 49 25
47 75 15 32 -2 77 97 90 75 101 67 11 50 137 181 182 152 118 182 176 146 99 139 200 232 227 294 273 238 195 143 125 96 65 116 155 141 154 184 161 120 114 126 82 53 23 41 60 78
83 86 56 53 25 64 35 87 54 140 129 122 142 204 242 229 237 215 262 265 265 242 156 204 217 245 261 249 231 188 130 98 75 72 105 148 164 171 127 96 108 82 77 26 70 91 82 82 90
30 76 86 58 58 49 83 61 33 95 70 74 151 248 264 326 327 329 338 371 350 365 286 247 213 249 251 248 237 239 229 220 191 168 178 176 171 147 127 118 132 107 71 54 129 102 98 103 92
60 131 78 63 24 51 78 26 65 -13 -9 86 163 226 270 280 316 387 393 428 467 412 318 263 261 252 221 240 255 299 282 317 244 202 199 175 143 162 194 166 161 185 187 199 130 117 115 123 84
119 43 19 42 19 31 -5 58 32 25 57 122 100 161 211 324 387 446 483 448 421 459 407 331 248 207 155 196 212 289 275 262 243 243 250 207 258 283 284 301 343 286 273 236 167 175 154 120 145
16 8 22 32 24 51 28 43 37 -21 154 113 128 162 167 248 347 419 452 477 347 299 372 281 266 138 125 144 186 258 277 275 296 297 285 323 371 367 319 295 266 245 296 176 130 159 161 152 160
29 58 40 52 56 6 59 38 -21 -7 38 88 6 189 169 232 390 479 448 352 342 315 341 222 177 143 124 153 191 249 316 345 347 383 416 459 439 395 301 342 379 168 266 178 146 167 168 165 183
26 21 31 24 22 10 41 35 25 40 64 62 27 81 99 196 304 355 365 347 310 300 247 179 98 161 172 209 252 348 425 459 485 493 482 454 386 412 326 216 242 231 230 152 151 135 133 154 172
67 28 38 95 71 56 23 58 49 19 47 38 24 76 113 195 216 250 255 286 321 273 168 184 232 242 292 325 413 468 507 515 490 468 414 372 336 313 227 360 320 244 102 128 127 108 132 131 123
55 21 116 85 26 24 44 46 29 38 -11 -2 -12 14 119 143 145 191 206 208 200 205 185 224 278 329 349 409 441 458 468 459 416 396 376 299 297 340 220 360 256 226 158 102 110 110 134 129 114
83 62 68 69 78 39 35 57 1 -3 -15 19 7 42 114 166 174 180 185 206 234 236 266 288 325 394 422 453 487 496 451 397 339 321 347 329 369 461 319 248 126 217 141 135 149 125 151 149 131
5 -0 78 87 68 85 67 41 29 2 31 45 16 18 100 227 259 272 288 307 282 292 340 361 338 399 462 517 549 549 497 381 355 334 316 452 419 286 240 239 228 178 145 154 132 145 156 137 134

GFSSGP_con_3kmhel_039.txt.gz
Helicity
46 50 69 106 118 131 110 90 27 43 54 55 44 60 85 107 104 100 64 112 190 220 189 195 167 153 161 145 130 100 73 78 88 106 104 94 72 66 60 62 61 54 58 84 102 108 78 48 12
39 49 88 101 132 125 83 27 48 44 42 61 83 72 104 96 100 95 167 140 172 238 171 177 199 204 186 167 207 87 62 69 87 86 73 71 54 48 55 63 66 73 83 100 121 125 111 103 91
38 66 94 109 99 66 27 21 39 39 129 75 59 118 71 73 59 27 38 123 156 196 178 186 174 170 156 182 126 75 65 55 75 51 57 61 48 54 57 67 74 82 79 98 129 130 123 90 57
48 87 100 97 34 21 16 33 42 37 97 98 69 68 54 45 -26 -22 88 98 207 203 182 179 172 146 149 153 93 56 35 42 44 40 51 58 47 49 54 59 70 64 70 78 105 109 114 98 51
76 72 81 52 -9 12 30 18 -7 85 96 137 78 65 67 68 96 133 170 147 184 222 168 174 182 246 134 109 60 31 18 41 38 45 61 53 36 48 45 64 52 61 69 78 92 106 93 87 52
86 50 65 2 21 39 48 26 26 93 103 91 84 57 60 95 137 181 176 248 274 215 146 237 229 101 118 61 11 27 17 23 59 63 53 48 47 45 52 57 55 62 76 77 64 70 85 59 60
64 43 -2 34 49 56 53 19 23 59 54 47 17 71 108 121 231 220 222 298 345 520 438 290 217 181 122 25 34 -16 -1 58 55 38 37 51 46 37 48 38 63 80 66 54 49 52 66 74 53
32 21 19 21 56 110 9 25 45 46 52 4 39 77 104 93 221 226 213 351 359 352 314 467 431 333 167 69 12 -7 8 46 42 40 51 41 33 33 27 43 62 59 46 44 57 78 63 72 61
19 29 31 47 81 90 15 32 -6 61 133 193 143 166 158 115 125 166 83 184 151 85 227 222 244 242 105 64 18 21 34 33 61 82 55 59 46 48 70 65 76 85 74 85 76 84 93 99 82
19 -17 26 21 33 75 1 -12 13 58 171 249 258 202 125 71 69 151 201 213 212 187 236 133 125 65 83 32 39 46 61 78 90 64 87 88 74 80 50 64 91 109 83 90 108 107 115 93 46
-2 42 51 47 1 -15 -21 -23 -7 49 80 121 95 61 48 43 21 31 38 53 61 72 90 -77 -245 -142 -76 24 42 5 -7 -2 27 88 99 57 70 83 74 71 64 87 90 108 155 171 148 121 88
37 64 77 27 -42 -10 -26 -17 -2 -8 35 98 4 66 87 -3 -8 -12 -66 -173 -191 -97 -132 -173 -99 9 -16 -20 -24 -27 5 60 43 44 54 22 56 77 65 65 82 120 152 198 210 207 176 167 142
86 38 50 -22 8 -50 -37 10 6 -3 98 119 31 -19 -60 -8 -65 -83 -92 -62 -82 -4 -34 -42 -16 -8 -20 -24 -10 4 11 -6 6 42 37 30 54 75 86 111 141 177 193 222 225 189 173 161 140
24 36 10 17 -30 -62 -87 23 57 26 121 91 5 -69 1 24 31 -55 -116 -102 -29 -19 -11 3 -7 -21 -2 -3 11 34 52 51 64 51 59 73 99 96 125 168 214 249 246 218 186 168 155 144 128
21 9 25 -27 -8 -30 60 3 -23 117 94 85 -16 -28 -50 -17 80 85 28 -1 36 -15 -2 16 2 8 17 2 4 41 58 66 64 72 79 103 131 161 197 223 263 270 236 195 158 154 135 138 119
36 41 66 -3 -8 -4 18 -56 63 87 99 73 35 -8 -31 7 64 55 32 3 -18 -10 -21 -9 -13 -1 -4 -6 36 67 79 84 70 57 90 116 147 189 242 276 274 244 198 148 124 113 124 112 116
88 49 38 41 -1 8 -12 10 64 36 55 99 84 24 2 1 0 32 33 42 25 2 -9 -16 8 28 27 37 73 110 123 111 107 107 117 144 208 249 273 268 223 186 168 135 103 108 87 98 86
87 106 80 13 -13 -28 39 19 99 65 55 97 71 28 24 43 41 24 7 16 18 30 18 35 48 78 99 133 194 184 167 149 127 112 136 170 187 226 252 229 187 163 153 125 100 98 90 39 17
38 74 65 35 33 7 34 46 128 88 91 59 45 49 51 71 59 45 22 12 8 21 67 104 143 148 204 224 224 195 176 177 152 134 160 163 188 223 209 188 175 156 143 102 86 67 64 21 -15
81 32 51 52 9 -48 15 31 65 134 107 143 90 68 81 72 96 83 69 66 65 84 100 123 159 245 248 250 246 223 209 172 169 188 187 147 186 177 173 164 168 161 142 128 81 22 6 -40 -18
34 10 39 42 59 25 15 25 74 84 100 -12 100 91 61 206 205 161 164 140 117 128 160 189 215 261 277 255 279 261 278 241 249 216 185 150 171 165 173 178 170 148 124 63 16 41 40 71 53
20 27 39 56 50 26 45 29 17 91 141 130 94 148 149 146 233 241 220 176 183 198 169 203 228 256 246 260 274 314 290 305 234 218 204 171 147 173 182 181 176 156 117 109 110 25 110 112 64
45 58 87 36 34 42 49 49 11 35 51 135 180 211 212 197 312 320 298 265 212 211 231 244 296 261 190 235 259 309 264 254 237 236 226 217 225 229 237 222 206 177 148 84 107 118 140 112 132
12 93 62 50 52 43 10 36 4 20 67 137 109 273 301 272 276 335 306 290 282 266 281 311 326 277 242 271 245 294 259 261 262 257 264 265 261 272 272 253 265 248 202 148 216 240 175 112 118
39 77 78 65 104 14 40 42 -16 -5 5 15 69 197 316 349 442 464 440 398 383 308 301 274 298 292 215 251 270 210 218 226 261 269 290 318 333 313 321 346 395 201 337 170 258 343 195 93 147
41 31 70 48 30 11 74 5 31 13 19 -25 60 92 157 212 339 455 460 408 418 239 220 271 256 213 216 259 176 178 210 242 257 321 382 388 408 439 433 440 438 147 277 191 365 230 176 201 127
43 45 41 92 80 73 42 45 21 53 23 23 21 48 71 120 159 278 420 413 360 310 239 253 185 123 186 157 168 213 266 314 390 382 441 445 479 506 502 441 319 361 319 228 310 156 242 148 120
43 47 88 112 91 61 43 51 15 50 67 24 -7 3 6 59 91 141 220 263 281 342 259 159 162 169 147 196 250 306 361 418 416 453 487 438 503 567 315 340 409 271 263 326 158 215 185 151 138
98 110 130 89 82 44 58 26 -7 28 77 64 40 7 34 56 60 77 123 165 208 228 249 233 218 199 209 268 346 380 441 525 543 501 469 502 510 410 441 388 332 291 373 253 190 190 164 174 160
113 67 80 115 79 88 73 54 43 26 18 28 22 25 18 29 56 89 114 152 170 177 195 227 208 214 258 367 431 484 537 511 468 422 419 472 510 406 329 280 321 401 291 288 191 162 179 189 202

GFSSGP_con_3kmhel_042.txt.gz
Helicity
45 53 60 90 113 126 109 75 59 57 35 41 56 61 51 92 85 94 39 72 211 246 257 230 200 187 182 181 164 148 150 130 116 95 80 85 78 80 94 92 96 94 66 48 27 12 -4 -1 -3
34 54 80 72 127 107 71 36 44 23 47 70 66 47 58 54 62 42 50 113 198 255 286 227 197 190 192 199 163 141 142 116 95 78 62 71 85 83 86 92 95 80 62 65 53 51 52 25 7
42 66 75 89 91 59 45 25 56 52 62 45 46 42 33 52 63 28 29 116 234 237 262 212 195 178 193 178 139 112 86 88 78 75 64 92 81 69 79 87 83 79 84 67 52 44 54 57 59
42 68 77 96 58 24 -11 43 23 42 42 64 46 82 48 38 24 15 40 105 184 204 230 200 190 181 147 122 103 65 90 85 81 81 86 95 65 61 74 81 96 85 78 84 79 59 51 53 60
58 60 73 85 31 6 53 47 32 24 64 88 65 57 44 47 46 122 179 163 136 174 177 189 163 129 116 104 92 107 75 67 62 85 90 72 62 59 72 94 80 61 69 54 64 54 31 44 55
55 50 59 18 17 46 49 14 37 23 35 55 72 78 56 72 117 210 226 197 211 266 199 212 171 208 131 90 129 77 73 60 62 85 86 63 50 75 93 81 58 35 10 45 67 67 50 35 36
45 35 -8 31 59 66 55 18 16 -4 75 76 44 55 67 93 137 163 196 230 265 323 294 352 363 285 239 102 119 64 46 40 51 93 54 64 76 94 80 54 41 46 56 53 56 62 66 60 40
45 19 31 28 56 92 41 10 12 67 57 44 45 -3 36 90 119 165 184 229 209 439 502 367 536 383 214 73 47 18 7 23 88 74 72 75 81 69 56 50 57 58 60 91 66 79 71 64 69
42 30 35 40 30 126 51 28 36 24 53 46 33 15 152 161 211 265 211 238 300 201 417 393 564 272 41 65 45 17 18 53 73 91 84 107 90 75 64 64 50 45 84 97 114 113 110 113 103
35 18 21 17 70 116 60 26 10 21 22 33 67 117 136 103 130 169 196 172 151 229 293 313 375 327 180 173 -7 52 40 84 99 117 113 93 65 57 78 55 65 88 107 131 161 165 159 121 59
6 60 42 59 30 12 18 8 -13 19 2 -6 15 48 65 65 72 118 154 85 174 254 215 192 102 181 82 15 -8 5 89 122 89 12 82 69 68 74 68 79 74 86 107 136 155 156 129 111 73
38 28 51 -20 -10 -15 -3 0 -9 6 -26 20 56 70 66 21 -13 70 44 19 10 -48 -38 -110 -117 -262 -100 -53 64 69 -2 -16 -29 21 49 60 68 73 84 77 90 122 134 172 178 154 131 121 110
15 25 22 -6 -35 -28 44 -27 3 -2 -12 58 44 27 -19 -76 -33 -35 -66 2 -99 -201 -217 -176 -178 -26 26 -28 -36 -18 -20 -4 -25 39 59 55 41 60 79 102 133 159 178 212 209 164 136 129 125
23 23 14 6 -32 -29 -24 -14 -9 10 46 12 31 -13 -54 -33 -44 -11 -28 -49 -104 -87 -97 -53 -66 -41 -41 -24 -17 -21 19 -9 -27 -17 21 33 63 83 125 152 168 195 234 226 191 160 149 126 123
19 30 39 13 -31 -29 -7 -10 8 5 35 14 -24 -21 -49 -59 -26 27 54 20 5 5 -5 7 -15 1 11 13 15 7 19 26 6 9 45 69 89 123 147 172 210 250 258 233 184 156 137 131 132
71 37 13 4 -15 -21 -37 9 -4 44 67 15 -41 16 -21 -22 35 45 37 35 -9 -1 8 5 -3 -17 -9 -23 -22 -10 2 17 32 60 74 84 103 141 203 269 271 236 202 169 145 122 132 127 123
94 21 21 26 -18 14 19 43 -5 46 59 32 -1 -2 20 -5 18 32 12 32 42 33 42 24 4 3 -10 -30 -12 8 27 36 43 62 65 91 120 180 275 255 237 203 181 143 116 114 99 107 118
73 76 57 36 2 37 44 52 48 56 68 78 41 -13 15 49 54 22 26 14 -9 -3 11 13 -3 -6 9 13 29 44 67 64 66 86 93 124 161 220 266 253 221 184 170 152 121 104 136 122 110
42 56 60 45 37 0 70 92 134 72 61 64 28 11 -5 14 2 4 -1 26 28 23 38 55 67 57 82 69 86 112 121 99 110 123 139 155 182 220 237 226 199 166 164 128 121 123 116 94 45
39 48 45 49 19 -16 -5 28 90 119 119 62 68 30 12 -23 -20 25 28 31 47 53 64 92 103 116 122 142 148 156 185 124 130 164 168 175 204 202 200 199 194 183 178 180 158 145 112 11 -51
51 59 24 21 14 -4 -6 40 54 57 57 35 20 23 -8 15 50 31 63 81 80 87 97 104 132 160 165 207 266 245 272 204 198 197 197 174 186 188 196 222 228 207 200 212 185 144 25 -24 -26
20 4 -17 4 2 16 17 46 7 68 112 112 113 92 49 22 59 86 97 76 99 65 81 97 153 169 183 245 276 315 294 275 226 219 206 216 202 227 234 238 228 246 247 218 131 45 66 38 53
17 18 7 37 22 23 39 33 0 62 58 105 142 124 142 104 115 118 138 174 171 158 141 136 185 183 190 243 258 295 293 289 240 253 248 255 256 256 245 258 278 252 238 195 144 38 35 64 90
33 45 75 80 78 40 32 30 -23 27 45 68 137 128 139 186 176 182 174 175 168 195 212 208 227 196 207 213 265 275 276 289 241 261 303 285 278 265 258 275 278 270 241 191 253 75 37 127 185
62 110 84 90 94 43 58 47 -3 -2 -4 -15 70 187 186 235 277 250 288 273 258 267 248 214 243 208 221 253 280 265 290 228 211 245 304 329 314 304 296 334 345 321 345 209 -24 134 135 157 174
53 62 65 51 77 63 57 11 6 29 14 10 -28 -31 53 204 252 266 334 338 296 304 276 231 226 192 262 292 259 298 271 240 239 288 342 317 319 358 372 419 455 405 346 111 182 181 151 202 260
44 81 50 108 93 73 45 40 2 32 12 16 7 30 33 91 179 207 322 303 267 317 269 233 231 214 247 263 262 260 266 259 279 335 333 380 411 447 502 472 484 291 202 135 158 176 191 249 292
59 35 67 79 56 41 57 37 33 49 51 47 77 33 6 20 58 82 184 207 217 226 212 185 243 231 233 275 293 253 250 252 335 371 339 393 407 420 511 491 400 270 217 235 262 362 290 210 157
93 79 102 75 86 45 40 38 15 13 65 98 41 9 -11 0 39 54 59 101 148 160 160 174 173 166 193 207 234 196 211 246 301 309 328 370 400 495 510 449 294 220 318 458 306 255 280 163 168
58 65 126 147 116 139 113 29 53 20 20 7 20 19 15 -5 -5 6 19 44 57 56 86 121 142 132 158 197 218 228 271 318 312 301 341 434 513 547 393 287 450 401 447 362 302 179 152 154 182

GFSSGP_con_3kmhel_045.txt.gz
Helicity
36 36 36 54 81 106 101 93 68 45 55 65 51 70 68 87 63 94 34 68 177 253 222 189 170 133 146 171 184 159 142 127 136 156 136 111 105 80 75 54 39 24 23 11 6 3 9 23 32
31 36 50 56 89 98 89 64 66 52 34 68 70 46 50 86 64 59 40 26 166 248 230 208 177 141 134 136 116 99 96 114 130 130 129 122 104 92 71 51 38 39 27 14 2 6 11 23 25
37 44 46 57 83 59 73 44 81 90 37 44 47 84 74 76 61 33 19 74 221 261 219 206 196 177 149 121 107 108 118 132 130 103 114 114 114 76 74 54 50 38 30 27 27 25 36 39 33
36 44 55 38 25 45 9 58 64 72 39 46 49 72 59 68 42 36 24 83 253 252 172 207 217 163 127 134 142 143 125 102 120 112 115 115 105 94 82 56 42 33 8 20 34 52 54 47 43
48 41 44 32 13 14 38 45 40 32 51 65 64 53 54 66 105 111 125 116 150 192 179 225 233 143 131 169 138 130 105 125 103 114 109 113 120 92 61 48 24 52 40 19 37 57 54 56 46
40 23 18 -14 2 36 46 20 12 37 41 49 74 78 53 58 122 125 150 164 208 145 163 291 223 200 144 159 195 143 137 162 81 109 92 115 104 70 45 30 42 37 35 50 46 32 44 47 46
27 16 -7 32 68 82 51 22 37 48 52 68 73 64 42 46 92 138 161 142 238 267 278 384 411 329 173 110 156 118 178 86 66 78 81 119 88 69 42 38 34 33 54 48 31 54 51 54 51
33 14 8 18 49 79 30 26 2 29 34 26 32 25 2 9 110 165 182 249 266 263 499 556 406 301 197 77 107 163 138 67 36 76 121 98 98 75 66 61 55 39 48 73 91 96 89 78 84
30 7 26 13 38 63 15 -0 -7 22 35 43 55 41 49 76 131 172 181 221 303 328 599 698 649 264 256 73 97 150 97 27 45 95 130 113 79 60 58 73 73 78 93 90 110 120 125 121 104
14 18 24 27 43 77 32 -19 18 17 23 27 51 90 115 108 121 169 148 187 264 320 321 232 163 247 147 108 150 139 41 -8 46 99 105 106 86 72 73 67 98 117 118 140 142 139 123 78 34
15 35 14 69 39 10 4 -22 -12 20 -1 22 54 78 64 102 119 158 120 173 164 230 292 249 424 641 317 159 166 194 -35 19 93 103 116 92 82 78 64 66 66 76 111 101 114 120 87 61 46
-3 31 30 -7 2 13 1 8 5 4 5 12 37 54 43 64 46 67 83 146 198 218 211 236 394 383 271 -10 93 48 -2 72 73 58 89 75 78 74 68 61 65 91 97 128 141 114 89 77 69
18 31 14 1 23 5 3 -15 -13 21 -28 55 57 9 7 -13 19 27 59 32 -10 -19 -55 -92 -107 -121 -205 -83 -39 -13 61 40 38 85 66 64 67 67 66 78 92 106 119 139 133 103 81 82 84
-0 11 31 -8 35 -7 1 10 8 10 10 43 9 -58 -20 -1 5 8 46 28 -17 -46 -92 -165 -109 18 36 21 8 -9 -31 -31 27 52 44 49 48 66 77 106 132 145 146 145 119 101 94 98 95
16 16 14 -1 8 -0 -13 -2 -10 22 10 46 5 -30 12 -12 7 -14 6 13 -20 -89 -69 -9 -15 -31 -28 -6 3 -2 23 66 39 34 28 36 46 70 102 138 154 167 171 162 144 132 116 109 103
51 22 18 22 29 1 -48 24 -20 -0 16 23 -2 -32 -10 -6 65 76 76 10 -16 -6 2 -0 -0 -1 2 9 5 -24 -4 25 37 34 31 44 65 87 120 145 170 174 154 137 146 127 124 109 89
68 31 18 20 4 6 3 35 -23 19 -27 19 5 -11 -34 -22 42 64 67 70 93 53 45 51 28 16 9 -13 -24 -16 1 7 20 37 43 56 75 89 118 166 192 172 157 156 132 129 110 98 98
9 33 24 28 5 23 37 85 16 39 -19 23 24 14 7 -14 43 39 44 29 34 53 60 51 24 2 -10 -24 -9 -4 5 4 15 21 32 57 79 98 143 186 191 181 188 160 147 137 134 119 115
36 37 41 60 44 11 34 82 92 80 39 8 37 38 30 30 12 27 27 37 41 45 51 45 35 28 16 14 19 6 13 25 28 28 50 68 101 129 162 198 211 191 178 175 169 175 153 148 127
58 48 49 53 34 2 33 46 45 95 56 60 31 15 14 -5 -9 -4 -1 36 62 62 44 24 29 37 49 35 42 44 73 51 48 82 86 99 111 144 191 212 214 206 218 212 200 176 190 149 114
32 58 46 41 42 16 3 62 39 13 -0 4 -8 -1 -27 -11 -4 -12 8 22 33 54 61 52 54 60 69 65 85 94 104 103 104 115 100 117 138 173 208 220 228 223 232 223 207 220 191 130 48
-2 -12 39 19 19 24 18 27 40 -2 28 23 13 -10 1 -3 -6 5 35 37 54 45 31 49 57 71 83 103 112 130 122 151 151 159 160 162 155 192 229 242 251 253 243 256 269 237 196 119 -6
-5 -45 5 16 5 27 33 25 46 45 1 83 101 57 20 7 14 31 42 48 64 64 95 82 68 71 86 110 109 142 141 148 187 213 171 183 222 245 258 272 269 269 285 299 275 242 125 99 55
25 66 64 45 59 18 36 25 5 18 30 11 48 98 96 38 32 20 13 47 64 99 107 140 125 108 123 131 148 161 187 227 238 228 214 236 245 262 268 278 269 294 337 313 218 159 106 102 45
55 63 38 40 66 48 56 37 -2 17 18 -3 4 11 119 127 55 55 66 94 94 138 153 153 169 143 153 168 171 182 197 214 211 227 257 289 287 291 289 283 324 380 383 294 230 249 78 90 124
53 50 54 42 42 55 62 40 20 27 20 12 21 6 1 63 96 97 100 115 119 144 168 188 181 156 183 181 181 202 211 237 209 238 267 252 303 305 282 314 372 459 347 329 238 114 139 170 178
66 63 68 80 56 49 68 34 -1 33 25 39 65 47 41 14 30 60 61 107 128 123 174 228 201 144 165 176 171 180 206 224 266 266 240 267 314 347 306 363 427 424 351 227 197 153 241 273 205
54 60 79 91 55 38 52 62 21 32 38 40 40 67 75 41 28 35 41 75 72 74 104 125 125 110 132 144 145 165 162 175 204 231 252 298 279 303 372 428 426 404 279 235 240 316 241 176 214
81 76 95 76 76 53 39 42 34 17 18 25 19 -33 -28 3 26 18 25 37 33 60 98 111 87 73 84 111 120 125 171 178 183 215 244 275 292 318 352 408 436 350 418 194 365 370 239 115 130
57 68 89 65 19 104 89 57 73 26 16 22 -1 7 -10 -31 -15 -9 -10 -4 -2 10 31 28 39 62 70 101 140 130 145 179 183 203 240 269 295 326 418 463 429 323 348 318 479 424 135 112 149

GFSSGP_con_3kmhel_048.txt.gz
Helicity
35 17 7 11 41 63 21 39 80 58 89 67 71 96 133 138 131 121 36 4 54 152 183 153 174 160 169 187 191 190 186 174 157 148 122 91 85 66 47 41 29 14 11 17 26 28 29 26 29
30 18 9 30 28 25 4 57 33 117 79 53 75 49 104 101 45 71 25 2 68 170 184 155 178 173 188 193 182 177 160 155 144 135 107 96 87 63 44 27 19 0 -7 -6 9 22 28 23 17
21 4 -5 13 19 22 34 53 92 97 48 50 55 79 81 79 97 60 37 35 57 144 156 212 192 175 164 171 179 171 157 143 138 130 105 86 83 66 45 31 22 2 -12 2 19 21 24 28 20
14 25 20 -14 -1 21 50 42 79 88 37 34 54 70 64 68 54 30 13 69 117 146 164 229 205 153 157 163 160 157 146 149 147 125 102 90 83 65 56 35 31 26 27 25 28 30 34 28 23
16 5 -12 -10 6 15 35 55 62 67 49 37 33 54 60 67 61 64 74 76 146 161 225 237 250 167 135 123 129 146 161 143 145 117 128 98 62 66 57 53 30 32 37 29 33 39 29 32 24
23 -1 -24 -4 19 21 32 32 17 29 31 51 51 75 81 46 71 76 125 156 215 213 245 304 242 207 172 117 100 124 142 143 145 139 139 86 43 64 66 62 55 32 32 44 41 33 44 38 27
-10 -17 17 12 29 11 36 18 6 12 24 55 66 75 82 62 57 85 134 151 186 200 302 340 340 270 278 246 107 103 155 146 161 150 112 73 54 76 70 66 62 69 65 53 49 61 46 38 32
4 -15 1 -10 16 23 21 2 10 4 49 41 54 70 65 45 62 104 175 179 245 306 445 475 536 567 318 208 98 138 179 200 156 137 121 70 67 75 72 88 91 77 72 67 63 69 66 40 45
14 13 -7 5 27 40 38 7 -7 10 19 38 61 80 95 102 75 118 191 250 304 357 519 507 693 760 684 402 171 86 158 131 132 115 60 30 44 62 36 80 59 87 85 85 96 78 62 60 45
6 -1 5 11 51 70 15 1 -13 -3 25 31 57 89 112 90 81 87 145 201 260 374 447 587 622 363 204 137 93 37 65 86 112 65 46 46 59 50 54 66 93 93 109 112 77 66 42 -6 10
3 30 23 43 5 5 17 -1 -7 -9 -2 41 47 104 122 121 101 113 132 193 242 433 621 791 662 647 309 124 154 24 90 68 123 20 51 59 70 50 40 44 37 54 76 44 51 39 35 32 20
42 0 24 15 9 3 18 14 -24 13 24 38 87 105 91 68 57 83 108 136 143 243 221 102 122 76 183 297 237 214 259 166 8 32 74 67 68 46 33 31 43 52 30 50 54 59 69 40 40
65 39 17 -7 14 0 7 -7 0 15 32 61 87 67 39 8 38 22 55 132 196 236 222 197 220 317 390 581 430 72 -4 -8 13 47 39 31 45 50 50 47 48 40 55 56 81 81 50 49 48
5 39 39 -2 -18 21 -2 13 1 33 30 58 23 26 6 10 12 23 1 9 35 92 123 97 72 82 107 88 -104 -33 -16 -16 44 11 29 46 43 40 50 48 54 66 66 87 89 56 56 57 53
26 42 8 -18 11 -14 -5 -6 -2 56 30 29 28 28 6 1 15 22 2 -21 -21 -49 -40 -66 -111 -130 -62 -70 40 31 7 -2 -11 -14 0 48 32 38 48 62 70 82 107 114 109 80 71 72 66
10 12 19 43 10 11 14 13 12 48 23 32 25 33 39 22 19 -19 -30 2 -4 10 5 13 0 7 -4 -48 -27 -21 -28 -25 -37 -35 -10 27 37 39 50 60 80 113 100 98 106 81 88 89 88
3 4 -15 12 3 10 8 18 9 45 11 20 29 32 25 20 52 72 49 20 29 29 31 17 -3 4 -18 -30 -22 -19 -20 -28 -36 19 21 23 28 61 46 70 97 109 112 126 111 97 107 122 111
14 -16 -7 8 26 1 13 16 32 53 40 7 33 32 17 13 42 58 53 44 65 75 62 41 26 15 7 -13 -18 -16 -19 -24 -7 12 17 25 42 43 64 85 114 125 127 134 121 130 135 132 115
33 -32 -2 48 45 19 18 33 6 81 50 40 20 23 10 13 34 48 46 55 67 68 79 86 62 35 18 7 -6 -15 -10 -12 -14 -2 18 34 40 54 69 95 127 143 139 128 147 162 149 143 126
-12 -20 14 37 37 40 18 28 17 70 43 41 33 15 2 0 22 48 51 44 56 60 61 50 39 19 7 4 -5 -11 -5 -2 -4 16 26 41 44 64 70 100 131 125 145 171 175 165 166 169 152
1 -15 49 47 43 18 17 16 11 22 1 6 4 -11 -12 4 15 20 35 49 47 50 55 50 46 21 11 -1 -10 -13 -7 0 11 39 55 83 85 78 99 120 150 168 180 183 183 180 168 188 170
19 -7 32 33 1 1 25 23 51 26 22 15 14 16 -5 3 4 19 29 32 44 38 41 36 37 35 32 24 23 41 54 51 56 56 61 88 96 103 110 145 189 209 192 211 206 196 194 184 201
8 -22 -37 41 17 19 12 23 33 43 12 20 41 46 26 6 26 38 43 44 54 49 55 53 58 63 64 69 39 41 30 38 62 83 102 128 133 149 154 178 200 227 233 227 236 242 211 211 187
12 9 -11 7 7 -4 14 7 10 33 12 1 -4 49 40 31 14 0 14 23 16 29 48 59 69 76 78 82 82 63 59 62 95 131 121 147 169 174 168 188 196 208 232 252 247 232 254 237 232
-10 12 16 16 21 -7 60 13 11 27 24 -21 24 30 20 15 21 0 8 40 46 55 78 72 76 83 88 106 82 72 66 82 125 118 115 169 195 247 229 238 224 230 224 247 260 335 259 219 165
11 6 27 27 20 25 58 3 28 52 28 28 23 25 18 10 14 -5 6 24 45 57 73 86 105 114 111 120 101 101 100 141 131 120 156 198 236 261 243 270 257 233 272 367 402 329 264 163 158
51 36 50 51 47 47 35 25 -2 49 21 21 33 24 28 21 4 7 -1 -2 11 31 56 77 90 106 113 129 96 86 131 111 109 107 208 268 235 259 249 227 283 319 274 356 382 378 288 214 187
58 69 68 59 57 53 49 48 26 42 43 46 50 45 33 44 63 36 31 29 14 -1 5 26 56 64 61 83 90 89 113 94 85 130 183 229 231 243 238 266 281 298 364 399 425 346 367 229 313
91 70 65 75 89 74 65 49 52 24 37 33 30 19 24 33 45 53 59 60 60 66 61 53 41 56 74 75 68 84 71 82 84 143 127 152 177 234 269 225 273 367 438 489 528 557 315 243 189
8 18 31 45 78 70 51 27 78 28 24 37 35 20 19 20 26 26 36 47 62 64 68 83 81 70 80 92 74 71 85 92 97 109 127 195 219 186 190 267 420 406 535 532 577 595 412 167 143

GFSSGP_con_3kmhel_054.txt.gz
Helicity
-5 23 27 17 14 34 22 36 31 42 30 44 -20 114 127 131 106 112 -58 -162 -30 -31 49 93 149 172 147 138 134 122 108 101 109 109 87 74 48 40 56 62 53 44 39 33 30 24 22 10 -5
-16 -24 21 -28 3 -33 8 30 65 89 34 7 25 89 45 125 50 -9 -58 -13 -14 107 77 98 151 164 155 133 116 100 95 103 109 105 88 71 51 46 56 53 46 43 33 29 23 21 14 5 -4
-4 -13 -19 18 3 18 -0 42 46 74 67 32 -1 17 187 178 -6 105 58 136 126 211 88 75 98 176 168 135 109 93 96 105 104 102 87 75 62 69 54 51 38 31 25 20 22 19 10 4 -7
13 39 50 -9 -9 1 27 8 21 -14 1 8 19 65 257 43 30 45 16 206 129 220 144 306 205 161 177 132 113 97 101 107 108 108 88 76 61 62 64 44 27 31 23 23 21 15 7 -0 -14
49 6 11 13 23 3 41 35 57 36 -2 29 52 73 68 30 50 140 88 114 149 230 169 208 254 170 160 116 120 115 114 121 128 109 91 72 55 50 51 44 27 42 25 21 16 7 3 3 -4
-52 19 -10 26 42 20 37 157 138 45 24 25 26 51 75 72 116 183 174 82 107 149 235 215 262 218 156 146 119 116 123 143 136 118 110 98 73 66 57 54 49 43 22 14 8 9 3 14 21
-4 -32 -26 4 -15 77 48 87 91 63 87 105 190 30 115 75 150 154 176 217 227 177 281 332 276 218 171 149 158 148 164 162 138 141 133 129 126 114 100 76 58 38 25 18 13 3 -3 8 19
1 -25 -6 5 16 84 110 50 198 48 30 57 90 85 41 78 69 115 182 202 319 298 384 357 390 316 240 131 123 144 179 180 165 153 148 130 125 122 102 62 50 41 28 20 12 5 7 8 -3
8 7 16 -10 -4 45 39 40 36 119 53 11 120 41 7 77 83 130 158 226 266 339 310 399 451 434 248 361 209 73 118 116 124 132 82 85 86 72 63 49 50 43 34 25 14 6 1 -24 -25
28 14 19 -7 11 45 42 44 50 26 47 81 54 53 36 90 115 113 122 176 221 384 485 491 439 346 298 393 321 179 67 84 68 64 46 95 76 68 81 72 74 48 38 25 3 -6 -9 -2 -41
19 19 -7 -0 77 41 25 61 131 108 25 45 104 56 58 77 95 84 107 180 230 270 413 620 498 386 313 274 362 354 205 164 28 107 157 110 107 79 93 75 52 42 38 7 -19 -18 -6 -31 41
14 9 23 -1 42 39 10 102 66 35 124 127 105 100 46 79 106 75 114 184 234 330 481 493 641 633 512 640 487 460 214 78 165 122 96 51 34 51 52 26 37 17 -4 6 -9 -1 17 43 58
16 15 -10 -35 -8 42 24 19 119 172 144 121 91 93 68 90 84 56 83 146 230 285 351 416 474 599 777 734 649 376 139 212 20 152 67 -13 15 24 7 -3 7 -17 -0 8 11 58 45 54 45
-33 -32 -29 1 -15 7 -1 91 58 148 89 83 55 39 67 42 25 52 48 89 172 209 373 558 570 617 490 427 210 125 112 65 150 178 -60 -8 28 50 24 -14 -7 -13 67 36 53 63 69 33 61
5 -8 22 -10 -9 -0 47 113 88 80 81 56 64 25 103 70 60 60 61 52 127 139 207 203 240 218 133 98 17 -23 40 71 165 11 -3 16 71 38 10 44 3 -13 47 62 83 107 67 100 56
-2 33 51 69 102 36 110 58 6 29 24 79 80 33 87 39 70 83 34 16 8 39 3 44 111 112 113 242 202 194 273 61 -99 -106 29 33 7 -19 1 -19 -14 27 106 112 123 125 96 66 54
46 55 32 86 100 51 249 70 40 -19 -37 125 95 115 82 70 76 46 48 16 -6 -12 -62 -27 31 33 114 48 49 18 -41 -103 -17 -19 -27 -44 -32 -31 -32 -34 66 100 130 98 127 94 76 91 99
1 48 15 57 89 13 37 173 -25 -36 31 58 112 173 103 51 116 60 40 31 3 6 -7 -16 -81 -61 -29 -46 -52 -32 -110 -90 -41 -35 -29 -11 -37 -25 -22 -28 82 141 136 93 117 116 85 122 123
-40 -66 -41 57 76 51 34 38 64 9 10 81 114 180 106 69 160 70 78 68 9 53 30 11 -29 -39 -63 -53 -54 -52 -51 -34 -57 -63 -25 -5 -8 -20 -11 1 133 151 98 120 147 115 153 130 176
-12 -30 -40 4 84 47 24 22 108 81 33 126 51 158 137 60 188 128 103 59 47 65 59 18 -12 14 -6 -33 -21 -33 -36 -20 -28 -56 -2 -12 27 23 -5 -0 129 127 91 182 215 162 178 153 173
-22 -19 -43 -49 27 43 19 -20 -6 128 -13 117 55 114 122 106 204 147 128 86 20 123 100 71 55 52 28 7 -19 2 -6 -13 -3 -20 64 4 56 29 46 60 152 172 125 235 220 207 178 176 175
-14 23 -30 21 11 10 37 16 28 51 57 75 107 70 136 142 224 199 135 120 85 89 148 84 65 81 66 17 -52 16 28 16 11 1 54 102 142 112 63 109 136 209 201 214 234 236 202 167 227
-34 27 -10 -7 -42 -46 33 30 -58 75 69 68 152 68 84 117 248 274 199 103 114 61 160 90 64 101 83 85 3 -47 62 29 6 37 44 170 211 198 142 149 164 241 269 234 241 255 215 196 173
-13 42 -14 -16 -32 -19 -31 75 37 27 -0 39 70 77 56 84 205 266 247 137 149 104 111 133 69 96 34 133 60 16 91 88 12 56 102 198 243 196 155 170 209 309 294 275 267 264 253 257 242
13 16 7 27 -8 29 -23 -28 1 141 98 23 -18 127 96 68 97 192 257 222 186 159 143 157 144 118 102 67 101 92 16 35 60 11 110 190 239 259 214 213 208 282 306 288 248 292 278 372 467
30 20 -0 46 29 -46 40 8 88 85 30 1 64 9 34 226 138 156 206 265 249 184 183 184 166 139 104 115 107 168 258 81 85 -81 -27 189 220 295 311 331 243 293 315 285 224 326 413 499 432
37 17 -54 -43 44 -24 12 -32 79 63 33 48 31 25 34 -5 71 171 131 153 261 271 227 227 182 149 98 220 179 187 210 112 212 -19 -41 46 163 240 332 339 389 357 294 304 318 432 506 512 436
-43 1 3 -38 60 27 20 34 51 61 32 60 28 24 25 69 66 13 36 133 178 256 291 274 204 118 134 219 291 332 208 81 91 -23 29 127 267 335 310 366 345 271 273 374 410 450 508 543 545
21 -2 1 -10 37 28 10 -28 182 68 48 51 26 51 51 64 73 50 55 41 149 236 283 291 303 181 156 294 309 343 288 153 110 132 160 157 261 186 179 184 206 255 372 450 527 566 564 605 392
-16 45 17 50 75 59 78 44 -0 106 21 48 42 26 44 73 92 43 37 71 130 115 206 286 311 242 174 199 279 188 166 181 196 160 171 166 187 186 182 244 311 363 397 434 480 533 409 454 281

GFSSGP_con_3kmhel_057.txt.gz
Helicity
9 16 20 2 60 55 51 81 176 33 52 -11 -74 -22 26 154 172 196 6 -40 -75 28 228 20 69 110 113 129 130 120 110 104 92 87 93 93 85 78 88 75 67 60 55 47 39 31 30 34 35
1 -10 50 6 40 25 49 96 101 57 -32 -56 -16 34 122 87 92 20 4 -104 -189 -161 141 -62 61 113 117 120 111 107 104 101 83 82 93 93 85 79 80 70 59 54 42 36 22 15 20 36 56
1 12 -16 28 42 144 126 117 70 -4 48 25 76 144 81 91 -7 8 38 -31 -45 -46 8 84 162 250 124 121 116 104 104 88 77 89 100 88 88 73 66 62 51 39 31 22 20 25 34 49 70
-21 -14 -19 -2 19 91 247 74 54 29 21 -3 72 97 66 65 20 95 63 64 99 40 133 118 124 206 132 102 125 110 104 88 86 108 112 92 79 67 59 54 44 31 28 28 34 37 32 47 73
12 -6 51 71 105 171 44 16 50 77 51 76 63 78 104 64 59 94 95 121 150 148 170 157 160 183 212 67 106 117 103 91 94 114 104 102 83 66 53 48 36 24 23 23 24 25 23 41 89
18 63 27 30 88 29 65 65 70 196 48 -11 135 65 43 32 60 113 97 88 163 169 152 208 177 205 192 183 123 133 100 112 118 116 108 94 89 63 53 51 41 28 24 18 21 31 34 53 92
63 51 -10 -12 57 47 50 40 34 42 23 -1 3 21 43 6 41 72 115 120 151 140 167 219 254 303 286 220 153 125 129 140 148 135 102 89 86 74 51 56 42 25 22 19 20 20 35 59 99
15 85 -63 34 100 24 19 20 55 84 112 -24 1 90 101 93 68 56 169 142 187 217 250 311 301 324 305 269 145 136 142 155 152 168 141 128 101 92 58 54 36 26 25 11 1 -5 21 49 102
-20 -18 34 129 91 -27 1 47 51 117 79 32 24 34 120 98 52 96 123 176 189 220 257 248 429 450 429 159 354 175 133 109 130 142 150 148 135 121 74 44 37 29 21 -3 -17 -19 -15 20 41
19 99 124 133 59 63 18 58 28 69 62 43 96 121 81 65 97 104 86 146 235 305 351 314 355 376 300 205 248 255 159 77 150 144 145 134 124 105 77 53 41 40 8 -13 -16 -15 -4 22 16
21 88 88 38 74 74 63 76 101 60 27 39 125 124 97 125 102 128 160 152 228 329 361 379 390 391 412 285 331 338 292 164 98 157 131 157 137 84 53 68 38 30 3 -13 -18 -27 -16 20 13
45 29 -25 13 39 28 32 63 83 124 54 20 77 116 133 95 69 72 123 156 252 356 475 456 379 446 321 310 387 353 289 305 113 134 99 140 108 56 24 38 20 14 -11 -10 -16 -27 -21 9 30
-37 6 22 -36 22 59 219 149 110 99 70 37 31 64 177 101 51 52 81 139 237 330 341 465 440 475 481 509 404 299 354 220 128 185 130 79 27 36 32 17 7 -3 1 -11 -7 7 29 19 37
-15 -114 -63 -71 -25 -2 125 128 99 69 112 60 14 73 135 77 78 72 71 136 240 268 393 453 512 378 394 509 353 573 575 544 286 244 180 20 77 -32 -1 4 0 -1 -7 -13 28 41 35 21 43
-107 -55 -60 -28 -2 110 181 172 77 -68 44 45 45 134 92 34 55 47 32 31 157 199 231 317 355 357 473 556 481 492 605 405 334 211 130 22 -3 -1 -5 21 -9 -18 -9 23 72 59 58 52 48
-64 -40 -20 23 118 148 218 128 61 119 78 27 11 170 96 44 91 55 31 -2 87 160 149 277 303 205 227 236 155 144 104 69 -29 45 -121 -63 -32 15 42 26 -11 -13 32 91 109 120 100 82 87
-34 57 79 129 182 183 191 153 56 118 105 56 98 223 136 82 92 58 60 26 8 96 165 133 94 58 62 -14 81 113 99 -26 -44 -79 97 20 18 24 -13 -12 -16 -5 105 147 152 146 131 106 96
4 36 134 34 127 179 176 156 41 126 131 58 54 235 177 133 73 60 66 33 0 5 66 104 60 64 76 89 58 -3 -92 98 103 -4 -15 -8 -29 -42 -34 -39 -32 109 117 135 155 150 124 114 121
99 9 -51 -59 46 66 113 134 -25 -71 129 65 85 306 225 163 78 74 43 24 19 10 38 6 -13 -1 49 -18 -45 -34 -49 -89 -131 -93 -56 -59 -53 -49 -28 -36 -26 106 144 145 150 164 122 106 156
56 3 -15 -74 49 32 26 60 20 21 20 197 162 258 210 201 149 95 54 34 19 3 20 -14 -64 -73 -80 -79 -86 -131 -200 -166 -137 -71 -60 -42 -10 -8 -9 -18 -8 88 113 156 191 209 196 149 190
8 -13 -12 -19 7 4 38 58 94 100 122 67 76 144 238 342 217 177 122 83 61 45 26 34 25 7 -54 -50 -78 -107 -92 -89 -79 -76 -83 -52 19 19 16 9 42 132 144 169 200 238 241 211 175
-20 -4 26 -6 -8 -22 35 6 26 232 191 100 -30 158 291 359 278 238 184 120 112 67 46 57 68 48 -9 -29 -23 2 -16 -11 -26 -3 -14 -21 18 71 70 49 75 171 180 183 219 267 295 287 209
9 6 2 -5 -22 -5 -76 -26 -38 137 164 22 -69 235 259 371 384 292 252 195 139 107 72 33 92 82 40 11 7 -14 -13 6 32 21 5 10 44 105 138 123 115 183 236 215 242 289 299 304 294
34 -2 33 -8 28 -22 -10 -5 -71 34 95 177 94 183 214 337 400 391 290 199 166 140 113 84 81 94 70 62 32 35 32 61 64 61 61 99 136 165 174 178 224 232 270 295 292 277 280 303 312
58 34 22 -11 28 12 -17 -46 -89 42 100 66 170 65 188 343 400 368 334 252 198 212 204 159 136 137 103 79 57 42 37 78 132 85 117 148 175 187 223 261 242 276 316 277 324 321 314 424 268
34 91 107 38 35 22 -5 -22 -19 56 27 48 81 133 112 303 371 392 424 408 326 229 259 260 190 172 151 153 123 64 44 27 141 157 85 159 180 219 229 227 265 233 306 292 318 322 279 379 372
77 93 74 -3 14 30 -24 -17 34 -36 -31 -7 25 76 72 213 286 308 375 390 388 362 277 312 274 217 193 186 217 134 30 97 154 209 131 49 59 81 162 261 359 304 309 312 308 329 354 443 505
73 118 59 -13 3 29 -44 17 20 70 -18 -23 65 41 25 48 149 283 356 353 355 384 374 346 318 271 234 245 202 173 156 129 186 212 240 137 82 180 296 307 330 311 310 342 344 393 397 441 475
135 50 72 49 35 61 41 20 20 211 345 73 38 81 91 88 90 102 115 275 331 379 376 375 387 360 275 240 237 247 300 307 253 145 139 80 116 191 251 201 242 299 337 340 373 389 423 456 478
142 125 112 115 16 55 91 16 11 93 94 -7 29 46 71 156 163 83 60 134 93 293 360 399 395 420 342 293 382 372 361 304 242 -71 119 195 183 177 160 168 231 282 324 340 360 381 389 342 327

GFSSGP_con_3kmhel_060.txt.gz
Helicity
28 37 23 47 26 9 27 -14 82 58 28 33 78 -21 -8 39 -19 12 89 18 26 81 159 232 114 79 88 145 160 139 128 122 131 138 145 143 147 145 139 126 106 90 72 69 80 78 66 46 16
21 16 6 13 7 77 39 58 109 63 25 94 43 10 27 22 93 53 35 -31 44 96 245 180 334 181 40 123 134 126 121 112 111 115 117 134 142 137 122 112 95 78 63 62 66 69 62 46 37
8 -2 -2 -25 32 75 63 25 70 62 82 21 20 88 15 62 64 54 34 40 30 -37 -3 100 185 135 253 108 134 126 111 91 92 97 104 121 132 120 111 93 77 58 51 52 55 60 61 53 30
31 -22 -7 27 50 94 178 128 -7 26 78 124 88 101 72 46 63 54 46 51 17 -45 -25 73 63 8 87 165 189 149 121 94 90 79 93 106 113 105 100 83 65 50 45 42 57 78 99 117 43
-5 -9 19 60 78 166 131 31 -60 85 67 100 74 65 25 19 54 76 70 74 81 85 60 101 23 87 131 232 263 115 113 91 92 77 83 95 96 95 91 68 62 48 47 48 65 110 128 139 90
62 32 99 69 102 153 68 5 -32 -5 22 88 105 87 22 87 59 52 70 110 120 112 88 168 158 189 249 196 202 92 133 111 105 80 89 99 95 94 95 73 53 48 49 58 70 107 128 148 127
105 71 75 106 123 113 32 27 -23 -6 42 77 16 66 77 76 74 114 45 70 58 105 132 176 205 161 190 340 400 64 79 91 91 89 88 92 99 96 86 69 62 56 52 61 73 101 153 146 90
69 19 36 105 115 106 27 72 31 51 43 31 28 26 7 57 85 87 42 58 182 105 169 213 277 280 311 289 282 57 167 126 129 121 131 101 101 100 82 66 55 49 40 59 66 97 147 183 130
2 28 44 103 98 49 51 61 2 65 96 65 39 48 80 90 87 92 43 80 216 209 188 251 312 300 323 221 82 59 102 136 151 154 174 152 110 93 77 48 48 34 23 38 67 106 129 168 125
19 22 38 134 159 99 100 93 80 174 137 141 82 54 90 69 69 79 47 133 152 246 306 359 358 402 378 146 74 158 175 130 139 176 163 148 122 82 48 48 37 33 25 35 52 75 87 104 76
15 35 74 136 106 122 110 99 71 148 57 53 -15 85 127 59 34 61 76 96 140 223 271 384 389 358 292 209 122 158 300 202 111 178 151 138 161 82 77 27 26 25 16 26 27 29 38 52 52
18 22 139 82 58 119 83 81 133 104 62 94 102 107 115 35 2 -1 9 68 161 265 422 457 365 310 302 246 191 191 300 231 209 121 137 177 158 72 41 20 -0 21 -1 5 18 16 23 34 48
82 -0 -73 11 24 61 128 92 135 149 150 140 60 102 100 78 32 12 16 39 122 311 325 297 307 312 287 299 360 274 297 334 211 141 145 172 152 72 98 -2 34 9 -1 10 10 11 3 25 49
-74 -82 -50 -70 -34 31 94 113 115 107 118 83 93 98 81 74 63 53 53 117 201 218 318 352 425 302 377 393 274 424 406 260 206 160 116 165 127 200 55 21 23 -24 17 13 12 8 17 32 35
1 -11 -81 -59 -63 -52 124 170 149 116 96 126 87 107 95 76 66 59 70 99 152 102 198 214 249 312 279 409 437 732 398 348 279 208 174 112 124 76 17 -7 -2 -7 19 12 15 29 33 48 29
-18 -34 -25 -9 -32 31 156 137 144 58 139 80 99 99 69 61 56 67 72 50 73 173 170 241 257 297 329 292 391 353 410 519 481 212 196 55 30 42 -16 -20 -14 27 2 17 43 65 37 56 49
18 -1 -5 16 154 141 185 114 118 101 199 100 125 136 78 37 20 52 61 59 66 123 218 246 214 211 186 220 303 347 299 492 373 261 251 76 77 55 -10 14 32 -13 -18 -5 43 93 105 103 79
69 33 21 12 56 122 121 84 117 114 164 181 156 156 108 101 55 67 61 45 50 61 135 180 62 72 98 80 138 196 222 201 268 236 115 113 88 73 68 46 10 -4 -4 31 109 160 130 127 128
-14 9 22 79 52 73 38 77 156 123 109 162 201 222 163 107 59 69 73 72 33 41 88 73 89 -1 12 9 -5 -44 -7 85 42 55 -75 40 30 25 20 -3 -26 34 116 103 146 170 140 124 155
-25 6 29 24 24 64 66 44 55 152 26 99 219 205 211 144 117 81 86 91 45 45 45 23 4 31 23 38 3 -26 -7 -31 -46 -167 -105 -14 -22 -52 -48 -30 -12 53 122 100 149 196 182 146 211
-0 29 66 61 8 5 120 35 36 65 61 23 103 215 237 256 183 135 109 104 59 53 36 6 -28 -11 10 -6 -21 -64 -95 -117 -190 -232 -195 -162 -123 -79 -45 -41 -10 4 73 117 139 196 239 205 201
-1 30 27 23 65 58 57 32 -5 71 125 73 94 289 256 243 172 179 138 107 85 36 34 5 -34 -14 -35 -47 -75 -106 -116 -170 -230 -224 -184 -149 -88 -37 -31 -9 9 21 75 139 173 196 229 258 224
25 -10 -5 25 51 53 32 22 -2 62 35 103 137 207 281 321 268 221 211 149 86 55 48 15 -21 -28 -13 -31 -49 -69 -71 -117 -138 -132 -99 -99 -82 -49 -28 12 43 74 131 158 192 222 231 236 267
16 65 53 67 80 -55 19 19 -88 15 88 117 84 143 164 285 267 259 201 188 136 84 60 46 41 -2 28 15 -24 -29 -33 -56 -80 -84 -52 -62 -63 -69 -23 22 102 130 146 183 214 214 231 293 346
65 127 99 65 66 -28 12 4 2 -17 43 171 185 127 52 221 284 277 214 217 195 211 168 125 92 48 73 88 40 17 -4 -21 -22 -20 -32 -52 -41 -18 16 92 147 200 191 210 246 205 288 300 367
113 149 131 85 45 -11 55 -11 -29 -3 -27 54 128 169 127 201 277 363 363 321 278 244 273 237 183 110 108 133 92 34 -4 -29 -22 -5 -1 17 21 55 100 148 212 271 194 259 182 275 320 336 337
89 171 127 145 94 72 42 32 -27 -19 -44 12 26 149 181 245 279 303 286 363 373 364 293 320 279 195 148 167 139 104 51 14 8 33 104 125 75 89 173 174 206 283 256 226 291 339 327 331 352
81 111 165 212 96 54 71 -12 -67 10 -61 -35 26 65 125 245 254 281 320 315 321 379 400 324 299 295 250 233 203 156 113 58 88 103 102 141 126 109 146 149 169 237 250 329 321 309 311 333 313
151 158 174 162 173 81 50 -1 15 6 -18 -24 -35 -4 84 148 202 271 295 305 315 321 377 393 351 296 309 220 219 180 123 94 172 239 195 37 141 116 145 183 200 257 266 277 320 315 324 332 365
46 105 161 199 189 164 134 43 79 18 35 79 122 137 65 95 111 180 233 267 315 294 291 346 370 364 338 345 330 240 186 206 227 201 352 282 84 40 112 114 130 195 230 289 311 335 333 365 344

GFSSGP_con_3kmhel_063.txt.gz
Helicity
41 21 24 5 19 8 60 -3 41 82 36 15 29 67 58 43 53 11 58 32 42 91 170 281 412 419 441 121 124 145 152 130 154 180 172 167 156 150 149 165 174 160 131 99 77 62 60 61 65
22 17 -3 -44 73 168 104 21 54 10 2 74 131 48 87 67 42 75 39 54 106 127 119 199 258 314 361 424 65 101 142 147 132 139 118 120 133 152 166 179 162 138 110 89 59 37 14 5 38
21 -0 -9 -3 93 159 132 86 34 11 34 60 108 118 117 72 71 58 51 79 146 114 120 97 204 273 248 219 91 53 126 133 130 117 104 114 135 163 173 152 135 119 103 81 60 39 29 60 62
39 -1 -1 79 106 74 133 103 27 21 31 59 105 135 128 81 59 50 75 79 100 112 165 115 149 227 257 172 87 177 184 121 109 103 107 110 134 158 160 149 129 124 104 82 56 34 42 59 57
22 18 56 71 86 61 85 33 55 36 47 39 74 119 143 51 19 -5 -15 59 125 85 50 72 95 95 162 118 124 158 144 121 108 106 107 112 148 144 153 142 134 121 113 95 65 43 52 38 28
83 45 50 82 104 104 67 14 68 62 21 18 60 120 66 82 30 -0 23 28 82 52 29 101 109 60 136 221 387 179 172 87 93 99 96 126 136 154 130 127 118 120 123 102 87 107 69 49 44
108 75 32 68 105 81 15 82 95 64 38 95 75 67 57 75 37 32 -17 82 100 87 117 165 64 164 238 205 223 155 151 126 64 95 101 127 155 121 122 110 106 115 132 123 107 94 65 48 45
86 58 36 27 94 56 27 80 117 121 140 153 100 109 40 51 82 76 87 75 34 27 103 178 171 216 314 252 194 269 276 99 47 107 127 155 134 120 109 105 104 107 134 136 110 90 50 45 33
39 44 54 70 53 40 34 86 133 156 141 157 149 100 67 58 87 102 86 103 71 77 115 162 237 377 398 346 321 188 72 -34 56 91 144 145 154 122 102 88 87 84 131 156 134 125 74 52 21
95 73 32 15 102 89 81 109 168 159 162 140 198 142 74 94 140 76 85 74 125 124 162 257 268 324 271 299 272 110 129 78 55 91 170 170 114 93 97 74 79 90 112 138 137 115 83 29 16
55 37 25 40 58 125 121 133 162 149 139 137 183 89 48 142 98 39 73 94 110 131 162 286 331 289 192 168 196 119 68 48 39 15 116 101 117 129 109 101 83 61 78 69 96 84 54 34 28
96 8 14 -19 -7 75 176 148 135 140 89 118 115 91 63 91 49 32 63 88 105 146 273 325 369 268 202 239 173 113 12 33 57 80 111 121 125 135 104 85 38 71 27 73 46 61 52 52 36
114 38 -12 -21 -29 51 212 115 108 124 94 187 137 63 53 32 19 9 19 67 120 222 227 267 303 323 291 271 178 117 93 128 120 141 143 114 135 98 78 48 30 22 45 44 38 34 46 38 49
37 42 -35 -61 -47 48 89 41 156 169 147 143 127 39 46 27 22 25 31 55 141 237 189 385 483 351 183 239 137 200 226 197 157 145 124 83 87 111 47 33 42 13 35 23 19 28 23 17 40
24 -33 -65 -20 -42 -8 60 47 148 161 171 91 97 41 33 38 56 20 38 79 117 111 53 168 250 218 247 181 186 280 201 124 149 148 149 98 71 111 89 28 1 17 40 63 35 44 47 40 42
37 -8 88 -27 -1 -10 43 75 98 198 211 135 48 44 32 28 40 21 47 70 109 105 107 145 192 309 252 309 430 344 101 135 237 262 131 116 113 165 102 105 -0 49 63 51 51 52 42 22 28
74 -1 59 -17 13 -11 92 41 36 198 184 150 65 65 57 18 47 46 60 88 99 128 137 94 182 161 283 257 255 306 337 292 261 171 141 75 82 89 196 98 27 64 74 59 62 56 63 56 36
77 63 79 103 -8 14 71 24 42 157 151 157 95 90 61 41 46 42 71 97 115 148 124 100 102 204 198 281 315 255 372 433 247 215 260 150 117 87 115 64 74 73 73 49 58 73 89 77 84
99 62 33 17 47 66 108 37 83 127 81 121 172 96 68 24 28 65 75 112 120 133 129 140 79 117 181 198 143 256 314 349 284 302 298 118 115 39 28 69 82 57 64 29 5 98 97 102 131
65 57 -18 -13 40 80 20 26 37 149 116 146 193 130 88 40 67 100 108 116 125 143 102 101 99 103 112 78 62 154 73 194 224 312 148 187 89 84 62 54 79 44 28 46 91 154 148 133 169
65 94 16 27 19 72 93 7 11 52 52 86 142 140 110 97 82 123 145 126 110 122 93 60 58 71 59 19 -15 -28 -2 24 53 53 95 101 -5 -7 -8 4 -3 34 75 100 134 147 170 181 188
85 85 45 4 128 -24 89 92 17 14 53 100 140 188 211 117 95 99 139 108 121 89 72 32 33 42 18 1 -21 -13 -25 -32 -82 -113 -106 -111 -122 -77 -9 35 25 63 115 124 135 152 181 224 196
78 51 84 60 112 109 140 139 71 30 -9 13 75 189 197 216 180 176 201 151 115 85 78 17 10 19 14 -4 -19 -22 -50 -65 -53 -44 -70 -153 -231 -108 -23 30 3 -2 136 123 149 180 185 212 246
55 112 101 106 152 34 58 98 42 123 77 -21 63 192 197 190 169 134 118 103 93 100 89 47 17 -15 -2 -0 -4 4 -19 -77 -91 -126 -179 -184 -211 -196 -92 -24 -35 25 81 155 158 164 191 232 253
163 167 149 116 159 18 17 34 54 57 39 4 48 215 245 211 179 141 169 183 146 154 125 90 78 32 -5 1 2 7 -4 -34 -60 -87 -141 -165 -170 -139 -94 -47 -3 64 101 149 189 199 200 197 187
166 187 211 119 98 44 70 20 5 25 23 24 -5 93 227 237 216 179 198 218 215 211 204 175 148 101 95 65 29 11 -8 -38 -68 -75 -68 -100 -86 -87 -20 30 67 84 133 186 273 225 85 114 194
86 188 142 158 134 76 49 69 39 -7 20 27 -22 -19 83 202 193 211 219 241 249 274 291 307 235 163 153 143 99 49 12 -10 -18 -59 -82 -87 -78 -30 10 64 77 97 151 189 187 181 124 183 240
99 138 191 222 151 74 44 52 15 37 76 54 19 -13 67 155 144 169 224 267 284 324 365 342 321 265 241 188 172 139 109 49 9 -8 -45 -41 -25 41 62 43 103 151 177 211 254 190 308 300 285
162 137 166 136 192 108 24 21 30 54 39 100 40 35 45 125 181 215 265 310 334 300 306 335 349 349 274 204 199 187 138 97 35 2 48 69 133 155 139 55 54 110 148 165 254 300 295 297 314
90 141 137 181 181 165 117 16 93 33 53 80 32 66 60 66 137 237 289 341 376 370 345 364 367 401 393 341 289 217 205 159 117 137 118 170 180 274 131 -20 46 131 218 319 277 266 266 344 328

GFSSGP_con_3kmhel_066.txt.gz
Helicity
38 48 16 10 138 163 246 120 70 83 6 -3 11 56 60 69 63 34 67 100 105 186 297 269 338 380 415 487 510 385 153 271 255 234 205 215 188 179 175 173 169 147 115 91 77 69 63 65 77
39 32 9 23 207 242 154 70 52 38 33 29 44 65 94 114 76 55 77 58 60 168 260 205 246 289 307 282 262 327 219 185 202 193 215 199 166 167 162 168 170 135 95 66 70 66 68 65 64
40 16 31 94 185 182 131 103 86 23 40 51 70 100 111 129 98 63 81 31 65 160 169 247 285 257 283 183 329 369 289 141 171 207 191 159 140 142 149 172 160 133 96 62 44 61 58 57 61
41 22 24 144 156 82 88 78 74 11 53 110 123 102 138 120 101 107 71 65 108 190 205 164 154 135 122 180 257 235 178 87 141 169 133 124 119 118 162 177 154 116 78 51 37 44 53 62 69
49 49 77 141 165 72 78 55 35 38 53 74 124 72 112 108 81 84 77 69 64 123 187 160 88 143 192 194 221 372 131 126 140 197 138 129 124 121 158 175 140 99 66 47 52 49 56 50 41
94 63 96 156 173 103 45 23 50 68 84 97 122 126 97 82 65 75 72 58 64 88 105 189 173 129 124 202 236 191 104 82 117 218 152 155 134 131 163 162 119 93 76 47 51 52 43 34 27
103 80 65 169 236 145 53 31 64 87 121 134 164 123 117 97 58 46 69 99 76 53 52 54 130 114 99 133 191 143 95 42 73 144 182 173 155 160 157 146 114 95 73 64 60 53 33 28 14
104 97 92 155 195 137 23 45 84 123 144 187 191 140 118 124 98 56 100 124 69 73 20 126 176 195 276 365 420 161 25 67 192 145 203 215 164 128 137 125 116 109 88 64 53 40 29 28 1
99 111 101 150 135 67 86 56 94 157 166 180 197 203 182 120 115 95 133 94 52 46 73 114 317 156 259 81 63 63 98 37 77 165 188 197 178 145 157 136 127 119 94 50 43 39 30 33 22
141 107 90 91 28 58 48 73 96 142 169 93 140 204 143 97 158 136 104 80 54 58 86 179 169 247 180 145 289 168 191 71 64 115 149 201 153 140 143 148 142 123 105 70 46 51 38 39 13
148 59 30 43 21 23 39 81 123 178 121 148 135 172 127 120 140 95 78 52 55 106 162 234 306 335 306 207 141 161 171 133 153 102 157 148 156 164 165 160 159 133 126 91 69 45 14 12 20
158 32 47 -40 -20 27 67 82 99 195 217 152 -49 184 101 94 98 61 29 60 73 131 127 218 301 320 185 195 120 100 139 79 101 88 135 130 132 180 101 153 131 92 84 70 47 13 22 29 28
175 78 49 -9 -54 -7 60 50 60 153 146 180 176 187 85 74 101 56 53 97 90 131 209 233 312 277 167 142 138 141 75 92 107 111 146 79 160 77 84 124 99 86 52 45 57 38 23 37 43
140 137 21 -5 6 42 66 -17 79 125 204 202 161 118 99 61 82 64 60 78 99 130 228 190 226 338 228 157 182 138 54 83 70 62 -39 49 114 60 70 90 83 71 64 28 37 42 41 38 45
128 69 20 21 44 17 38 -39 121 200 199 174 149 69 51 55 43 66 59 67 106 112 147 87 282 188 294 220 215 162 104 120 72 -8 55 74 96 67 80 104 78 57 54 64 80 52 58 48 35
119 105 93 65 16 8 26 -37 78 142 232 179 151 44 13 26 29 50 62 59 96 124 121 146 164 275 180 195 167 212 85 53 105 44 149 111 93 60 60 73 49 53 49 62 73 53 54 33 31
137 89 99 68 27 34 9 45 23 55 124 133 111 58 23 17 43 45 51 56 89 110 164 139 156 155 206 158 235 188 189 86 75 35 122 104 87 77 82 64 45 76 70 72 69 47 61 41 34
146 107 92 108 75 48 64 88 77 70 107 111 115 92 62 43 41 73 81 60 94 121 135 145 113 175 171 232 270 244 186 154 -36 8 136 107 89 64 84 83 55 165 61 56 79 71 67 57 45
121 131 101 111 56 81 15 13 33 48 91 120 121 128 80 82 78 95 94 109 89 108 116 135 118 72 190 198 283 276 208 106 113 135 256 142 89 117 138 199 183 53 46 66 75 86 75 83 73
137 104 84 21 83 83 96 -18 -24 31 73 161 115 115 90 111 131 111 88 117 115 128 130 96 92 87 71 71 183 211 118 280 333 309 228 143 93 247 126 105 58 64 65 84 85 102 97 100 120
131 129 113 88 108 103 135 76 -26 -34 48 80 89 107 77 73 149 142 110 98 92 128 119 121 83 81 96 60 14 162 209 322 339 328 154 114 226 159 103 82 88 61 86 90 92 82 122 122 131
113 135 91 95 152 126 119 -50 71 -17 -16 14 74 102 145 102 116 159 139 131 107 108 127 117 82 78 78 90 69 55 51 41 121 150 140 160 227 173 84 51 55 51 56 9 57 79 122 174 158
87 98 83 104 154 146 113 132 68 83 16 -5 41 112 118 167 154 175 179 153 109 109 124 114 91 65 65 75 37 24 28 3 -32 -13 33 43 -13 -44 -40 -0 -5 -5 20 34 48 116 159 175 202
75 88 107 153 170 98 121 156 41 97 118 71 25 50 104 182 152 127 110 137 134 125 129 126 124 91 71 46 31 12 25 -24 -40 -28 -19 -42 -75 -90 -102 -31 8 26 43 85 86 100 153 179 197
157 165 226 212 188 136 91 148 99 59 96 85 42 30 63 152 189 163 175 172 168 182 182 157 160 153 123 77 25 -3 -16 -15 -21 -45 -62 -88 -80 -114 -214 -120 -37 40 57 82 113 147 166 196 172
159 207 260 193 175 105 170 104 63 38 5 -7 12 26 -30 69 155 180 160 152 168 201 216 207 179 165 180 146 92 22 7 -11 -22 -42 -91 -125 -138 -137 -72 -95 -48 14 89 93 140 177 195 159 81
154 183 153 137 97 76 52 151 83 79 11 27 27 27 -3 106 120 150 151 162 127 158 226 263 242 171 168 162 115 76 23 -3 -26 -38 -70 -128 -122 -110 -104 -98 -77 6 68 85 109 143 192 160 90
153 88 199 248 112 102 112 67 81 41 25 27 39 14 25 45 89 98 109 139 158 160 191 231 256 242 212 209 166 131 104 68 22 -13 -34 -50 -53 -58 -65 -76 -26 27 45 67 113 154 161 161 150
154 148 155 141 188 117 72 55 52 11 38 75 48 75 29 52 87 119 110 130 164 178 196 260 286 316 283 261 260 235 215 181 141 89 45 34 32 20 4 -9 -46 -10 30 67 105 155 202 214 255
104 141 132 153 134 137 100 78 136 75 -18 3 50 93 26 35 55 95 119 151 153 210 254 320 346 376 398 424 346 299 339 308 256 186 147 112 68 84 90 133 79 84 157 72 120 152 244 180 224

GFSSGP_con_3kmhel_069.txt.gz
Helicity
42 43 25 31 107 218 231 129 63 56 35 37 17 43 59 58 50 56 64 109 113 144 155 164 256 258 294 297 232 229 261 250 256 242 194 191 201 201 180 162 148 126 108 94 85 74 62 64 75
47 34 29 70 149 185 152 73 50 32 29 22 28 53 66 82 118 89 118 64 128 179 182 196 224 188 234 266 244 236 255 265 271 263 207 189 195 192 184 151 132 135 113 87 78 64 59 65 84
48 21 70 114 161 164 123 79 82 46 14 43 38 88 83 99 114 117 128 76 55 194 126 171 189 117 206 222 324 281 246 279 257 232 178 178 174 187 170 131 112 101 85 92 77 74 49 43 68
52 41 59 130 162 133 72 61 47 22 34 68 79 43 95 91 128 121 97 84 70 247 135 175 273 128 252 175 246 245 289 258 312 217 182 162 188 169 143 107 75 57 73 89 84 48 46 48 75
65 61 101 143 173 108 64 33 14 44 47 79 127 87 104 115 152 90 77 83 77 179 146 160 231 249 222 166 146 228 282 267 249 193 142 213 194 151 130 103 95 96 78 66 56 49 62 65 65
96 78 92 123 162 127 87 29 67 53 51 93 114 128 122 137 125 67 61 62 59 157 154 115 139 198 222 178 150 237 227 186 161 157 193 223 190 155 137 117 97 79 68 79 61 64 55 44 39
87 102 88 148 176 154 137 43 62 45 57 73 156 144 135 152 119 72 81 95 76 123 125 33 52 115 154 132 181 211 212 211 252 193 141 225 199 165 140 107 93 62 73 64 49 49 34 30 34
102 119 104 130 183 157 115 68 54 84 46 156 163 121 138 153 104 103 131 156 132 121 93 81 37 108 120 124 155 208 247 251 203 183 200 296 229 193 140 105 82 72 52 54 45 33 24 23 12
102 126 91 121 161 122 88 77 75 73 91 137 175 178 149 126 89 107 149 147 99 60 63 39 77 135 180 377 306 446 411 322 150 86 172 284 205 156 131 92 78 65 68 46 37 30 25 28 26
130 117 82 90 116 81 61 70 68 68 83 127 151 179 208 131 108 147 142 86 35 48 37 98 178 238 228 405 385 228 190 142 215 96 137 192 183 170 163 99 79 64 58 46 36 36 35 17 5
129 89 97 133 62 -2 73 84 67 62 62 127 154 164 182 118 108 119 100 31 32 61 76 131 150 128 123 82 117 107 108 145 124 54 143 161 236 190 170 111 93 60 45 28 35 34 6 16 -5
121 67 80 68 71 89 76 85 69 81 93 150 154 153 170 128 76 78 67 46 31 68 91 96 185 208 167 135 130 140 213 172 64 38 119 208 219 199 169 120 69 86 10 23 6 -3 19 8 37
112 68 93 59 56 25 76 51 2 90 103 176 211 192 165 125 87 65 46 49 49 100 138 228 142 218 170 201 148 142 142 140 233 186 109 181 177 194 107 103 115 78 29 17 11 16 -6 36 28
87 70 72 39 2 48 66 41 -8 13 118 198 215 196 175 118 80 69 49 45 25 80 166 240 155 249 229 174 177 148 140 8 61 158 118 137 167 115 93 124 106 79 49 25 18 2 14 22 19
96 69 46 33 63 95 83 66 12 47 119 158 152 162 165 107 77 46 52 42 34 59 123 192 108 184 174 266 147 77 118 41 118 172 190 204 165 117 95 95 73 60 42 57 36 29 27 44 22
100 103 65 98 115 103 74 10 3 -2 69 85 109 109 128 100 67 51 40 50 24 42 77 147 122 182 175 149 133 127 112 89 100 147 235 184 166 125 109 56 50 54 66 65 31 33 55 24 11
129 74 72 82 88 159 156 12 24 49 42 41 57 100 94 82 81 71 60 57 40 50 66 159 121 183 207 217 188 191 149 126 112 194 133 87 77 79 89 51 49 32 76 48 40 64 57 24 27
131 133 102 71 114 162 160 32 54 55 50 58 41 80 90 68 83 76 63 61 61 55 64 120 95 55 117 133 182 174 93 94 45 95 3 68 40 55 93 81 54 54 80 28 31 72 47 42 35
99 105 81 63 86 97 130 131 23 65 36 61 71 64 76 54 76 91 88 71 55 62 89 105 121 25 97 121 128 223 172 163 48 73 36 4 11 36 92 97 53 102 55 61 33 72 48 71 65
122 114 84 13 40 74 51 93 -20 71 14 16 41 89 85 101 102 102 101 97 56 62 83 92 102 78 40 53 101 143 132 129 137 103 43 15 79 58 81 102 78 109 64 104 101 73 91 84 72
99 13 69 41 80 58 49 79 118 87 56 -16 28 25 71 121 131 109 107 103 84 51 65 88 108 116 89 152 176 196 239 216 195 166 117 112 166 65 76 107 130 137 110 113 54 75 56 73 79
83 83 83 57 91 85 146 20 81 -16 29 -11 -23 46 94 120 111 137 110 102 103 57 45 88 96 120 85 146 140 133 133 202 160 172 222 223 228 172 158 135 128 98 36 18 47 61 62 76 57
67 56 57 92 101 90 104 64 40 40 30 0 -34 -12 60 123 130 159 145 112 90 79 44 60 77 111 106 115 137 149 127 84 111 142 358 261 215 190 146 172 178 20 46 64 53 63 72 62 83
34 122 147 141 138 122 117 149 15 57 44 40 24 10 -13 61 121 96 120 112 121 89 72 60 60 55 82 87 80 86 87 78 16 95 139 115 77 -18 -79 183 25 83 75 70 54 39 51 61 90
145 140 122 147 182 159 121 128 93 37 67 64 16 37 -23 -47 51 106 132 163 158 145 120 92 88 76 79 65 84 63 44 20 44 98 107 63 47 31 46 56 56 69 65 67 51 42 56 82 104
103 116 185 113 123 110 158 99 55 5 -2 -35 -29 33 75 9 35 92 122 146 158 168 147 130 117 99 96 91 69 46 23 -16 -40 -22 2 33 78 44 70 -43 20 27 25 -2 -5 44 62 69 111
153 168 106 153 163 134 132 132 63 26 44 22 10 30 68 39 23 54 79 93 121 130 190 216 169 128 117 102 86 72 31 -1 -34 -53 -41 -50 -36 -26 1 -23 -51 -49 -98 -89 -55 20 53 65 76
111 114 187 217 154 123 125 112 77 56 11 14 37 18 31 31 32 41 71 70 73 91 150 184 190 196 165 160 130 121 114 79 35 -10 -28 -42 -87 -106 -127 -137 -71 -40 -24 -29 -15 21 44 41 77
136 142 200 166 180 126 76 91 56 15 -27 53 69 54 40 48 17 37 57 50 34 76 113 185 201 209 214 217 204 184 183 174 148 98 49 45 44 17 1 -20 -29 -39 -20 9 23 9 18 38 80
145 199 124 162 171 184 159 104 119 53 51 21 8 65 58 46 24 14 30 42 50 65 105 159 192 240 298 329 304 213 191 220 230 182 176 160 166 166 153 129 96 82 75 126 114 70 61 103 100

GFSSGP_con_3kmhel_072.txt.gz
Helicity
28 22 16 20 37 39 113 109 71 55 68 23 11 -0 7 -5 18 41 68 61 84 96 145 147 116 114 135 193 214 251 269 216 237 205 177 154 139 123 130 150 111 87 92 102 106 98 86 82 89
30 29 20 43 25 43 120 97 69 66 43 17 14 7 7 13 73 71 69 73 98 87 132 174 154 97 142 150 203 207 225 241 231 212 207 171 170 149 165 160 130 113 99 108 96 83 71 69 99
33 5 24 49 60 46 65 107 91 76 26 12 18 23 29 48 75 97 102 85 109 73 84 116 124 133 83 92 155 165 195 245 228 241 247 198 168 156 186 179 156 120 102 96 75 61 55 74 108
46 39 47 49 79 110 78 103 75 62 46 37 28 19 75 62 87 122 97 91 93 62 66 112 185 152 216 46 104 191 234 246 254 254 255 181 172 149 175 155 142 118 95 77 66 54 58 83 102
47 45 50 40 89 123 85 56 52 80 80 54 43 20 28 86 113 136 116 85 78 107 112 97 199 103 115 115 33 151 219 290 277 246 219 172 134 132 150 103 79 77 99 79 64 47 58 63 70
77 61 56 54 118 119 97 87 75 63 43 49 33 22 49 119 100 97 78 75 83 101 122 77 118 98 74 90 123 262 220 287 267 212 197 163 74 132 115 87 66 100 128 79 64 46 45 53 65
38 66 34 31 90 96 112 108 74 45 27 24 69 47 104 133 125 90 74 83 95 139 134 98 84 85 121 67 71 88 224 270 238 245 195 158 165 185 154 132 98 110 117 66 62 43 41 53 43
66 80 59 45 77 63 150 97 69 33 30 73 72 37 40 219 140 107 103 145 116 125 121 108 91 83 117 142 147 137 119 221 260 243 186 253 204 239 205 171 144 115 100 68 49 41 42 33 34
89 67 42 39 67 63 99 81 87 44 32 55 91 72 157 151 135 88 139 161 152 90 79 41 42 64 110 157 172 159 161 218 254 185 167 264 181 138 113 131 111 103 80 70 63 52 61 54 54
90 53 25 52 53 79 79 77 80 52 47 45 66 110 140 108 122 66 123 98 64 71 62 55 9 -1 63 251 200 269 258 212 278 232 299 152 112 122 109 123 97 84 74 80 64 70 54 13 29
82 38 30 63 49 55 39 59 95 46 4 23 45 100 141 108 108 48 82 60 29 29 65 87 168 168 245 262 515 330 422 547 396 284 152 138 119 172 140 127 93 71 60 57 45 46 7 21 14
51 34 12 29 53 16 35 77 72 42 13 70 77 114 152 120 101 31 48 43 35 49 78 92 115 182 171 83 336 205 365 589 652 336 140 207 137 168 156 111 75 59 35 56 32 19 44 25 13
40 13 36 10 29 33 19 52 2 27 29 76 98 117 132 133 92 38 22 49 33 58 84 92 126 118 85 66 -46 -12 100 169 69 114 136 118 96 138 122 148 87 59 34 18 26 39 33 31 34
78 32 21 17 26 29 27 16 112 60 2 81 93 83 111 120 83 40 38 49 47 64 116 140 188 87 55 73 101 160 180 240 119 163 106 73 98 156 137 149 92 63 21 26 28 22 15 36 28
65 29 22 25 16 11 15 79 107 12 26 39 55 63 83 104 80 38 33 61 66 64 106 117 165 139 131 174 172 151 170 89 38 88 152 73 87 108 157 103 85 52 37 36 29 28 16 40 37
37 44 16 42 38 92 63 -13 31 48 37 36 42 48 61 72 69 48 31 39 61 93 84 102 174 145 219 178 201 219 194 181 137 132 110 42 60 110 85 81 77 72 78 51 44 18 18 40 47
53 30 23 20 49 95 80 -5 66 51 51 59 55 42 56 62 71 58 37 32 57 77 95 88 141 83 120 155 237 198 191 117 124 143 133 148 102 123 85 87 84 91 67 42 33 30 -0 40 48
20 15 20 18 59 62 89 39 10 65 49 59 54 50 56 72 67 78 38 48 55 73 74 94 133 84 77 119 153 131 130 63 121 140 90 166 146 121 38 50 80 87 55 34 19 25 18 36 60
47 38 22 35 103 52 5 -11 -4 5 49 54 69 69 45 71 96 93 64 60 55 61 68 102 134 92 133 93 130 123 76 81 120 97 176 120 174 -24 -19 -19 41 61 35 6 44 41 31 59 52
31 24 20 39 66 31 9 -23 -15 4 46 53 61 39 33 67 128 114 84 61 64 63 59 84 110 85 49 105 89 105 51 145 125 187 151 101 -31 -69 -0 83 63 32 63 63 57 69 71 76 76
25 22 20 29 68 21 -0 -7 -6 53 68 68 38 7 23 54 100 121 98 66 63 57 45 53 91 76 87 77 53 167 241 207 231 200 146 27 -7 -9 -23 113 96 106 87 151 64 82 84 45 55
30 24 31 44 69 48 89 -1 42 70 10 53 13 20 22 33 78 106 112 78 57 64 37 27 69 72 74 120 139 105 98 198 126 135 176 150 79 110 41 133 116 113 85 82 52 99 98 -1 20
36 60 42 21 46 57 -2 -3 1 61 -9 6 18 27 11 22 53 99 108 81 64 65 61 26 35 72 86 101 113 103 56 18 163 162 126 65 215 209 134 89 60 65 142 118 98 127 117 -10 51
102 72 53 62 79 73 -6 91 41 36 -6 -8 18 31 35 6 9 51 73 95 93 74 64 29 35 44 78 101 116 113 95 107 99 117 156 174 150 257 322 189 82 102 146 83 88 110 -12 35 42
71 80 85 90 129 81 89 99 22 60 8 6 40 46 50 25 -6 22 86 120 118 115 84 40 40 49 70 98 121 108 82 120 130 168 69 116 135 190 280 150 155 176 178 91 112 11 8 60 50
24 59 149 109 84 80 110 75 66 35 23 10 -2 5 66 44 12 19 66 94 110 88 98 75 55 55 69 59 77 97 82 83 62 87 72 82 164 167 159 54 69 34 20 11 -52 -53 42 48 28
27 78 86 100 111 140 81 88 84 34 5 -8 -14 21 23 26 30 18 60 91 70 89 83 84 79 68 83 76 60 72 78 79 92 105 58 58 75 84 83 89 45 10 26 5 1 -35 -18 8 15
69 46 114 133 148 104 109 81 108 72 23 2 21 24 17 20 10 34 61 77 92 60 47 44 53 82 89 82 84 74 80 93 80 77 108 110 79 77 98 106 85 52 34 6 -53 -77 -44 -1 55
66 103 117 135 102 125 123 106 70 15 29 32 42 51 69 63 18 24 42 59 72 84 65 42 47 66 99 96 105 104 93 84 94 122 128 125 109 129 150 139 113 80 40 15 -12 -12 -7 -19 54
49 35 42 109 94 79 100 111 40 76 107 49 16 30 63 72 73 31 17 54 75 72 88 78 59 65 85 107 118 97 107 105 105 105 104 136 135 114 128 104 89 79 95 133 111 82 93 105 83

GFSSGP_con_3kmhel_075.txt.gz
Helicity
18 13 2 2 6 37 -16 60 46 26 8 56 44 66 73 45 29 56 39 18 5 66 200 142 135 97 55 66 106 122 178 213 241 188 127 117 108 71 66 81 100 83 86 104 100 109 82 85 88
7 11 1 -5 29 8 38 93 49 37 55 66 64 37 16 28 68 50 80 75 30 56 148 123 145 136 90 57 133 127 159 195 194 180 149 136 112 86 92 96 109 105 88 103 102 87 77 90 110
-23 -13 -17 46 39 2 32 73 33 45 47 28 17 57 45 56 74 68 102 64 47 54 113 153 134 251 233 292 200 83 139 163 185 187 158 145 134 114 126 127 119 105 99 97 90 76 93 88 96
30 35 27 34 11 43 41 37 49 9 56 40 17 -8 66 90 48 90 68 57 66 60 100 171 225 251 157 44 -117 25 113 169 183 198 207 186 159 147 150 119 119 110 98 95 96 91 82 91 77
9 13 20 43 16 43 45 13 26 6 22 14 38 -10 27 112 84 93 60 62 61 73 88 119 171 96 164 143 77 21 58 182 210 205 196 206 195 189 160 114 123 120 118 106 88 87 65 93 67
43 27 11 14 16 91 46 24 4 13 12 30 41 19 33 157 91 130 77 55 44 60 87 149 122 85 78 79 136 11 -29 133 229 227 202 187 177 178 140 115 127 151 142 110 108 86 66 72 53
13 2 12 -22 10 43 47 74 16 9 9 -7 21 34 43 123 122 121 113 82 75 58 64 93 111 65 43 60 35 -5 0 100 217 220 238 191 159 111 105 110 134 153 127 107 92 85 55 73 43
16 9 -17 -23 22 21 80 92 15 24 -2 41 16 16 34 153 134 131 131 106 109 75 78 83 64 63 61 68 46 96 47 56 113 206 234 187 150 97 119 151 115 126 110 83 72 81 61 76 34
38 10 14 -13 20 12 72 57 63 53 8 26 26 26 86 122 96 99 118 121 123 87 65 57 58 51 70 93 129 77 23 49 105 162 238 150 176 96 87 123 128 130 99 79 94 94 76 78 58
31 34 -5 -13 51 21 17 81 14 21 11 50 69 82 108 76 71 77 115 90 77 32 41 59 43 25 81 156 163 144 142 108 103 226 254 262 54 57 168 150 147 127 121 107 105 82 68 31 50
35 17 -53 14 64 27 0 28 22 30 13 2 35 23 132 98 80 61 85 69 69 35 42 34 38 49 95 126 143 227 247 246 393 430 413 242 96 61 121 166 140 140 115 99 82 46 20 38 33
22 7 -8 -7 40 54 -16 -2 7 40 17 8 22 32 78 78 62 58 74 72 80 73 60 75 104 119 118 134 172 305 332 305 350 454 333 226 211 125 91 127 122 133 100 85 58 22 27 27 31
25 8 -6 15 15 44 15 -40 -8 24 -1 2 46 32 55 62 50 69 61 55 116 81 78 90 125 124 112 138 132 335 272 242 276 258 277 236 220 125 92 139 142 108 90 63 48 43 40 43 37
18 27 15 2 11 38 13 -43 2 13 30 6 42 28 53 51 45 60 65 55 90 72 105 100 99 197 65 64 33 56 253 440 542 275 213 76 233 110 90 111 103 97 74 61 31 50 49 39 47
37 60 19 23 10 11 27 -34 53 33 11 23 44 43 55 63 49 45 66 65 80 80 126 119 111 95 87 46 32 65 104 123 168 239 88 136 297 117 71 87 66 67 71 59 55 44 51 40 35
62 39 32 11 20 18 47 -21 -21 79 90 38 45 69 53 67 49 42 64 76 95 89 115 105 92 171 99 77 136 132 131 164 186 73 75 72 37 92 105 133 120 107 121 78 63 55 54 45 27
38 43 21 7 68 33 92 -19 16 98 69 38 69 81 65 61 58 51 64 73 81 102 109 121 117 165 148 120 232 176 137 107 72 168 166 213 164 87 123 136 118 132 138 89 59 61 47 38 24
20 34 23 14 19 73 35 12 -6 48 79 37 25 64 82 68 74 77 67 74 100 106 125 140 115 149 129 148 142 195 224 176 131 124 206 202 78 28 92 102 141 130 105 81 58 56 45 34 19
29 40 27 33 34 78 16 -11 5 14 7 56 35 41 66 76 59 101 92 99 113 127 101 134 132 135 71 73 149 149 177 164 99 57 71 61 2 14 55 30 104 74 78 81 100 80 59 48 22
31 32 27 28 44 65 20 7 4 14 19 -19 30 64 57 62 61 99 106 106 96 116 94 123 102 101 96 56 81 135 92 131 119 83 92 -13 64 38 103 113 79 134 104 106 95 70 76 46 28
47 29 27 45 28 27 21 18 -2 -17 27 18 -3 5 15 60 85 92 108 107 95 95 112 84 94 82 68 47 42 41 106 111 127 105 160 155 85 58 14 36 -11 112 112 98 58 69 51 66 47
53 31 42 60 68 42 4 18 20 16 31 22 44 22 27 40 59 82 91 107 96 92 94 87 79 79 67 82 112 153 115 224 138 140 158 268 225 201 100 35 28 79 124 111 93 83 91 83 110
58 58 72 26 69 49 45 18 18 -19 11 15 11 17 65 19 47 63 84 83 101 117 89 70 86 86 73 93 144 169 183 125 211 179 193 276 219 178 168 -103 54 83 122 139 127 83 130 98 139
76 55 70 72 61 55 24 17 8 4 41 4 16 23 32 65 43 56 67 66 131 127 107 63 94 55 83 103 131 127 172 161 210 219 167 247 240 234 121 17 58 107 149 130 107 69 68 136 119
9 75 108 95 101 76 50 39 -4 34 80 44 30 12 22 59 62 58 87 92 135 153 110 72 77 68 107 82 101 110 138 204 209 211 186 211 190 167 196 170 157 112 144 49 52 90 114 132 184
70 73 163 115 65 35 35 77 32 7 40 37 25 21 19 84 49 53 66 77 111 145 116 74 54 48 108 86 76 84 95 111 161 185 212 172 177 167 279 201 211 214 236 27 -31 93 57 43 14
130 85 71 149 93 189 89 19 43 100 18 19 14 10 14 0 44 64 59 85 98 119 125 99 56 44 60 83 76 64 64 99 111 111 149 133 137 159 215 277 260 143 262 74 75 67 120 85 43
78 49 95 102 204 245 199 76 36 22 21 28 -13 10 9 -1 43 35 49 75 91 112 105 90 58 53 55 60 61 66 61 59 77 69 90 120 138 166 224 223 219 207 227 88 87 35 22 16 35
89 122 125 59 86 185 150 119 67 47 40 64 64 47 26 55 29 29 26 51 83 102 117 96 64 61 71 85 74 65 84 68 67 90 93 115 124 149 184 219 229 233 210 96 27 21 25 28 52
33 56 53 218 114 69 117 121 48 55 123 101 116 65 15 27 12 34 27 28 70 99 106 107 75 68 87 116 122 99 86 98 98 88 110 125 130 145 148 203 196 192 170 133 76 91 127 105 79

GFSSGP_con_3kmhel_078.txt.gz
Helicity
25 6 26 21 19 32 -35 13 143 161 60 92 84 86 74 26 23 112 110 9 17 87 101 123 212 188 129 92 67 67 82 109 125 136 137 137 105 94 79 75 65 90 101 82 87 92 91 105 113
13 15 17 9 31 -30 10 68 71 59 98 112 63 16 -16 35 86 79 98 101 70 55 112 88 189 248 176 117 122 46 68 98 116 126 131 138 100 80 63 66 81 78 99 82 92 84 79 81 80
-29 -33 14 36 18 9 -28 68 68 60 95 58 11 -18 26 110 156 99 107 63 69 79 85 155 179 304 309 357 282 237 190 95 128 123 126 126 98 82 90 99 77 72 90 105 92 85 80 69 47
25 17 36 53 3 -68 -4 77 60 41 21 87 7 13 71 155 106 129 75 61 66 64 62 170 159 190 209 224 209 83 50 118 98 91 123 114 112 107 109 98 63 82 98 118 96 68 83 60 31
21 21 31 18 8 0 59 106 67 26 16 30 60 42 19 137 135 123 111 102 67 99 88 124 125 117 163 130 158 146 117 100 64 99 151 116 134 146 115 102 78 102 126 109 71 76 97 57 30
51 24 21 2 -14 2 87 105 120 6 20 22 44 66 48 164 93 146 113 86 98 97 100 124 107 90 117 117 110 113 129 170 105 99 133 163 149 153 128 125 118 129 135 102 98 87 90 68 63
0 8 22 -16 -24 -31 31 129 155 45 14 22 63 23 38 143 113 141 118 138 125 89 80 89 85 65 87 79 171 131 98 57 16 156 158 190 167 165 144 175 182 144 121 112 126 78 88 91 64
16 8 -3 -26 -19 -37 45 137 110 76 22 76 50 75 10 120 142 136 157 159 84 133 73 62 72 71 70 94 133 175 30 92 102 131 178 194 186 173 166 187 191 150 123 108 119 81 103 86 64
-12 31 10 -23 -39 -8 91 102 66 73 57 30 22 63 101 157 129 102 160 118 62 98 67 33 48 69 40 90 95 119 141 22 58 85 176 198 202 194 172 138 175 146 115 110 93 97 92 88 55
22 28 4 -37 -55 50 53 26 106 68 37 39 65 86 174 139 83 80 148 137 107 79 77 28 17 50 78 134 154 97 71 93 33 84 125 184 232 177 187 121 162 155 121 124 94 93 89 92 58
16 38 -23 -72 -3 55 71 -3 80 20 43 14 32 78 72 82 93 89 80 197 118 78 64 55 31 27 61 110 162 161 119 83 85 107 347 278 309 238 124 139 163 148 133 126 105 98 86 67 73
9 11 11 -10 12 8 48 10 15 19 45 42 20 116 91 89 79 84 78 144 148 114 69 71 131 131 135 164 145 149 157 216 240 402 363 368 257 58 148 143 127 130 137 99 85 60 60 42 67
-7 4 15 11 7 24 19 42 9 26 40 45 -1 114 99 38 59 99 108 106 243 136 125 108 145 157 161 156 142 144 250 346 366 417 256 235 243 158 154 113 108 114 134 92 53 55 81 58 67
-25 2 18 9 24 20 22 38 26 19 13 17 29 104 68 49 59 117 167 103 210 168 114 145 145 149 159 155 85 170 209 192 355 421 336 291 175 251 190 79 89 119 93 63 86 89 97 82 61
19 53 48 17 26 21 10 -11 21 3 39 32 26 66 79 71 86 110 158 114 191 150 148 132 168 151 151 134 82 65 193 176 381 275 209 260 215 338 243 215 81 81 67 74 100 122 114 82 46
35 47 58 13 5 7 44 -8 -23 -30 32 47 64 8 126 69 94 120 125 153 202 145 123 136 156 150 151 132 64 47 76 137 230 279 285 311 266 165 127 111 40 44 70 86 133 115 93 69 63
134 60 14 19 -11 -10 49 41 -46 0 81 85 34 47 83 60 93 92 128 143 142 187 122 123 159 175 193 133 85 90 79 151 197 192 192 175 220 160 181 42 -16 28 68 96 137 97 94 94 86
90 45 33 17 7 24 64 64 11 2 48 98 8 68 100 110 81 90 109 138 132 210 167 138 173 199 210 105 81 81 95 124 110 80 86 66 166 229 322 7 40 158 186 192 138 112 138 103 84
67 104 101 23 -7 0 93 57 16 21 9 82 93 35 82 133 125 146 122 182 177 244 209 185 176 204 201 146 122 108 77 91 121 126 56 40 126 181 173 57 85 169 186 221 159 121 118 107 65
50 77 94 41 45 45 67 56 22 12 21 22 21 112 82 113 127 256 182 180 191 213 198 178 152 181 158 118 100 118 117 90 120 173 85 144 179 150 81 30 99 146 153 160 135 133 133 113 80
100 79 97 60 27 36 20 41 38 22 27 27 72 -31 32 127 175 268 234 174 186 204 165 181 135 174 138 98 94 116 150 132 123 123 143 89 105 55 -3 -12 3 -24 -15 136 133 157 99 117 99
204 64 48 32 46 106 13 53 18 -3 34 117 53 62 -9 31 142 216 277 192 198 141 182 117 119 118 140 125 138 147 208 194 149 153 101 76 62 90 51 61 71 32 49 137 167 121 92 112 118
206 90 68 97 35 100 75 88 42 29 52 11 68 78 92 82 42 163 278 229 170 156 212 107 158 96 125 105 121 158 138 128 143 139 115 81 102 76 69 67 86 60 140 131 148 127 93 92 139
67 72 31 149 49 105 59 88 28 38 -4 13 59 52 43 115 91 112 202 204 154 208 196 154 137 99 115 130 137 140 168 202 191 161 149 148 153 195 170 218 211 149 113 144 133 100 138 137 120
136 73 129 127 156 119 65 73 30 18 18 53 93 48 31 74 126 133 244 197 168 247 240 161 185 94 115 136 129 141 142 195 214 214 171 121 136 186 229 297 297 216 130 176 190 179 164 161 175
207 72 208 247 183 92 17 93 46 10 9 88 39 81 34 101 110 96 180 264 159 243 263 178 190 104 158 130 128 118 131 118 169 228 173 168 170 169 243 256 237 218 119 138 167 175 194 206 236
153 170 33 189 85 218 125 22 60 29 58 79 59 29 -14 109 77 89 104 292 239 237 273 207 153 118 143 150 117 102 116 158 240 220 217 223 193 131 171 257 163 152 49 51 185 205 158 158 129
70 134 87 73 50 260 142 154 90 70 72 36 11 21 18 14 51 60 69 228 302 234 258 234 136 116 121 209 141 108 101 115 148 200 222 224 204 216 173 204 148 102 50 157 200 184 112 139 31
68 82 112 70 142 192 165 80 80 112 88 82 160 197 120 90 51 43 62 113 226 203 236 265 178 118 120 194 184 132 122 119 121 108 176 195 201 215 212 276 254 223 182 134 178 226 207 159 108
27 74 83 184 177 97 149 149 111 74 120 75 146 102 136 156 57 43 20 25 157 189 212 253 205 134 141 169 204 174 152 149 145 149 161 173 168 178 184 199 229 237 257 230 238 258 234 203 145

GFSSGP_con_3kmhel_081.txt.gz
Helicity
36 12 33 40 70 60 45 74 14 64 124 182 190 188 136 101 157 133 27 45 18 40 88 116 142 141 193 175 129 112 88 86 82 101 123 134 153 143 134 117 121 127 118 112 104 87 97 116 126
18 19 52 66 81 57 58 18 43 89 110 118 117 99 49 98 108 82 100 74 102 89 97 101 109 153 167 179 150 114 129 90 95 93 115 122 129 133 120 118 103 104 98 91 98 94 95 103 88
18 31 76 74 60 50 59 -5 156 94 83 93 90 52 23 128 141 119 51 84 65 124 141 128 115 158 262 283 225 197 210 122 68 88 105 108 108 109 114 115 98 82 81 80 86 72 66 77 61
58 77 59 92 11 -12 71 45 87 151 92 113 66 60 75 111 121 74 70 82 94 130 178 171 156 186 198 185 159 280 216 302 283 124 79 99 99 97 96 103 81 73 84 81 66 62 50 43 61
89 106 84 79 -0 -6 26 91 136 166 149 110 87 107 153 227 226 180 151 115 111 140 183 146 150 122 162 171 135 102 132 170 238 43 54 42 106 96 100 90 75 89 112 83 58 57 32 74 115
146 122 120 57 -34 2 14 167 200 192 159 146 91 78 152 213 190 135 122 140 167 222 164 147 99 126 110 124 110 63 91 133 239 197 57 38 105 104 103 86 78 123 137 86 66 61 61 85 125
91 108 55 21 -2 -71 -44 165 189 191 178 152 132 105 86 165 136 88 138 189 162 174 207 121 111 90 82 87 86 106 134 135 234 283 240 -14 95 146 148 110 140 141 122 72 56 78 62 97 110
91 112 -11 -19 -35 -82 -43 179 177 140 124 155 113 118 187 65 165 184 210 186 150 119 116 161 95 77 79 81 122 135 97 99 111 156 331 90 148 170 165 165 160 132 110 84 84 78 85 72 101
42 100 57 1 -47 -114 -12 75 74 120 164 119 70 123 191 244 175 174 174 162 162 91 74 91 81 48 51 88 115 95 107 111 114 15 136 111 222 219 201 158 139 110 118 109 74 77 94 99 146
98 153 42 16 -38 -81 -38 25 75 130 125 109 51 203 299 212 113 104 141 200 134 69 52 65 50 43 62 93 83 127 100 68 -79 155 94 158 252 261 207 164 145 104 121 101 79 87 110 122 173
58 63 -0 -28 -100 -46 21 53 20 61 85 97 83 71 134 123 110 100 80 257 154 89 65 59 56 79 102 107 92 102 127 108 61 133 295 218 285 249 236 210 230 164 123 134 121 135 140 111 176
83 41 22 24 12 40 47 40 43 24 62 65 45 91 80 117 134 96 119 219 189 149 85 107 156 147 126 102 90 77 123 126 46 117 199 329 334 247 294 279 248 154 125 149 126 175 98 128 196
73 40 16 -4 30 60 50 71 80 -15 44 59 61 73 136 166 152 96 157 269 237 196 178 188 190 176 147 137 99 98 143 155 82 68 180 188 237 173 219 177 147 101 94 88 145 112 78 186 184
79 62 25 -18 12 31 52 69 63 -13 78 60 34 93 160 179 100 126 311 315 264 223 210 194 215 203 175 131 114 116 185 236 254 222 413 427 392 214 219 219 171 77 51 35 106 125 68 157 147
72 95 70 32 -29 25 64 78 25 -5 65 109 116 51 188 179 125 181 254 282 303 228 219 214 232 228 168 140 113 93 102 197 223 268 198 286 303 158 185 212 129 76 37 64 91 129 94 142 95
140 142 147 13 11 26 60 65 18 44 20 56 170 82 162 196 162 223 215 304 309 293 213 229 270 250 193 148 126 55 83 102 222 310 318 325 262 171 181 116 100 71 100 39 114 110 122 132 117
177 177 119 49 48 76 51 43 25 82 33 75 124 121 156 170 201 224 253 281 289 258 202 192 219 261 258 198 107 54 87 151 186 272 231 172 200 194 178 210 199 127 104 81 43 120 130 106 108
198 149 97 67 22 -16 39 45 -4 106 72 128 108 88 217 305 260 270 287 281 291 238 198 205 185 258 301 227 123 64 79 97 115 156 117 135 151 166 171 202 250 97 107 77 58 92 121 91 88
147 135 124 78 55 -42 21 3 114 113 85 70 140 121 208 281 309 347 360 331 372 273 245 202 190 210 294 253 146 104 51 93 110 132 110 105 156 72 140 165 306 52 83 90 77 121 120 139 125
202 233 147 82 29 -16 86 65 40 126 100 71 139 166 175 246 325 395 455 477 395 340 275 223 169 183 220 214 109 73 98 40 43 43 -26 -45 -64 -5 28 191 339 81 79 99 119 164 229 159 147
116 149 168 219 128 -2 30 4 59 49 61 36 50 140 126 249 334 449 486 473 437 379 312 224 165 158 179 186 148 94 73 119 103 52 -12 -49 24 35 103 205 106 118 74 134 106 181 193 193 164
98 102 153 246 166 -1 13 141 56 91 82 10 -35 -26 104 201 378 455 459 406 441 351 298 222 203 140 145 181 167 164 173 147 137 64 51 56 41 44 74 150 38 35 31 92 63 65 110 151 124
100 118 110 230 181 109 -25 109 87 67 22 56 62 73 100 173 315 358 371 360 401 350 326 240 202 147 142 173 184 177 152 118 101 94 64 68 65 119 91 84 76 17 77 77 105 122 135 169 175
163 107 108 135 137 115 51 143 82 12 -4 43 42 80 77 115 301 364 337 357 370 288 292 271 198 164 139 155 199 182 186 182 168 187 151 87 47 13 90 110 90 113 115 96 120 146 140 167 195
135 128 143 81 120 75 16 139 102 27 9 -1 -2 125 79 106 303 346 376 376 383 307 287 297 235 179 158 165 165 206 193 204 196 219 190 149 36 -11 -1 86 159 143 172 171 137 152 170 224 211
15 139 170 199 149 82 81 144 121 38 70 29 138 208 229 79 310 343 336 299 367 311 306 281 273 198 162 171 177 171 198 198 207 231 210 202 140 55 82 96 159 214 196 216 160 188 167 201 225
36 102 70 226 197 113 155 137 33 32 63 16 69 122 125 144 257 203 199 277 353 345 322 327 271 227 188 162 151 168 188 222 216 215 216 233 214 137 107 158 171 220 187 160 268 272 186 211 243
40 72 194 139 147 114 128 171 124 73 69 128 115 114 86 105 70 180 185 241 328 424 369 324 288 257 215 201 171 173 153 154 165 178 192 193 210 200 187 227 267 201 188 173 123 194 94 129 175
51 79 78 67 160 68 166 181 166 572 326 313 311 258 307 322 178 100 80 221 324 402 383 319 279 240 198 225 172 172 173 153 150 175 154 154 143 158 188 218 265 312 280 276 205 188 167 124 149
178 63 48 94 98 74 86 116 260 538 502 444 245 200 226 262 336 297 217 105 263 341 345 316 266 255 219 252 231 172 145 142 163 205 197 176 156 150 165 172 165 208 276 271 221 240 229 204 218

GFSSGP_con_3kmhel_084.txt.gz
Helicity
63 55 29 59 59 71 61 34 22 58 85 54 85 92 79 118 195 178 68 48 70 29 -4 33 100 130 123 142 187 200 197 164 138 127 118 146 154 191 193 177 158 155 166 165 157 142 144 144 174
51 52 66 75 84 80 86 69 25 24 81 74 109 122 154 218 147 121 123 48 44 44 34 86 118 138 138 122 141 178 182 159 135 106 99 113 141 132 155 165 157 149 144 141 132 118 128 158 172
73 73 99 93 85 82 98 -4 33 -2 50 96 134 129 145 188 119 84 68 70 71 78 77 114 145 127 140 129 148 162 166 156 140 157 96 92 110 138 124 152 163 156 131 101 101 127 143 154 154
114 139 127 114 44 61 -18 -23 40 8 54 125 132 141 193 112 126 81 94 93 96 103 99 117 154 167 147 134 151 211 249 289 333 400 333 139 72 96 125 145 142 125 102 95 98 101 142 170 170
145 179 157 106 3 21 6 40 82 7 110 113 114 131 210 219 233 172 56 110 145 123 133 148 182 182 148 164 163 169 147 168 199 229 138 59 70 31 120 126 118 101 79 84 69 97 172 176 151
185 209 186 106 -3 -7 12 -2 56 43 138 109 173 249 229 158 194 119 157 166 158 194 186 171 171 171 167 128 106 164 153 126 133 102 184 95 75 7 75 104 95 93 98 67 69 112 154 169 180
196 225 157 101 5 -10 18 64 25 127 173 183 151 224 193 94 130 174 193 187 210 192 217 180 146 145 153 128 117 97 119 116 125 215 242 134 130 -3 33 76 102 107 89 58 98 130 155 169 183
160 239 132 105 51 -57 21 82 9 84 115 127 133 141 138 41 204 263 182 137 150 192 179 164 158 143 127 100 67 71 114 141 158 214 207 186 177 26 6 114 116 109 86 91 117 132 166 190 175
170 269 126 79 45 -36 -23 108 28 63 142 124 98 133 120 300 300 244 173 153 183 164 136 124 141 106 105 85 104 90 141 159 117 194 139 249 124 64 35 112 135 110 94 117 124 132 199 210 160
257 278 112 98 12 -76 -42 10 -20 27 92 114 139 167 287 401 292 203 190 201 189 108 58 86 117 125 98 83 115 128 152 112 76 110 344 234 137 71 100 159 183 114 113 115 117 138 197 210 217
216 208 94 -6 -11 -1 26 53 21 53 46 67 74 167 249 205 178 173 152 162 119 76 55 77 125 147 121 100 101 103 99 125 110 63 99 9 101 141 212 190 133 127 148 129 126 139 201 210 189
172 159 37 -9 -10 42 64 58 63 93 74 63 57 119 156 141 141 111 123 148 166 131 79 91 123 153 142 145 111 118 89 100 82 63 101 221 240 212 223 186 144 150 151 139 113 127 193 202 155
165 75 42 42 40 90 117 76 66 19 57 57 67 120 121 127 116 89 123 187 242 205 145 113 151 168 168 176 157 151 129 90 103 90 153 241 232 239 185 173 159 168 151 134 127 129 180 217 157
103 79 75 104 92 61 102 119 83 -69 77 35 62 110 117 147 131 130 263 296 288 253 194 149 146 174 173 165 166 167 138 113 77 84 173 197 209 215 171 174 167 173 148 112 115 104 169 263 171
100 120 109 81 63 26 26 58 73 47 104 57 25 45 138 184 178 223 270 325 304 271 230 195 172 186 170 158 147 165 162 132 98 122 109 202 185 207 174 169 158 175 135 110 99 113 220 287 164
177 142 92 74 48 10 79 -27 9 14 35 26 57 53 112 180 252 273 277 319 318 332 249 225 198 201 184 160 159 154 143 175 120 184 205 198 237 227 211 179 192 202 162 120 98 135 248 210 192
194 133 106 48 48 71 86 10 1 -16 26 21 93 69 143 219 225 321 384 341 358 329 286 241 217 215 203 157 152 116 53 124 132 105 212 242 272 259 257 212 237 166 143 91 84 167 215 156 190
185 174 129 84 19 53 60 34 45 -21 13 64 90 101 124 195 257 399 389 373 393 325 283 249 214 221 214 181 164 101 53 64 96 114 168 230 230 234 179 171 218 137 103 76 89 121 126 128 174
164 137 101 88 84 60 48 34 15 18 1 26 90 129 135 191 314 395 383 383 416 343 312 263 252 229 271 192 185 105 59 51 91 122 137 211 224 198 176 157 195 170 102 108 139 148 93 145 178
142 141 121 77 86 85 49 5 -9 -3 13 105 92 161 140 234 402 419 443 418 400 393 290 275 260 246 236 214 155 23 51 50 44 107 48 98 150 137 197 163 213 256 234 145 137 140 193 186 156
133 156 130 85 43 22 75 -27 -81 30 53 125 49 129 136 255 380 475 449 438 404 395 306 269 255 234 205 192 155 109 34 87 81 59 61 37 55 63 124 109 186 209 208 207 75 112 115 159 134
114 91 141 173 131 120 220 15 -28 -1 64 152 91 82 108 203 328 490 503 427 375 363 321 260 228 209 192 187 167 159 119 137 61 77 23 6 37 125 69 98 89 136 118 75 42 55 108 210 147
95 146 161 162 164 134 115 139 -59 -60 48 56 80 55 73 146 300 441 482 434 362 396 332 263 199 186 170 184 173 164 129 73 73 72 15 3 -53 -10 79 95 140 112 125 149 -90 -41 52 131 163
147 153 146 134 146 169 128 190 -66 -59 -8 33 69 47 12 116 238 423 485 449 380 360 324 249 205 186 157 169 179 193 170 142 118 77 25 -31 -21 -60 33 157 138 129 135 76 52 -10 26 131 172
198 178 155 150 270 228 82 105 13 -45 -16 35 46 30 27 91 278 366 468 422 351 367 319 241 202 197 161 156 159 191 186 186 168 128 49 59 22 -16 -18 74 97 143 146 55 2 68 141 176 198
125 141 162 183 152 99 86 39 -41 -170 10 68 88 21 35 120 231 313 409 405 343 328 322 223 197 211 182 173 160 159 183 171 148 155 123 100 83 19 21 -0 48 66 105 160 190 175 161 171 182
101 130 105 95 75 28 31 12 64 99 305 85 19 22 69 149 209 241 331 330 271 301 282 220 178 200 200 173 157 164 166 164 167 153 138 111 109 63 70 74 56 57 70 75 127 166 197 225 216
136 136 79 90 89 -31 49 68 166 253 171 234 142 106 158 131 154 224 252 169 163 263 279 247 166 190 191 203 166 148 153 157 161 175 194 169 103 96 103 78 68 55 69 114 166 145 76 195 217
169 110 46 44 106 -22 6 70 290 363 321 448 539 390 276 302 227 104 80 76 167 237 272 268 202 156 164 193 204 181 163 160 164 172 174 174 155 124 132 126 104 93 91 103 120 141 173 189 183
177 143 160 36 45 64 61 -15 107 381 443 664 514 401 560 518 448 240 133 135 118 141 212 291 242 211 197 174 178 185 167 140 168 175 146 147 164 161 163 146 152 142 138 128 148 168 192 226 208

GFSSGP_con_3kmhel_087.txt.gz
Helicity
73 78 70 85 97 101 81 82 45 38 61 34 65 83 77 118 133 94 82 26 34 58 15 -15 20 93 191 207 181 177 188 200 189 173 198 213 209 209 224 218 204 182 166 169 183 188 152 151 196
86 95 108 94 117 108 100 80 71 36 -25 16 95 152 129 116 155 173 165 31 57 72 32 27 68 111 165 197 189 165 158 167 185 194 189 131 145 170 159 185 199 189 174 167 174 187 168 186 224
107 118 135 115 117 110 116 69 72 163 13 18 79 114 125 102 138 160 55 98 105 88 82 58 99 147 161 172 180 169 166 176 202 208 171 166 128 99 130 166 163 180 158 150 147 166 179 209 213
147 189 184 128 86 52 60 45 60 81 31 -4 58 134 151 141 164 73 100 126 106 104 88 79 113 155 150 159 165 175 222 343 383 379 314 253 172 131 55 89 123 135 130 129 149 137 185 197 219
201 214 213 106 41 79 75 36 36 60 93 12 83 150 146 119 169 162 113 102 118 108 92 100 141 159 140 122 136 202 272 317 352 249 200 236 191 290 143 60 75 103 110 116 179 171 192 211 217
257 255 224 90 28 54 50 55 60 69 34 37 173 178 138 130 183 140 124 99 138 147 125 145 179 179 135 114 133 179 238 285 271 273 249 111 132 200 140 59 37 83 115 180 189 195 190 194 167
247 291 186 94 -9 -15 56 63 126 77 61 78 180 180 133 133 148 216 177 152 170 149 175 207 186 178 172 161 120 154 258 277 224 210 146 116 190 245 239 27 14 89 104 144 177 201 202 159 135
218 278 198 97 38 -49 17 98 120 146 22 131 192 126 90 71 184 207 205 195 169 154 170 228 214 197 199 162 128 130 122 120 100 102 99 139 209 170 180 12 -14 53 153 149 163 221 198 126 114
210 298 247 142 141 53 63 203 151 159 57 26 107 107 85 253 290 297 275 240 225 194 160 203 174 159 178 150 121 98 97 128 124 141 136 189 223 183 109 61 -21 70 178 166 171 248 179 120 107
244 284 236 141 133 51 69 67 133 161 192 129 77 130 175 307 325 301 276 261 204 183 143 133 118 140 164 144 126 128 133 160 177 176 218 211 205 122 104 68 -2 108 216 191 208 214 171 137 139
230 235 185 123 79 40 -14 1 -21 124 243 151 48 75 148 230 234 193 174 234 173 127 128 86 98 122 149 131 135 154 158 134 122 142 158 225 276 259 96 153 108 156 205 234 231 258 211 138 152
234 205 124 71 62 44 10 37 67 78 116 76 57 105 163 178 165 132 158 189 193 128 100 98 99 147 170 146 157 151 148 117 122 96 104 155 269 267 185 192 149 173 190 251 240 223 205 178 148
215 193 135 87 52 56 58 24 103 147 48 79 100 155 160 146 126 158 147 154 185 165 115 101 107 140 160 166 178 186 165 125 112 114 68 48 -0 143 163 162 193 165 197 254 231 231 192 166 139
153 104 102 90 60 64 93 40 144 84 79 84 93 137 148 174 141 183 226 192 187 203 152 124 102 132 165 169 185 200 180 123 127 109 97 71 123 205 162 152 124 133 160 271 231 256 228 192 152
96 123 130 140 130 72 77 65 104 77 105 109 99 114 144 145 195 187 271 270 223 238 200 148 128 156 149 171 166 189 190 162 120 84 134 316 206 175 156 139 141 134 194 226 207 257 242 207 151
191 167 152 141 128 73 92 -32 29 47 88 81 92 69 108 90 150 193 288 298 292 310 235 210 180 190 190 196 165 165 182 167 127 108 119 175 233 209 154 157 162 196 217 235 170 248 233 197 153
173 145 143 156 123 102 86 -5 13 41 19 48 79 13 46 83 117 191 320 386 366 329 267 239 226 227 209 188 183 159 144 127 165 157 125 78 180 184 139 181 193 197 210 210 194 254 241 234 203
164 150 134 112 122 117 64 13 -6 -46 -14 -0 39 3 60 91 126 283 374 361 364 353 246 227 236 250 220 204 235 160 99 71 76 102 172 142 184 199 190 197 183 169 213 191 227 239 305 233 216
133 124 94 99 98 35 11 -36 -9 -29 -43 21 36 -16 49 87 88 237 366 369 377 315 299 229 244 247 264 222 235 194 84 35 59 111 77 244 189 224 190 238 186 172 164 195 229 255 277 269 243
121 107 84 57 68 89 -22 -133 -65 -43 -16 -29 18 25 34 14 138 285 359 368 361 334 292 258 215 239 238 192 201 174 71 54 48 57 61 193 296 303 298 267 180 161 174 182 195 214 264 289 211
123 109 92 60 87 54 8 -133 -129 -78 -5 -45 -31 -0 49 59 146 302 369 382 368 316 294 281 230 215 233 208 198 185 103 53 78 99 100 69 238 287 253 213 173 162 141 185 152 203 209 258 186
91 95 95 96 66 48 103 5 -39 -86 -76 -10 -34 -16 74 75 90 259 412 414 365 328 265 263 243 204 188 228 206 206 99 73 50 74 103 80 204 284 232 172 202 237 172 242 208 154 169 198 188
68 91 87 79 80 97 163 174 27 50 -29 -2 63 6 75 104 136 276 368 393 409 399 281 253 271 201 194 173 172 160 113 75 73 63 80 74 131 150 160 165 238 312 180 206 203 268 132 148 187
72 77 63 71 110 117 131 185 30 76 21 6 71 66 77 103 119 206 306 494 447 401 286 266 258 164 188 152 164 132 106 119 96 82 63 63 31 114 125 156 165 128 173 191 128 165 100 75 147
138 128 77 77 108 163 89 83 157 37 86 58 61 120 64 61 115 183 324 441 460 394 301 291 232 151 170 137 137 115 106 108 90 80 71 71 89 117 68 90 68 113 145 137 145 110 149 115 128
101 109 63 41 57 63 32 58 88 86 76 63 95 186 95 27 79 99 302 455 476 392 317 290 257 159 167 124 112 89 96 81 66 94 91 83 59 16 43 6 -26 85 138 128 108 128 195 86 61
64 91 98 106 96 80 143 87 51 23 210 160 157 131 75 42 48 -39 260 399 395 380 288 309 232 163 151 134 111 112 102 90 59 59 89 89 76 31 32 52 60 92 143 112 119 121 162 131 65
99 94 68 54 87 113 65 31 85 119 272 394 247 228 80 64 36 93 241 249 292 261 268 271 220 181 157 129 119 112 121 112 85 45 41 58 64 89 65 29 25 59 123 134 129 91 55 91 113
131 127 126 80 32 68 64 11 73 247 381 538 373 202 103 117 71 108 156 172 182 159 175 207 181 149 150 152 143 126 130 124 110 83 49 38 22 58 102 90 73 82 68 75 116 116 143 170 141
130 99 118 104 89 67 19 -23 56 45 485 628 609 334 213 173 168 196 149 176 135 141 139 170 148 96 120 149 138 140 130 125 131 136 111 93 79 57 60 78 102 90 99 123 114 111 146 180 132

GFSSGP_con_3kmhel_090.txt.gz
Helicity
80 81 83 97 96 124 77 85 92 73 52 22 24 35 28 62 84 63 76 63 85 71 40 36 61 114 150 151 178 205 183 199 234 215 217 220 213 202 195 205 189 184 164 146 154 156 144 118 142
101 110 126 108 119 137 76 87 137 114 24 3 10 39 46 38 103 114 162 51 80 80 58 76 101 142 184 187 162 193 182 174 160 187 198 169 146 137 142 148 185 169 152 144 152 157 149 151 198
114 150 144 134 126 135 92 98 110 97 50 47 55 28 43 59 87 92 71 115 115 87 74 95 111 149 206 207 168 177 190 191 187 136 113 155 134 127 130 171 142 140 135 127 161 181 164 206 229
139 197 193 151 104 65 53 86 115 119 116 79 63 45 58 92 97 95 112 140 122 106 101 93 127 171 190 198 187 172 207 220 205 202 234 227 170 111 133 127 139 139 112 105 145 196 202 229 225
209 222 218 134 58 99 58 13 37 87 60 74 67 50 58 79 84 126 165 138 139 90 84 95 139 175 168 161 163 188 236 270 313 373 369 346 266 276 94 99 90 90 98 117 146 207 230 231 217
258 239 238 122 80 82 51 35 49 86 19 -0 73 118 65 101 139 153 185 152 115 119 109 110 123 155 140 118 138 230 236 245 252 277 298 306 288 131 50 95 115 56 63 133 184 218 221 217 204
229 264 220 134 34 47 48 47 99 88 47 21 88 155 90 117 120 150 153 155 138 132 173 150 120 145 141 111 186 207 242 268 260 275 322 320 315 195 142 123 202 231 116 131 208 252 208 201 187
229 231 201 137 33 21 8 78 91 111 165 68 73 131 87 88 150 187 176 173 165 174 184 190 171 176 170 189 216 203 219 239 200 196 191 200 198 139 76 145 124 151 128 140 227 232 182 163 163
244 283 239 154 107 79 52 106 138 88 153 221 122 34 58 160 268 255 229 201 175 175 181 181 173 154 131 181 185 196 214 179 151 109 73 85 137 128 146 167 138 116 35 135 232 198 165 156 149
276 290 243 151 96 63 64 73 38 129 162 181 215 18 51 189 251 267 249 221 165 188 163 164 143 146 111 136 155 179 160 148 89 92 102 144 152 157 165 127 117 117 22 153 222 187 154 187 158
255 261 245 146 134 73 37 45 -79 29 119 131 176 107 64 163 235 229 214 201 171 159 169 133 111 137 141 143 142 153 171 149 143 146 141 167 224 161 132 144 223 197 82 218 219 222 183 145 163
241 205 185 109 97 96 63 35 26 22 38 69 142 126 122 147 171 198 187 177 207 196 143 118 107 121 120 131 146 147 165 158 154 132 169 138 209 179 157 184 160 145 137 248 289 260 187 134 119
208 193 155 52 80 84 61 47 56 57 60 88 93 70 131 156 156 151 177 192 211 210 156 120 139 98 138 151 160 168 170 159 133 116 124 168 158 204 180 240 191 304 150 276 278 226 193 167 179
166 67 99 93 73 78 74 50 79 44 59 133 109 103 143 166 159 160 208 223 247 229 194 147 140 125 162 164 157 185 183 177 172 141 140 135 138 236 216 273 329 264 171 276 277 226 194 173 161
136 138 137 136 107 86 79 76 81 59 69 107 123 106 97 105 127 124 162 222 297 255 231 176 134 154 170 161 146 181 176 188 168 148 128 107 89 135 287 279 263 236 174 311 310 274 239 203 160
159 155 169 123 101 94 112 25 61 91 85 80 116 145 88 73 108 104 140 156 282 279 283 176 144 161 191 181 171 189 172 182 192 148 105 76 10 83 107 299 246 222 230 280 277 255 229 197 158
205 214 154 134 108 122 133 96 76 133 95 78 98 133 104 96 76 43 132 198 309 304 317 216 176 185 199 185 167 210 190 182 151 118 112 108 278 310 295 200 173 189 197 243 271 269 247 203 150
196 173 161 135 107 113 102 53 43 40 32 25 30 56 71 79 76 95 94 222 311 315 303 262 237 239 249 210 156 201 200 175 103 124 94 115 194 198 204 172 189 203 244 254 273 277 265 194 194
143 134 121 110 98 84 64 17 7 19 -12 6 39 36 30 39 55 56 85 251 333 252 283 306 307 256 265 244 195 177 198 116 52 85 98 107 92 190 194 173 188 196 217 234 284 326 271 262 260
117 112 108 74 45 69 28 -52 -39 -19 -10 7 27 42 30 62 58 36 104 201 266 264 264 263 280 299 245 239 163 182 213 106 67 54 18 56 156 177 194 142 154 190 247 196 238 260 310 272 217
130 119 94 73 64 52 -0 -107 -59 -22 -13 -13 21 48 42 20 34 38 98 161 227 267 275 270 250 290 232 210 163 212 235 130 71 38 46 65 172 165 195 189 191 232 238 193 181 266 294 301 214
128 78 72 85 81 45 21 -153 -116 -72 -19 -43 -29 44 39 32 40 31 96 96 135 232 298 255 214 269 211 204 173 182 191 139 75 58 90 122 110 205 234 300 273 267 244 193 162 219 266 312 258
119 85 89 78 51 37 14 16 -99 43 44 43 35 76 65 35 51 66 120 104 245 185 317 282 213 213 216 210 164 168 155 94 126 100 95 141 81 151 310 286 272 270 208 191 199 150 195 228 252
126 144 99 78 58 71 1 63 -46 15 49 67 111 145 205 110 65 84 151 190 273 304 240 264 233 184 207 190 144 161 165 136 108 91 97 99 82 192 227 337 231 207 149 154 152 233 186 132 172
153 133 145 134 96 38 46 58 106 97 4 67 118 127 188 122 125 116 200 221 258 314 301 241 239 191 211 165 129 121 144 139 110 75 68 87 116 107 175 206 198 190 234 166 233 101 169 224 192
137 126 105 57 39 52 44 72 5 34 47 26 123 130 101 131 164 125 170 213 237 304 338 242 229 220 219 154 119 85 118 116 91 90 59 49 75 107 202 153 145 187 216 103 137 95 112 210 168
110 131 87 96 49 78 71 72 69 89 99 125 100 161 119 165 222 135 157 205 273 282 305 267 240 179 165 121 133 82 57 83 51 69 41 27 66 120 107 96 133 132 93 53 148 171 110 210 141
94 48 106 78 22 29 12 61 70 41 55 190 193 138 120 232 255 89 117 200 245 242 204 213 199 138 169 116 78 60 29 77 58 63 63 64 56 60 86 65 70 57 45 89 142 165 73 104 123
95 113 126 76 54 42 16 11 14 5 -2 40 198 211 82 221 236 92 140 150 179 181 149 154 148 132 141 112 94 72 55 63 80 65 67 55 50 79 98 100 91 66 66 88 111 121 131 114 98
84 75 88 61 43 61 79 26 41 -29 -42 82 350 397 109 157 295 235 80 126 207 137 153 106 137 110 100 109 104 78 64 69 70 61 56 52 50 58 72 94 110 113 98 101 109 131 131 136 123

GFSSGP_con_3kmhel_093.txt.gz
Helicity
100 84 83 87 80 91 73 71 77 102 87 29 53 48 38 36 49 75 45 64 89 124 80 64 68 104 99 146 169 142 111 134 165 187 200 220 212 203 199 168 130 115 106 105 105 110 123 127 135
123 123 126 111 113 104 76 86 60 75 79 10 18 20 33 49 39 55 98 70 81 108 87 76 108 126 153 169 168 135 106 127 153 154 183 216 206 195 209 200 184 159 127 111 103 118 112 130 129
139 148 131 120 117 102 90 82 93 109 97 39 22 19 55 37 23 45 57 118 87 102 93 92 108 144 179 179 171 137 118 108 125 98 109 118 110 125 141 146 169 174 127 123 117 116 142 142 156
149 181 189 160 71 65 74 74 93 136 100 37 28 83 56 27 34 53 111 134 118 117 95 81 102 156 186 171 166 152 128 110 97 92 114 117 127 128 121 93 89 104 131 109 126 156 168 179 194
213 207 196 171 92 114 63 69 68 96 84 65 72 39 44 30 45 90 136 143 123 125 95 83 112 149 163 154 147 148 136 137 114 174 205 204 204 188 140 99 51 65 77 78 134 182 204 214 206
233 227 213 134 88 82 59 45 69 51 37 33 52 31 2 52 75 97 137 130 108 122 113 97 118 132 145 143 138 144 116 140 205 227 274 296 316 294 231 194 128 51 58 151 150 204 191 214 216
213 257 219 155 62 51 47 40 59 92 79 66 52 54 35 67 85 135 146 133 118 137 133 118 124 120 133 160 189 152 148 188 218 230 253 289 370 402 214 178 94 65 100 182 187 182 195 200 210
200 222 209 173 55 18 19 67 86 84 108 79 67 110 48 60 107 177 165 151 143 156 143 133 127 93 114 168 229 174 141 174 214 235 274 305 305 302 272 178 161 125 148 244 232 190 182 194 191
241 235 187 188 121 106 54 61 80 129 130 146 120 129 57 33 123 146 191 181 172 171 154 148 140 116 118 186 204 183 141 179 219 215 250 252 230 206 92 62 41 107 171 218 150 186 207 210 178
271 253 217 184 100 106 92 83 76 107 121 139 157 85 64 5 85 84 124 190 187 191 162 148 141 115 104 133 202 184 135 153 188 199 198 179 159 99 48 40 85 75 121 227 100 161 224 151 125
264 232 252 161 87 105 90 83 63 77 55 65 126 123 93 68 64 94 77 118 189 173 165 137 147 115 113 102 183 209 153 133 139 130 130 109 66 60 75 109 89 89 166 208 137 195 147 125 95
260 208 163 110 90 90 71 73 58 64 34 1 35 77 116 116 116 112 119 93 137 185 158 140 143 154 133 115 125 183 171 141 112 65 53 70 83 67 106 154 165 189 241 232 192 153 132 105 91
201 192 146 66 62 63 58 31 56 55 16 7 6 72 88 109 105 95 90 101 89 150 180 159 139 160 143 140 128 157 163 152 124 107 83 88 107 91 113 179 202 283 297 266 178 148 131 90 81
115 75 71 85 63 65 42 41 73 35 27 68 28 96 100 115 109 80 95 95 103 135 203 182 161 174 154 148 138 139 168 166 161 157 122 94 96 93 140 175 238 244 229 199 167 118 124 109 86
121 104 101 120 101 71 28 -8 47 59 47 30 91 121 129 103 104 114 99 85 112 142 160 189 188 189 168 140 125 138 118 162 174 177 142 113 89 87 190 226 284 276 268 240 206 119 126 113 97
145 109 112 86 88 98 77 5 41 69 67 61 70 109 138 134 111 93 65 102 104 137 193 205 226 200 190 146 141 145 118 141 149 166 181 127 114 129 209 280 326 314 379 227 181 128 117 117 103
180 179 112 115 70 121 105 54 25 95 67 82 108 117 120 134 127 97 25 64 114 147 171 239 242 224 224 174 163 154 137 131 136 157 146 92 113 83 172 222 385 349 309 204 160 160 127 122 92
215 154 109 80 120 103 112 74 116 98 80 64 67 57 58 63 72 102 77 56 95 121 158 214 248 258 241 213 188 157 143 146 160 124 77 109 77 51 151 219 421 334 229 164 157 160 151 99 115
110 106 101 116 100 139 119 88 96 55 30 30 40 41 40 49 43 41 56 71 84 91 166 206 299 295 330 278 208 160 164 146 136 85 63 127 113 283 355 447 314 252 209 163 190 244 175 144 135
88 96 114 116 94 91 70 28 39 7 41 37 30 26 36 42 46 59 66 62 70 70 148 178 254 318 326 270 202 161 166 114 113 79 89 121 139 129 120 191 185 151 198 216 245 239 207 174 134
90 80 99 86 100 80 65 3 8 17 8 31 47 35 48 51 32 52 73 77 47 45 116 197 244 302 315 289 211 157 156 111 102 71 33 34 81 79 124 105 122 167 156 189 214 231 223 222 155
60 67 59 71 78 101 96 -24 27 32 39 44 86 121 127 129 102 54 74 73 57 37 89 132 184 273 282 296 215 166 163 113 86 57 44 59 81 65 112 173 131 150 173 199 240 235 217 205 179
56 44 56 84 83 80 60 48 -57 -2 43 149 134 132 207 209 167 123 81 54 59 67 106 198 196 181 235 267 180 160 147 93 105 85 64 80 100 111 85 163 153 204 183 225 260 255 217 186 191
90 167 157 118 65 68 51 61 -45 6 25 99 108 207 265 248 214 201 126 26 48 51 104 226 216 200 172 212 160 144 148 104 104 117 93 89 112 57 120 210 180 259 265 244 350 239 238 239 153
136 139 105 74 88 73 26 16 15 51 83 40 68 102 159 242 161 199 123 59 48 69 133 199 227 223 187 172 152 148 118 89 87 102 96 73 75 73 114 119 224 228 192 254 248 141 136 113 175
158 116 101 81 80 69 20 18 3 41 21 -6 34 24 27 99 168 159 190 103 78 88 156 214 217 255 198 161 117 116 93 68 60 73 86 63 46 57 74 114 140 274 178 232 187 100 109 100 156
131 116 104 93 73 37 38 60 27 42 38 22 18 5 -11 56 150 194 188 149 115 105 116 192 184 210 198 158 119 99 78 67 52 66 74 78 76 66 73 92 157 134 184 195 219 102 80 128 82
92 86 116 128 72 40 44 30 24 33 -7 -19 -6 -70 -25 44 138 209 154 141 130 100 143 180 178 150 174 142 121 96 74 78 47 58 49 58 63 48 77 85 118 146 112 134 222 49 28 86 47
133 115 139 105 83 52 39 30 26 1 -26 -29 -15 7 -48 109 165 155 113 72 79 72 146 136 141 114 102 112 86 61 71 69 42 36 38 32 28 22 26 41 55 94 105 80 73 41 39 62 51
127 123 111 96 78 63 39 33 8 -9 -59 -33 -30 -24 16 20 196 207 212 41 42 75 113 130 146 102 93 108 86 68 72 84 59 29 24 28 21 18 18 27 30 50 58 58 68 98 125 146 123

GFSSGP_con_3kmhel_096.txt.gz
Helicity
60 51 47 31 52 66 38 72 80 48 56 53 61 78 40 63 68 82 47 94 52 82 78 66 61 63 94 97 107 94 99 107 98 107 112 145 167 162 142 126 126 118 112 84 81 88 98 104 111
73 80 65 86 89 71 33 81 53 52 98 90 76 39 57 46 28 51 72 66 77 77 76 71 74 72 114 129 112 94 101 115 119 124 105 165 168 168 152 137 127 119 110 91 87 96 107 112 123
80 70 85 101 75 27 29 81 72 113 68 81 79 32 60 80 38 41 76 111 105 92 80 101 96 92 131 144 121 87 77 99 125 141 148 140 145 137 135 139 125 111 120 106 89 101 110 131 155
87 118 142 105 59 36 55 91 98 82 48 60 60 57 49 61 45 26 86 131 127 96 90 132 103 112 123 140 120 96 70 59 85 71 66 65 60 72 84 75 97 110 90 94 80 110 130 148 165
95 141 103 80 33 19 78 87 72 77 88 69 78 39 71 47 59 52 91 128 121 105 102 99 101 114 114 138 99 93 75 38 41 62 58 97 122 129 120 110 97 77 87 53 94 127 146 156 165
119 158 112 78 43 72 46 62 75 43 54 68 43 27 26 91 55 64 100 123 119 106 110 107 114 101 101 116 96 76 65 47 16 67 86 131 174 190 183 183 192 171 140 91 46 93 151 168 172
92 98 72 55 40 67 50 69 91 69 63 51 70 70 75 25 57 86 101 132 119 113 125 122 115 94 78 95 91 68 73 73 66 107 142 198 238 261 259 217 141 115 186 73 77 110 170 183 175
125 130 65 59 60 11 71 64 102 70 94 131 61 102 72 74 70 86 104 123 124 122 142 145 130 99 96 98 106 99 91 88 124 146 188 220 260 247 227 254 136 139 101 106 85 134 137 195 182
116 166 112 59 66 63 88 25 52 132 122 96 76 145 196 128 60 73 89 97 117 139 149 150 126 105 90 110 116 129 105 85 126 179 232 212 128 156 192 143 141 153 111 127 170 171 139 198 171
170 152 101 84 132 58 84 77 74 82 54 80 81 103 153 87 69 54 62 80 87 105 147 142 120 111 102 104 89 84 78 82 83 103 127 106 109 125 127 122 109 70 72 135 118 86 114 125 103
166 98 101 107 102 43 64 46 49 81 93 51 81 98 125 97 111 74 44 59 72 88 115 109 114 109 117 119 101 87 96 97 129 131 127 127 138 145 135 60 55 48 86 128 185 159 78 70 98
144 127 108 109 54 66 63 54 57 63 53 48 55 105 108 92 97 80 59 48 63 71 108 99 113 129 119 131 133 97 110 111 147 162 162 147 126 114 88 56 22 100 155 129 144 130 85 67 68
117 131 87 96 53 58 62 67 63 56 44 17 38 47 59 97 101 108 85 65 55 54 73 122 126 126 118 127 130 129 91 99 81 141 141 145 143 109 81 47 83 162 198 168 144 113 64 86 76
152 43 98 65 64 79 65 61 43 62 22 22 68 52 65 77 81 125 115 73 63 39 72 126 141 127 136 132 145 144 121 89 83 108 114 97 92 119 93 68 124 199 193 197 196 142 73 73 77
162 123 96 101 87 69 66 46 54 40 24 38 33 66 67 79 88 98 97 91 45 55 70 116 157 145 164 142 144 126 126 102 83 116 119 97 76 82 88 115 143 231 282 147 255 114 82 71 79
95 103 117 75 55 58 68 42 104 110 68 66 56 65 91 87 106 98 95 73 75 65 91 116 156 170 167 147 175 149 121 129 86 99 121 90 66 54 78 96 183 268 271 180 236 165 91 66 76
99 135 59 143 83 51 50 84 54 126 106 56 79 78 78 98 117 110 98 91 86 79 90 123 142 180 178 154 177 156 134 147 105 115 130 107 100 76 110 155 233 332 321 231 113 111 88 81 62
194 129 200 142 81 35 67 55 103 68 63 60 104 102 87 76 67 59 88 90 78 83 90 104 137 182 212 210 203 173 151 140 127 143 135 79 85 92 117 150 227 368 313 293 242 195 91 65 70
185 182 103 89 99 143 78 88 100 89 81 100 85 75 60 53 36 32 38 69 96 75 84 99 150 189 280 296 277 224 176 162 152 151 94 31 116 181 95 111 231 303 317 298 217 112 81 100 117
163 135 164 75 94 69 83 90 90 101 91 68 55 54 49 53 65 60 54 54 35 70 90 86 132 190 227 236 200 179 158 140 110 128 59 57 126 108 61 106 373 332 281 265 178 82 95 156 127
56 64 88 114 72 49 76 71 49 30 32 30 73 119 147 140 115 89 71 61 62 58 83 69 121 177 169 185 213 183 136 141 120 127 69 115 185 162 194 225 310 247 349 222 96 66 104 154 124
102 18 48 64 107 106 116 97 115 78 56 63 178 190 155 137 130 127 100 84 66 66 82 49 146 150 147 188 211 173 146 135 84 128 39 111 126 82 93 197 363 350 267 117 105 138 126 145 123
44 42 35 39 71 122 80 84 66 63 99 127 96 114 121 155 154 149 114 124 95 86 78 43 153 122 158 173 182 153 101 96 88 136 86 73 106 87 93 61 83 136 135 116 126 132 139 101 130
30 27 42 55 69 141 71 73 58 87 101 71 78 87 110 122 152 205 147 90 131 121 85 73 145 123 143 161 169 139 105 100 77 151 96 98 113 152 79 37 108 130 133 125 153 188 209 194 166
12 34 103 135 150 147 65 70 94 45 37 44 57 59 67 106 130 169 240 151 88 114 83 101 145 119 131 152 153 143 106 93 44 134 119 114 114 149 105 68 193 144 159 144 183 211 221 241 248
11 10 82 152 144 104 48 69 59 28 39 60 52 45 39 56 71 138 203 205 146 100 69 106 104 98 117 152 155 151 107 97 25 103 109 87 83 109 45 60 119 140 127 204 180 201 173 128 125
63 42 99 92 83 81 47 42 6 -27 30 56 84 63 56 93 101 118 197 213 151 92 77 89 89 108 131 130 156 166 121 61 30 73 75 78 72 74 95 60 106 67 204 152 183 183 118 91 90
44 78 58 82 47 57 37 49 82 52 61 68 57 48 66 77 83 119 209 324 114 80 93 107 130 167 180 147 128 153 124 44 40 61 82 79 68 61 70 78 96 103 211 119 87 141 139 86 53
104 73 93 77 95 80 81 53 66 46 22 16 41 38 36 24 116 123 252 402 141 78 122 138 122 157 186 159 114 122 112 64 75 36 76 56 62 49 37 57 93 90 98 94 107 103 110 70 49
71 60 57 62 41 77 58 47 35 11 11 7 -8 22 -12 4 39 103 203 310 267 98 82 104 97 155 178 157 115 106 116 81 89 56 74 60 41 34 33 40 81 52 54 67 51 80 77 63 14

GFSSGP_con_3kmhel_099.txt.gz
Helicity
28 12 7 28 50 57 15 -3 60 61 62 32 68 26 17 53 33 81 40 63 108 112 99 59 50 56 57 70 85 97 95 84 83 83 90 80 91 80 86 79 82 80 84 80 77 69 76 85 99
22 9 25 38 81 56 27 3 89 12 81 87 41 35 51 33 90 90 72 46 80 90 88 83 58 71 73 81 92 86 72 63 61 69 87 113 93 68 98 72 86 87 86 83 73 67 78 94 119
-3 25 67 69 61 52 2 43 75 30 133 34 30 28 17 42 83 47 78 54 91 101 80 131 72 70 98 95 83 76 58 49 50 72 90 124 102 59 85 73 86 90 99 76 76 73 96 105 111
58 79 95 110 45 24 -2 30 73 56 50 46 16 25 65 83 69 33 74 60 92 107 108 136 87 78 101 102 75 66 45 39 59 86 100 86 59 74 62 47 15 69 68 67 53 73 108 115 115
20 65 96 93 58 -2 5 52 40 26 50 30 23 -12 58 75 76 68 82 62 105 112 130 99 89 89 92 99 70 55 27 19 31 26 40 66 73 62 50 54 58 117 91 97 74 58 109 104 106
96 58 101 98 45 26 5 75 43 46 40 58 52 26 5 84 60 89 66 62 111 122 103 105 96 89 83 83 69 57 21 -1 -2 11 22 45 76 83 90 109 207 222 170 148 158 60 57 99 101
60 87 78 39 37 17 27 101 65 53 31 13 37 72 18 109 73 93 74 72 121 131 105 105 92 96 67 65 65 61 31 -1 10 11 43 79 108 131 160 236 228 208 190 189 177 251 40 32 89
94 76 51 29 48 32 26 92 76 46 37 37 123 89 31 168 126 108 80 90 109 115 107 101 100 90 83 75 70 64 40 3 13 26 48 96 120 142 190 179 172 207 152 208 226 212 54 87 60
70 93 59 30 29 35 99 91 58 29 7 116 75 103 142 156 135 66 85 90 103 104 96 110 85 83 70 87 85 85 69 38 42 69 77 99 77 116 162 151 196 195 132 92 105 106 115 104 48
106 131 64 48 20 26 94 67 31 111 66 64 81 145 156 152 130 94 84 89 94 98 96 101 87 76 71 91 109 77 66 52 40 47 38 48 71 61 88 180 174 143 97 84 90 99 183 149 53
129 84 87 59 24 52 43 42 44 47 77 37 35 78 75 113 110 102 74 84 95 91 84 105 100 72 61 89 99 82 75 60 48 42 49 57 70 54 99 173 119 142 122 103 110 178 196 70 47
99 93 66 78 59 55 110 64 73 43 62 21 28 41 103 90 100 91 88 71 74 99 85 96 102 85 71 94 91 86 92 103 83 46 46 61 86 76 89 129 113 94 97 113 132 161 134 103 21
91 101 81 40 69 88 58 81 107 96 43 47 40 44 72 67 72 75 61 54 36 100 94 129 115 102 86 87 108 98 115 120 109 94 74 52 89 89 93 90 130 79 87 135 160 146 153 46 12
63 54 76 51 55 72 97 64 63 70 73 43 32 47 56 43 62 63 78 74 58 73 120 135 118 111 83 83 108 118 104 92 110 117 121 117 107 123 71 74 96 87 92 162 173 139 149 88 41
99 138 83 128 79 78 68 63 59 51 40 51 43 45 46 51 49 40 48 53 57 64 108 136 141 119 104 101 107 116 87 89 100 116 106 124 109 114 63 66 119 111 118 142 146 165 136 89 64
133 115 176 116 72 69 109 37 40 -28 14 36 51 29 36 35 43 27 47 43 36 49 80 142 138 135 137 137 141 105 107 86 109 119 119 120 104 114 116 102 115 146 188 167 143 152 126 87 59
101 146 107 138 23 28 56 67 81 34 34 36 41 35 40 37 47 50 24 46 45 50 64 131 142 130 157 156 170 135 141 105 126 108 127 93 99 101 105 106 106 160 206 168 192 145 167 125 66
146 77 138 93 7 29 84 83 63 45 103 74 45 24 40 37 36 38 43 44 55 61 87 128 151 142 148 180 209 185 181 161 134 125 163 102 110 109 103 90 136 198 242 206 211 154 168 108 108
126 106 130 88 46 66 17 69 46 12 57 82 63 39 50 36 24 28 33 27 67 115 123 129 150 148 220 230 285 262 208 203 158 185 114 103 94 83 90 157 250 269 250 226 224 187 168 101 102
85 155 154 98 56 49 84 117 41 37 41 33 26 37 23 20 23 27 30 32 33 71 95 125 112 133 235 249 244 185 169 163 129 134 105 117 66 74 128 183 256 260 249 307 232 183 133 131 109
90 101 141 274 148 141 51 149 116 69 72 51 45 13 5 70 111 128 143 115 84 85 70 80 107 122 249 187 143 125 131 164 156 171 106 142 87 123 137 160 219 269 284 227 211 193 170 210 156
48 1 59 112 80 145 30 158 49 -9 8 30 46 173 197 189 165 140 121 108 95 90 76 83 98 104 260 116 98 127 149 170 142 122 100 174 108 141 100 68 78 241 266 250 242 254 178 202 197
62 19 -8 38 81 63 80 151 131 23 45 64 155 127 129 111 115 150 139 141 122 117 85 104 105 123 253 107 73 134 105 137 134 120 159 171 125 123 130 134 177 287 359 358 228 210 203 129 179
30 58 35 34 34 128 89 87 78 48 62 156 132 84 107 99 147 152 164 146 123 114 135 106 105 210 208 94 81 109 106 142 194 129 170 177 148 174 151 119 194 358 211 155 198 115 68 104 104
119 114 154 128 133 110 -19 54 56 170 162 139 94 79 88 84 133 169 189 180 187 224 84 132 97 191 140 148 77 122 112 149 182 117 178 167 171 189 174 165 128 137 241 206 124 88 89 95 99
37 9 120 173 107 52 60 120 80 93 77 48 39 67 105 119 103 104 125 167 159 116 167 105 120 146 97 145 73 132 129 153 152 119 173 125 139 156 164 168 111 97 61 116 140 176 191 205 248
67 34 28 101 78 100 69 85 76 51 14 49 68 94 129 90 94 103 110 188 251 226 87 98 162 98 113 123 134 134 124 155 144 137 149 123 100 129 139 139 143 162 136 96 158 97 110 141 147
14 39 53 106 201 196 13 -3 103 86 149 87 108 94 49 41 72 75 122 232 308 366 80 147 146 57 116 136 176 150 142 134 152 150 121 113 90 114 132 134 107 137 146 154 64 73 65 80 118
34 38 55 44 88 113 58 116 133 119 74 53 45 24 9 22 70 59 128 214 301 564 127 180 75 132 149 140 192 194 165 140 146 160 125 112 83 96 117 153 128 129 143 147 181 167 119 110 121
-8 27 14 41 35 60 141 54 61 45 54 41 40 12 31 46 30 24 99 225 322 548 549 100 66 170 131 151 178 179 190 142 163 147 107 114 104 51 85 101 108 145 113 127 136 129 92 110 119

GFSSGP_con_3kmhel_102.txt.gz
Helicity
28 11 22 56 74 67 35 1 -28 -14 83 61 64 96 30 58 146 150 159 137 122 78 101 83 80 76 72 76 89 86 80 87 75 65 72 77 65 63 69 71 65 63 56 61 66 68 73 81 98
24 2 31 64 84 77 36 -19 -15 41 84 187 149 79 65 61 84 100 131 88 86 66 66 75 77 82 79 81 87 85 69 63 68 48 42 60 56 67 78 79 69 53 58 61 59 57 73 73 88
9 -15 67 75 52 48 14 -63 26 71 144 139 75 25 41 39 115 47 134 119 69 73 49 88 66 74 86 87 87 78 57 43 44 41 39 36 42 59 61 57 60 48 46 42 54 65 71 81 85
51 83 90 90 44 36 24 3 12 58 94 100 72 7 24 145 103 107 101 81 118 76 155 117 82 75 82 78 85 79 50 32 28 32 37 31 35 57 54 42 64 100 90 79 50 31 66 78 62
32 91 101 78 37 9 -12 10 34 77 48 44 23 8 50 128 104 138 114 97 137 154 125 96 93 73 65 76 88 77 50 31 18 24 36 40 41 62 55 87 137 198 177 113 116 100 87 36 37
133 85 102 87 38 17 15 20 6 91 26 78 81 48 26 129 106 163 150 121 154 153 97 99 79 68 70 73 75 76 49 40 25 12 30 34 45 58 57 92 129 161 204 128 96 151 81 48 20
93 123 105 61 58 50 -6 28 -1 97 54 18 54 26 29 140 123 218 211 148 176 162 126 91 79 71 72 52 68 74 62 46 38 19 5 28 30 49 54 119 176 145 143 108 103 139 177 173 51
87 96 73 94 85 43 14 25 79 126 146 43 42 77 86 103 121 161 213 234 213 168 144 98 84 74 71 51 56 72 73 58 46 28 28 40 51 74 156 161 168 141 139 131 130 153 158 154 87
38 122 120 97 91 65 17 23 65 112 101 37 14 110 109 170 157 194 217 233 156 118 117 130 97 65 63 68 65 74 80 81 68 50 43 56 49 80 156 168 157 159 159 163 118 117 134 111 65
121 174 68 86 91 73 22 25 53 88 29 61 57 71 181 125 158 150 178 202 160 127 132 138 120 92 77 114 108 71 81 73 69 64 55 54 68 83 129 199 183 178 164 134 120 136 154 169 115
91 132 113 59 27 43 46 24 56 85 85 81 43 76 162 138 107 114 108 160 162 131 157 145 112 111 92 101 90 75 72 76 81 71 61 73 73 76 142 212 174 171 125 129 132 157 141 145 130
75 90 100 68 35 31 40 53 45 61 54 30 22 60 144 131 73 95 97 117 144 161 168 141 131 121 77 148 101 65 70 104 86 74 81 79 80 103 137 169 153 168 172 149 148 171 152 158 104
76 76 61 48 44 69 60 139 98 80 88 44 63 51 57 125 103 73 66 64 89 216 208 183 185 139 128 116 138 105 136 153 118 106 110 96 97 103 113 140 145 147 137 149 159 184 179 133 120
63 61 65 43 41 39 75 129 77 108 87 109 66 79 62 69 114 83 66 74 47 143 306 263 211 170 123 142 175 165 147 138 145 128 119 109 122 121 113 149 161 139 94 133 177 208 159 101 110
81 99 90 39 74 62 44 76 124 126 59 54 98 94 75 56 64 78 54 76 64 67 239 298 261 236 135 123 176 187 171 90 139 144 130 137 154 186 139 115 144 123 120 163 187 176 150 143 143
158 87 148 104 85 43 60 110 96 50 71 79 89 93 62 51 45 53 100 30 48 83 169 336 322 263 154 107 199 230 154 115 177 148 154 123 143 185 189 173 153 116 162 179 154 178 172 155 172
209 241 127 109 65 54 62 84 75 42 24 31 41 50 72 45 51 46 70 34 63 57 115 332 330 263 163 134 204 245 162 157 125 167 184 152 144 150 181 206 181 117 173 179 171 187 166 160 183
229 183 154 119 28 58 68 70 48 48 53 44 49 64 49 63 19 66 78 42 74 80 56 283 329 293 163 181 224 260 249 225 155 199 221 173 157 156 168 181 174 156 206 207 193 166 194 180 152
122 105 64 62 143 98 108 47 47 28 54 27 68 94 50 28 60 61 72 66 51 99 97 155 278 331 254 214 230 262 293 284 202 151 152 236 214 174 168 209 147 169 238 232 194 185 221 194 191
95 66 55 72 157 200 53 108 72 75 29 76 76 93 48 86 107 68 53 83 85 97 161 162 182 315 336 264 226 253 246 217 186 156 167 155 161 178 208 224 181 187 212 225 192 192 245 208 207
34 71 49 58 77 177 210 135 188 37 49 41 89 47 45 69 40 25 86 139 185 144 122 191 242 342 366 285 261 246 201 200 183 170 157 170 193 219 240 219 219 216 284 294 212 208 220 210 167
20 2 18 41 53 38 126 121 180 18 73 97 98 98 93 80 164 192 178 173 183 180 161 99 175 232 378 425 304 202 234 254 215 210 182 162 253 296 252 232 231 209 230 357 236 257 236 250 167
33 22 31 19 6 -13 72 165 204 1 34 98 48 160 268 215 232 278 273 254 181 181 157 120 117 115 368 457 328 178 151 169 135 159 151 271 298 268 201 201 184 183 276 231 211 248 267 260 226
42 144 117 80 26 65 68 77 76 70 19 133 172 180 168 207 202 260 336 351 332 281 283 236 125 152 334 386 292 177 130 185 139 150 247 300 242 236 199 173 148 115 212 199 185 166 191 238 217
109 44 133 149 82 19 99 139 97 127 57 174 199 125 190 247 247 239 252 199 166 171 126 255 187 147 342 324 243 164 197 130 144 205 266 265 272 261 212 173 152 182 136 219 239 209 155 246 229
77 109 220 173 85 16 22 48 137 145 113 159 167 286 257 191 170 143 112 96 94 107 167 149 284 140 303 282 244 144 197 144 200 244 228 269 234 208 210 201 140 166 168 150 187 153 304 218 174
23 88 75 54 65 51 61 176 37 56 -13 197 241 216 229 202 106 54 81 63 119 132 111 81 86 209 347 268 188 172 161 135 241 177 233 260 225 229 220 196 148 105 97 222 181 239 313 228 165
61 6 47 35 71 92 88 40 128 148 145 175 206 161 166 137 95 88 82 71 134 192 247 213 108 341 347 238 78 138 144 197 213 196 252 209 192 214 230 194 163 121 124 60 85 71 124 121 143
65 41 9 40 56 87 49 116 125 217 125 83 116 112 82 63 67 99 106 98 152 254 373 610 249 239 195 97 43 156 210 235 221 197 172 173 185 196 220 183 161 136 153 122 111 94 133 45 42
29 54 17 79 103 -50 95 56 41 99 101 86 48 30 56 52 61 80 111 109 126 267 444 504 558 182 102 47 144 195 372 223 200 158 164 198 191 163 181 183 128 105 148 161 162 120 101 49 79

GFSSGP_con_3kmhel_105.txt.gz
Helicity
54 38 68 94 148 162 116 34 27 89 21 112 146 162 136 29 32 75 100 167 127 72 25 25 99 123 90 63 52 58 67 74 76 63 58 58 48 46 55 66 62 59 59 63 81 89 87 69 80
36 57 117 143 174 173 75 7 -96 -30 117 200 228 169 200 82 38 65 214 85 111 46 5 30 90 129 94 69 54 55 65 71 72 59 42 34 35 36 44 55 59 63 44 44 57 67 62 65 79
41 82 175 148 159 113 92 -47 -15 -26 71 124 137 134 160 149 99 77 136 93 89 51 32 34 86 122 109 79 67 64 64 68 60 48 29 26 30 39 35 47 41 56 76 68 45 43 49 66 57
70 155 166 214 126 71 79 53 127 3 51 93 112 141 124 103 178 197 173 134 90 53 60 55 81 91 87 80 73 68 67 63 50 43 31 24 27 21 33 36 142 166 162 205 133 73 51 30 31
122 176 198 206 125 81 -6 6 160 19 -22 82 99 115 151 168 205 221 229 203 201 148 101 74 76 69 79 78 75 69 71 70 53 41 33 24 34 27 35 131 152 186 141 195 84 109 84 46 20
230 190 221 188 127 76 42 28 72 43 41 90 132 117 73 175 252 236 313 310 240 176 119 87 82 72 78 76 78 76 82 92 66 36 31 25 35 39 96 132 149 144 102 150 98 104 80 15 19
194 194 172 142 136 75 36 8 14 56 28 123 90 115 68 148 185 243 337 343 288 194 136 105 80 81 81 78 74 82 89 100 80 47 28 35 39 44 60 120 123 105 120 132 87 100 18 -18 57
138 159 118 101 150 100 34 -32 -9 -6 157 163 164 114 118 212 264 410 451 354 287 210 140 107 89 98 89 67 77 88 96 104 87 61 38 33 42 56 72 114 108 86 89 101 54 57 67 82 126
91 182 130 112 169 133 70 -1 12 6 158 178 175 105 158 261 269 378 415 357 294 192 149 119 101 90 92 70 57 89 99 94 95 78 61 68 81 86 105 113 123 98 88 105 93 82 45 48 55
177 218 65 234 134 95 39 16 4 21 109 174 182 246 221 251 283 335 365 341 265 206 172 135 99 92 116 78 64 87 80 81 82 89 101 89 110 113 131 118 137 127 124 134 100 68 56 74 7
143 139 95 120 123 52 23 17 9 -20 86 164 118 222 256 260 242 223 254 263 214 193 187 153 117 98 139 128 86 84 74 74 74 96 119 119 125 160 150 167 192 175 180 144 122 100 77 71 98
116 68 103 83 78 43 53 12 20 -61 6 84 138 201 233 199 203 163 161 218 256 206 201 186 136 109 148 176 129 86 80 82 86 91 128 154 157 193 186 188 190 183 159 152 138 119 86 88 88
110 55 46 51 75 100 41 54 39 -25 33 64 121 140 158 190 209 175 117 208 250 254 218 193 143 114 127 199 145 110 86 79 90 117 124 153 163 176 199 192 174 159 164 157 161 141 115 105 97
144 96 73 51 73 90 101 89 17 -15 22 64 111 120 88 139 158 161 142 70 215 286 266 240 192 148 147 196 163 141 129 112 123 139 143 161 191 180 186 195 170 161 172 158 164 157 150 140 107
150 148 131 118 57 72 62 123 84 45 11 70 81 121 160 82 109 127 94 134 89 264 312 338 265 180 159 210 194 224 201 197 185 177 176 155 199 209 193 181 200 175 147 135 163 180 194 133 74
279 254 247 114 132 75 92 144 84 48 56 75 111 122 126 147 89 109 127 146 122 123 351 332 297 236 214 242 264 244 226 211 191 171 165 162 196 227 240 210 219 178 159 156 194 187 205 133 123
257 322 317 212 148 168 125 166 111 51 86 96 94 114 140 161 149 95 145 143 122 134 279 346 320 316 258 278 258 269 229 196 187 179 164 149 183 230 252 245 202 204 224 235 237 199 187 191 158
268 324 216 224 206 117 105 83 97 149 99 53 46 58 82 151 138 89 54 105 146 116 242 344 366 358 318 285 293 251 217 195 229 208 189 157 149 183 231 243 223 246 298 238 224 211 174 163 156
116 196 119 117 84 121 172 133 83 109 31 97 118 58 33 208 175 86 101 112 119 142 206 308 378 330 367 284 347 306 282 232 257 232 221 198 178 178 193 214 224 251 298 235 206 220 202 183 171
85 120 121 77 3 75 128 165 93 203 96 55 36 21 42 166 68 79 105 128 168 144 126 285 363 348 294 268 298 356 356 296 227 251 208 216 227 203 191 236 228 249 253 236 231 247 242 221 205
3 75 72 37 -18 9 32 -5 -26 55 21 6 53 41 71 149 121 217 245 283 269 260 163 169 243 266 287 285 354 434 399 282 232 187 186 267 241 220 245 275 268 253 224 226 230 277 301 272 194
30 18 17 22 74 58 44 58 17 37 77 110 27 69 128 257 345 339 349 375 386 428 437 427 166 231 269 345 378 376 377 285 239 205 188 181 175 254 304 304 272 241 220 240 261 282 307 342 192
-7 33 30 92 129 120 24 57 84 214 230 190 44 221 409 541 434 484 435 422 402 419 377 434 437 168 279 303 309 349 320 223 250 220 163 164 205 331 369 330 276 241 232 233 259 282 280 472 211
67 10 40 153 156 87 47 -28 -9 182 189 114 441 498 335 276 284 396 418 389 389 390 340 352 401 425 305 308 341 323 307 260 238 188 160 217 296 369 354 303 246 220 229 230 193 284 410 220 289
40 99 46 85 117 72 -83 -63 39 96 196 189 227 329 409 305 222 317 348 321 254 166 164 158 210 352 377 258 373 339 292 283 228 220 167 248 291 286 273 248 175 178 196 197 202 361 213 213 246
85 92 60 15 68 36 -13 32 114 162 140 419 521 508 552 448 263 193 147 173 192 162 116 142 115 152 311 273 350 340 278 285 236 194 212 239 255 246 276 218 146 142 148 160 133 138 208 231 270
48 0 31 12 14 45 78 97 157 278 360 417 389 346 298 134 108 129 140 145 141 128 120 83 94 18 155 230 272 327 275 211 259 242 253 257 243 247 249 200 167 139 169 118 117 123 133 233 237
-19 38 -41 9 -49 7 27 42 140 268 174 240 411 232 142 148 148 130 118 142 154 132 132 176 184 103 110 147 299 324 262 264 262 301 315 248 253 217 201 189 183 150 183 133 169 117 132 207 242
95 70 45 -17 -96 124 -21 107 216 190 94 100 139 139 147 117 160 167 162 176 196 165 149 248 380 488 398 187 234 256 249 229 249 327 301 220 203 187 181 183 170 137 143 146 153 158 263 317 245
122 1 21 -52 -6 -18 180 118 58 36 57 86 56 107 107 91 106 121 132 171 227 204 160 262 395 442 448 332 128 135 175 225 288 325 273 162 162 152 148 180 173 121 136 139 88 120 75 89 142

GFSSGP_con_3kmhel_108.txt.gz
Helicity
48 63 92 141 174 209 139 66 77 36 77 38 43 56 119 168 179 247 68 92 103 78 17 -0 29 56 108 138 121 95 96 104 106 114 107 96 93 93 67 55 54 53 66 67 74 68 61 69 73
60 82 126 176 233 251 134 102 2 53 119 83 3 98 145 176 130 130 99 99 47 86 29 -5 19 61 93 105 90 75 90 102 104 106 92 79 72 75 58 55 36 52 58 60 57 77 80 60 62
70 93 165 205 259 238 154 118 63 60 3 30 7 79 102 72 133 108 50 62 71 98 41 1 19 58 87 101 81 69 86 98 102 94 79 65 58 61 64 50 96 114 108 96 97 67 67 64 53
135 167 185 240 210 124 155 72 65 34 50 65 21 68 133 89 82 89 113 76 157 97 52 25 23 68 95 98 81 68 90 94 90 87 77 59 50 59 56 119 125 122 118 108 97 91 70 84 47
165 211 194 231 161 160 108 -2 46 68 126 48 64 69 126 212 159 191 142 165 209 113 102 52 44 73 93 101 78 60 84 91 82 75 73 65 51 53 114 112 116 106 98 82 99 150 138 80 70
251 228 250 202 155 167 83 22 44 37 73 64 75 93 162 195 272 176 173 159 196 167 155 79 60 81 72 86 86 74 77 80 82 70 71 66 53 79 124 135 136 125 104 95 85 84 62 43 71
238 269 265 130 160 117 85 42 28 26 93 91 72 140 204 283 244 194 210 239 219 205 214 148 100 82 53 76 93 84 84 82 75 72 68 66 63 112 135 133 131 84 55 67 88 70 70 67 114
221 229 239 251 219 50 37 4 14 11 105 91 134 159 248 161 307 359 357 330 250 212 209 162 141 107 65 62 92 95 88 92 93 79 69 72 72 110 128 112 71 94 88 63 50 55 49 106 132
217 314 207 304 239 192 122 63 -11 7 38 89 79 185 184 379 430 449 398 383 249 190 196 174 151 110 85 75 82 102 91 85 95 90 80 95 87 105 109 100 101 85 77 54 44 30 58 82 103
284 295 182 301 212 178 86 45 -2 -5 9 31 63 157 253 392 423 436 412 349 278 227 184 161 144 123 106 91 98 101 93 84 91 95 99 105 118 121 96 101 98 79 67 60 56 48 45 36 52
266 223 287 187 174 141 92 85 25 -5 7 17 87 201 235 378 413 410 344 282 224 202 194 160 146 128 132 103 105 99 92 92 101 112 127 129 141 153 144 113 124 113 99 97 113 79 28 1 27
235 165 200 134 146 144 121 67 56 31 -22 18 14 68 312 397 414 367 356 283 296 240 204 193 179 158 136 121 102 104 106 94 113 124 162 187 170 173 181 165 142 141 130 127 117 70 50 38 39
212 166 117 103 123 99 80 82 71 56 -51 -22 31 -21 155 315 306 284 250 209 216 218 216 226 209 206 163 130 102 115 97 102 106 144 167 210 197 167 185 192 171 161 155 130 116 91 69 54 60
306 221 150 140 117 120 122 101 91 51 -15 -52 -9 36 81 224 251 279 246 212 254 190 187 231 199 160 192 163 140 122 117 95 113 132 155 202 212 200 176 192 186 169 153 144 141 106 96 82 77
279 289 196 114 120 177 142 120 101 36 39 25 11 6 61 62 118 194 220 184 175 166 197 242 215 183 191 200 175 158 139 121 114 128 150 180 215 205 212 198 196 167 158 161 174 163 132 126 94
378 396 420 212 169 148 185 164 65 34 82 25 46 54 67 53 78 112 116 182 150 183 225 234 238 246 207 220 187 191 173 160 140 165 165 167 195 198 209 211 195 179 188 188 195 179 142 128 115
281 432 382 306 190 156 250 212 56 43 40 72 89 92 70 71 94 82 109 114 192 211 245 281 284 287 254 216 244 245 217 203 179 205 221 156 176 212 216 202 187 196 204 224 208 185 163 157 115
217 216 175 190 110 106 167 211 94 90 90 67 89 94 84 86 90 140 117 143 138 221 253 283 320 328 313 311 331 305 256 237 231 227 236 204 159 190 214 217 197 223 249 240 213 189 187 162 114
72 70 129 126 54 146 101 114 175 141 104 78 87 112 133 120 114 124 132 169 190 246 252 281 321 346 447 423 399 315 250 275 259 239 229 197 163 180 210 232 243 254 272 275 255 238 191 160 195
20 27 47 82 62 49 126 154 52 55 98 118 101 123 101 138 132 60 96 133 114 58 179 303 315 384 459 386 364 327 303 244 262 247 223 195 181 169 190 228 247 271 293 310 296 273 250 196 211
-37 -3 56 41 78 19 46 79 92 8 42 65 89 69 43 52 6 137 198 251 323 256 228 235 265 302 404 370 439 430 374 339 291 248 249 240 225 201 193 213 226 247 268 281 293 271 253 270 236
-7 16 -21 -28 67 -6 25 51 39 51 33 49 55 20 67 163 338 537 555 523 637 603 593 488 214 179 237 295 354 386 370 350 269 299 322 254 223 207 209 225 230 239 226 230 202 209 235 288 255
71 91 120 33 45 -15 35 24 41 82 44 18 35 184 370 393 577 524 586 686 692 658 689 561 520 464 332 172 237 320 273 239 294 318 289 265 231 208 220 250 240 238 236 216 176 171 216 300 314
44 54 22 51 56 -4 8 47 -33 9 33 32 338 494 538 514 468 487 315 398 450 414 434 486 509 469 456 399 208 233 260 270 309 280 284 227 148 203 194 245 259 247 232 231 181 166 216 303 265
-5 6 16 3 1 -40 -7 30 44 -9 98 330 378 553 568 495 557 541 417 301 368 388 355 301 304 348 378 346 313 206 225 267 299 313 284 241 186 197 197 250 287 271 242 204 182 195 218 226 280
-21 31 4 19 49 30 10 -21 -40 265 472 396 545 477 494 398 386 376 352 296 308 306 229 175 160 231 205 254 212 201 226 284 299 323 307 227 198 223 246 271 273 253 220 198 167 195 182 176 273
25 26 -18 -4 18 27 18 15 229 394 371 417 365 528 591 409 332 368 296 201 171 155 166 127 108 113 143 222 185 175 208 311 321 306 336 235 196 241 262 242 217 206 150 143 139 139 118 233 178
27 -16 -12 -21 -16 27 5 54 -3 355 408 216 400 502 468 405 380 335 276 261 241 202 215 224 156 156 209 321 199 220 236 308 306 356 316 250 195 199 237 223 206 182 148 124 114 78 142 157 165
11 13 -11 -59 -98 -93 48 60 158 68 271 189 128 457 380 265 223 246 254 264 251 256 316 314 223 230 293 330 366 212 228 240 264 255 267 287 222 202 195 192 192 173 145 138 115 109 149 225 214
-18 -4 -24 -92 -74 -40 -13 178 164 73 102 213 165 57 24 83 160 197 210 228 257 259 285 297 257 275 326 341 440 242 177 156 203 267 281 307 251 203 169 165 179 173 144 145 99 100 126 147 139

GFSSGP_con_3kmhel_111.txt.gz
Helicity
65 98 107 142 191 258 168 68 108 84 67 38 52 38 -6 38 86 142 122 115 148 103 10 -10 22 56 79 132 180 190 193 187 188 183 168 155 148 144 142 123 96 85 87 81 72 77 72 75 87
82 99 157 168 252 287 163 116 91 83 45 62 111 75 18 34 105 100 160 66 81 69 9 5 40 49 55 111 153 167 170 174 171 169 161 155 132 125 127 95 84 83 89 79 76 66 66 78 96
102 142 179 181 260 311 188 80 88 49 33 50 113 19 23 36 78 83 80 85 93 45 28 35 56 40 34 91 131 146 147 159 161 164 151 142 121 113 101 93 94 89 88 95 86 83 85 72 92
160 206 226 271 261 180 124 115 56 59 48 38 58 143 40 28 56 73 115 110 83 42 51 76 65 39 30 67 115 129 138 134 139 152 135 130 117 104 116 109 90 86 82 80 78 91 88 80 101
216 247 255 287 262 273 144 40 26 49 60 63 62 113 87 54 141 154 152 119 142 119 104 90 71 42 23 60 106 109 123 121 115 128 121 119 110 122 117 104 97 89 82 76 86 92 94 64 91
265 260 291 242 225 228 161 30 21 18 20 -12 83 141 78 107 203 191 201 142 151 165 113 92 66 53 19 61 90 89 99 98 104 122 119 118 117 121 101 95 91 85 80 78 80 99 81 95 128
248 296 306 244 191 175 120 56 47 18 17 42 77 217 137 89 159 236 186 187 173 208 172 103 86 53 32 60 75 77 75 82 97 114 105 113 133 121 107 99 94 83 70 51 81 126 100 91 103
199 231 279 291 223 101 132 52 66 41 23 56 13 137 141 108 245 312 264 235 255 231 180 142 127 92 60 53 66 71 65 77 94 104 98 101 126 128 122 100 84 73 66 42 103 105 92 115 103
168 268 138 303 274 323 259 139 84 46 26 15 23 108 64 243 406 404 326 286 315 227 183 153 156 137 103 90 56 72 78 78 86 107 100 113 117 111 105 108 100 81 53 57 99 81 91 109 139
238 269 219 205 208 156 127 93 82 -6 -17 -34 -52 20 24 381 401 382 306 248 290 231 171 177 164 172 155 118 81 73 84 85 87 101 115 123 134 113 94 77 72 51 43 50 60 58 74 117 139
228 212 219 131 114 137 149 146 91 50 12 -18 15 33 45 157 328 290 267 256 267 227 206 167 189 193 191 147 101 87 91 93 91 112 132 127 156 131 97 78 58 44 41 42 70 89 80 94 122
202 173 186 155 108 112 96 85 97 69 -97 27 51 60 52 177 85 268 258 247 326 299 164 173 188 210 192 188 134 104 100 98 99 106 152 173 173 175 130 116 88 64 54 55 85 111 93 93 89
203 162 124 118 105 96 71 51 61 40 -22 -49 -33 35 31 99 152 68 237 276 329 245 182 163 197 236 229 217 179 136 102 102 95 119 152 188 188 179 157 120 113 89 66 68 72 101 105 109 103
245 241 202 165 167 139 130 64 114 -32 30 12 26 38 45 87 172 125 215 278 270 202 180 206 195 251 236 196 197 151 128 110 115 114 138 172 188 193 177 149 125 115 103 96 89 90 106 122 116
234 375 284 205 154 162 228 195 183 81 50 30 50 77 51 99 160 236 156 255 236 220 217 198 196 213 250 173 182 175 152 141 130 112 132 160 189 200 196 164 137 120 129 127 108 109 122 144 145
267 281 319 191 195 217 243 263 66 94 93 68 34 85 77 89 114 240 164 205 198 206 214 192 185 222 218 178 165 184 183 174 153 146 129 146 166 193 207 183 149 148 156 151 136 154 141 107 135
257 229 200 183 74 39 80 207 106 129 112 107 51 29 64 72 112 97 156 178 177 161 172 171 199 225 243 217 193 197 199 189 189 166 151 146 158 180 203 181 164 186 183 176 156 155 157 146 118
261 253 199 211 121 78 91 81 67 36 103 156 94 54 75 90 121 95 93 153 155 162 156 178 236 246 279 279 295 242 227 212 201 181 172 178 175 177 197 183 174 204 208 201 193 183 167 148 119
104 89 73 65 14 59 95 97 102 71 62 112 74 41 123 132 137 117 108 122 174 137 183 260 286 267 352 361 327 278 201 225 202 206 208 202 226 212 210 198 178 195 202 205 208 197 189 177 168
89 120 124 67 120 16 -12 59 109 108 57 106 117 80 56 135 121 116 243 271 271 235 185 165 221 337 336 352 321 327 316 258 239 257 222 201 231 238 243 227 199 195 203 208 218 237 216 180 176
136 118 104 102 44 -15 20 33 43 84 73 62 61 127 50 112 122 156 181 346 408 454 456 283 207 260 265 282 343 431 441 344 306 213 216 219 236 257 249 238 234 227 229 224 239 253 241 232 189
98 105 115 48 38 -10 32 48 -33 95 172 77 19 108 219 211 309 362 460 529 464 448 429 505 399 224 246 271 278 345 365 325 237 236 262 211 226 244 232 231 248 242 235 231 261 278 302 278 219
88 53 91 129 84 22 38 64 -140 52 68 153 194 297 336 401 438 490 529 598 707 625 532 572 522 413 459 255 190 242 246 265 275 258 220 230 200 224 229 216 222 229 231 224 267 266 288 271 220
80 41 94 113 30 3 19 -17 17 80 35 136 286 495 460 464 517 602 586 565 713 545 566 575 584 457 406 419 343 189 211 231 265 251 263 247 247 236 224 237 248 233 205 228 219 232 228 228 202
15 -13 -14 38 129 133 -14 -9 85 -5 104 185 264 415 587 572 486 560 577 632 639 633 637 584 590 521 440 419 357 312 215 221 206 288 326 311 299 301 265 256 240 243 222 222 237 263 219 195 192
4 -1 45 -42 31 21 5 10 -12 149 228 286 293 357 473 588 639 524 484 440 491 485 505 491 452 491 365 290 302 294 244 219 226 235 279 301 277 266 305 262 242 203 215 232 244 238 218 190 180
-19 -13 36 58 176 16 -5 34 181 183 306 251 497 518 609 639 642 587 306 360 315 249 227 246 278 304 298 256 231 213 154 179 212 228 264 284 281 291 277 223 201 208 209 228 230 208 188 178 135
-21 -37 -26 16 -24 40 20 -30 2 134 358 430 300 733 693 617 558 463 386 315 254 243 161 142 141 122 170 247 260 199 142 155 173 199 233 299 300 299 264 249 202 193 208 213 205 181 157 141 94
-21 -47 -49 -35 -53 -49 -63 -46 11 40 43 171 224 155 797 573 518 496 342 287 236 288 252 128 206 254 255 227 276 370 291 189 217 259 265 299 299 312 254 204 189 183 186 203 180 148 131 126 86
-47 -10 -35 -27 -19 -15 -13 -32 29 19 32 49 174 155 206 457 342 382 286 236 275 223 299 308 354 363 366 376 394 425 494 524 293 245 235 264 234 236 220 205 183 198 175 184 163 149 144 130 108

GFSSGP_con_3kmhel_114.txt.gz
Helicity
76 90 102 140 178 246 163 51 74 57 37 28 63 90 87 65 69 45 19 127 134 147 86 73 72 73 103 151 188 209 222 203 193 206 217 210 191 183 167 153 152 127 97 104 92 79 78 80 89
81 100 165 177 212 288 165 69 70 36 40 40 54 60 30 45 44 42 93 65 90 146 89 65 68 67 91 135 156 185 214 204 190 194 203 202 211 203 176 152 139 110 105 102 83 77 78 97 90
104 150 179 196 274 301 178 123 13 28 31 66 76 45 74 44 15 44 80 87 125 180 102 66 63 61 91 116 125 160 198 202 198 198 189 189 192 170 139 132 109 96 100 84 75 77 89 105 106
133 185 224 281 287 204 136 142 129 75 38 25 43 122 85 9 15 52 78 122 145 133 91 62 56 65 89 100 102 131 175 191 188 187 178 168 156 149 124 99 75 78 75 65 67 80 100 118 120
203 224 237 297 277 300 160 84 33 21 12 61 44 61 95 50 60 83 116 165 179 133 83 40 68 73 84 81 83 107 152 169 167 174 166 146 138 126 94 79 70 64 67 76 80 83 93 105 105
227 237 294 275 265 204 167 65 46 57 40 35 10 78 33 83 138 91 172 204 164 146 78 54 53 69 85 73 68 81 129 147 146 162 159 134 127 108 87 82 78 70 80 94 80 87 108 116 105
186 234 230 220 161 149 129 55 69 17 13 30 6 63 48 106 115 149 213 238 188 161 122 80 57 53 55 72 58 71 102 126 130 137 148 125 112 98 88 78 89 78 81 88 94 105 123 114 118
184 197 239 195 145 48 116 124 84 44 -15 37 5 84 117 50 73 139 295 232 220 177 141 117 78 83 46 23 41 62 81 102 114 116 129 124 107 95 76 69 75 83 87 106 106 113 98 95 118
155 244 210 165 139 102 57 72 38 44 39 6 15 49 29 28 158 216 295 230 188 176 140 129 112 71 73 17 25 64 75 82 98 101 126 126 98 100 79 68 83 85 102 98 109 113 98 96 104
206 213 197 170 157 90 90 70 69 39 22 9 -12 1 48 -45 63 193 172 224 202 198 173 137 132 89 99 67 41 60 65 61 77 99 136 120 102 98 80 63 81 86 102 79 106 104 102 112 134
209 262 223 171 136 103 76 88 90 67 -18 -25 -8 38 64 72 45 151 70 111 242 254 226 148 161 129 113 111 86 71 72 70 70 97 143 130 115 104 101 77 81 69 71 87 97 79 75 94 137
206 197 183 172 127 105 87 113 105 92 55 8 10 -0 15 42 76 184 10 46 99 242 202 212 175 141 149 134 127 91 93 85 80 80 133 156 130 111 117 89 78 71 67 113 101 69 71 83 100
150 138 113 177 213 162 150 108 81 27 56 5 -13 2 15 53 92 137 110 19 81 91 225 176 190 154 163 180 161 128 100 96 83 102 111 150 136 117 127 100 87 69 60 73 84 95 94 84 97
196 133 116 128 145 83 106 116 122 157 134 129 38 -6 27 26 89 96 147 59 103 95 85 173 172 175 188 217 195 164 136 110 107 99 101 136 141 138 125 116 95 70 65 69 86 107 104 84 94
120 153 161 160 51 24 82 62 139 49 91 140 98 10 20 61 58 103 103 168 148 136 136 143 177 202 204 213 215 203 164 143 117 105 100 134 146 154 128 120 118 97 75 84 107 130 126 127 129
202 208 127 55 115 139 89 145 -26 -69 -7 54 139 70 16 39 86 115 113 120 163 153 214 157 215 179 207 219 235 207 166 176 142 130 110 126 143 161 150 119 103 112 108 111 125 149 149 138 139
229 177 148 84 42 67 98 153 113 6 -23 -8 98 150 45 63 92 111 139 89 205 188 197 191 222 202 209 184 208 190 160 179 179 139 127 123 144 163 162 128 121 133 127 135 139 142 168 164 140
250 245 194 117 14 60 89 108 36 58 -5 74 80 130 58 72 119 117 122 119 215 218 176 169 236 210 201 204 170 160 166 156 196 153 138 145 145 158 169 158 163 157 151 151 160 148 147 148 150
142 159 125 79 44 63 71 72 26 26 8 43 96 123 157 52 117 66 59 108 172 237 127 164 234 215 216 213 190 179 174 210 164 193 169 163 165 165 165 159 174 171 177 170 161 152 150 147 174
157 137 113 64 56 70 66 51 54 83 90 39 64 122 183 94 66 54 191 249 238 238 197 173 113 183 185 200 201 220 195 157 200 206 226 168 176 186 187 182 174 168 178 168 169 191 198 175 222
118 139 93 114 94 111 85 89 77 138 54 74 41 73 94 147 191 152 220 280 358 303 301 267 118 143 176 204 285 314 305 283 262 192 199 195 189 194 196 198 201 198 192 194 201 197 207 238 239
97 157 126 108 115 143 140 92 16 20 53 34 68 143 268 329 345 306 294 311 378 420 410 391 395 242 164 190 224 230 248 267 223 233 226 226 253 204 205 214 215 206 206 212 218 237 230 230 265
122 15 39 62 128 131 277 146 89 49 34 84 207 270 330 377 389 452 432 372 374 418 452 460 431 469 447 414 205 248 245 240 250 283 223 240 198 203 200 232 233 222 213 213 221 244 242 257 253
26 44 74 105 155 292 226 198 4 -62 -18 47 109 241 355 362 358 379 430 432 453 460 491 524 447 487 435 410 425 309 213 215 253 235 228 211 226 227 212 226 234 209 203 217 220 208 227 254 247
3 19 17 86 127 99 43 131 46 13 5 71 107 185 283 383 391 391 436 512 508 540 598 609 621 551 499 453 417 353 331 171 189 247 233 244 259 265 267 250 250 254 238 226 235 236 241 272 269
42 34 171 245 369 360 71 26 -9 14 114 120 170 202 231 364 465 446 449 498 534 550 565 546 530 527 527 410 372 290 244 203 150 192 235 266 244 245 222 242 241 223 225 228 233 223 225 254 266
-63 66 8 122 100 152 19 22 -7 80 125 244 229 391 362 358 461 526 470 503 518 537 530 510 464 415 394 372 329 305 251 185 152 152 202 210 224 251 273 224 261 248 228 228 240 215 228 255 251
-62 -86 -59 -53 -25 -15 -68 -80 -26 10 108 195 372 412 633 531 489 530 554 478 480 555 507 416 372 325 307 279 255 239 221 192 123 163 150 193 219 255 283 255 239 239 214 258 245 202 234 235 240
-64 -49 -42 -21 -41 3 -22 -64 -21 -1 24 62 97 174 351 615 587 546 508 450 237 287 367 322 299 290 296 267 243 207 193 220 204 148 131 146 178 191 213 254 271 259 226 287 230 220 230 197 195
63 -59 -56 -14 -1 60 -54 -41 -6 16 3 13 74 111 157 400 475 562 531 596 420 394 316 294 328 288 241 196 151 179 244 313 359 402 445 212 225 225 193 243 267 259 244 239 220 224 200 169 154

GFSSGP_con_3kmhel_117.txt.gz
Helicity
63 62 67 113 108 143 82 41 74 32 40 28 45 68 89 38 83 95 26 66 65 166 177 165 160 171 158 134 139 146 142 146 156 170 165 174 184 172 152 133 138 129 99 89 80 74 62 64 79
76 79 114 139 167 192 137 108 117 37 43 33 8 40 64 87 22 23 -1 81 76 142 151 145 170 187 172 145 138 132 139 145 156 184 196 210 198 185 164 144 131 122 102 91 84 84 77 79 87
90 110 119 157 222 171 124 88 37 44 63 56 58 30 49 78 49 41 23 89 76 108 132 110 163 178 165 146 143 144 138 150 163 198 210 209 182 162 153 128 115 106 93 74 70 70 67 80 82
121 135 169 203 211 132 94 108 11 49 -3 40 66 93 64 17 38 23 4 68 71 98 108 104 155 167 154 145 138 149 137 148 167 196 204 183 163 147 124 101 89 80 62 55 53 70 82 101 105
150 179 172 231 196 182 104 61 25 21 39 19 30 25 58 50 36 93 9 32 60 99 88 96 148 148 124 131 140 146 130 141 162 184 179 154 145 120 95 72 66 53 46 56 78 88 92 89 106
151 177 198 160 127 114 108 39 58 15 -6 11 9 6 -14 32 37 63 4 45 77 73 85 84 98 99 89 113 126 118 114 130 159 168 161 137 125 100 71 59 49 45 58 76 82 82 84 99 107
156 160 162 157 128 131 106 75 39 17 -31 -14 -2 60 33 65 56 33 90 45 114 89 80 92 64 54 67 86 114 105 92 105 140 153 137 120 101 88 65 62 51 56 64 71 74 83 93 104 102
157 153 164 152 110 84 102 76 61 29 6 -45 -19 31 96 74 -3 21 62 52 108 125 84 103 82 63 42 48 64 91 73 76 113 131 118 103 83 72 69 72 71 71 64 70 74 78 84 84 91
137 174 154 132 86 62 56 102 49 46 55 59 66 70 61 -14 -54 -14 56 50 119 118 115 105 90 65 59 55 40 57 61 57 74 99 100 106 65 52 57 58 84 85 78 79 83 76 75 75 74
125 193 137 104 89 158 182 167 128 54 59 52 66 69 100 139 66 55 107 54 78 80 146 107 94 72 91 71 51 29 32 52 50 64 73 60 65 55 50 54 88 105 96 90 89 94 80 68 50
187 204 159 190 233 227 144 105 125 95 4 49 67 130 176 149 140 99 98 105 -13 83 131 101 68 102 110 94 85 45 26 47 63 53 67 54 54 73 68 59 77 109 122 96 76 100 77 52 58
149 142 162 145 128 113 91 86 82 78 67 -11 -19 -18 -11 75 74 112 116 119 62 -5 72 95 58 88 141 128 103 76 56 42 68 60 52 63 73 75 83 71 77 118 124 95 73 78 69 66 51
100 99 106 150 154 138 98 72 38 47 16 69 36 -24 -37 2 63 71 107 90 108 -2 49 79 102 81 128 147 118 113 88 59 37 81 62 53 70 79 87 81 83 93 104 81 82 85 61 67 67
99 78 94 104 118 102 71 71 105 160 133 44 49 47 14 -39 16 111 95 82 101 79 24 83 91 107 125 152 137 127 123 80 71 69 99 69 60 81 90 89 76 68 95 84 65 69 60 66 78
73 67 88 87 57 38 -5 62 53 50 62 108 98 75 12 -41 -27 61 98 114 111 105 80 99 99 105 122 134 149 152 135 116 87 64 101 89 68 72 93 92 82 65 80 86 82 77 76 96 96
91 69 29 76 114 -12 38 39 75 103 66 102 109 93 106 27 -19 17 97 111 128 136 86 108 155 122 113 127 156 161 151 132 108 84 88 98 81 65 84 93 72 80 108 103 113 121 118 107 107
31 30 25 35 40 49 68 134 96 78 77 68 54 51 36 78 42 -5 55 131 139 138 88 130 137 170 134 128 119 132 136 147 131 106 81 99 100 79 77 84 90 108 102 105 128 152 144 137 109
79 46 38 4 96 99 112 106 84 41 34 30 22 12 27 23 102 14 103 95 141 135 128 146 185 162 186 191 139 122 120 123 120 98 81 84 123 120 85 85 102 118 115 113 128 146 143 126 110
-0 8 -25 2 -18 45 28 27 17 26 19 -4 47 28 51 55 80 96 65 62 51 56 66 65 142 161 228 237 184 115 107 104 95 69 66 86 114 132 130 112 105 126 131 131 147 163 155 153 149
-33 -7 -37 27 -20 41 20 35 37 17 24 32 15 30 48 56 28 95 88 113 82 99 136 57 61 151 204 238 217 164 162 108 85 93 84 85 108 133 147 167 126 136 142 142 165 210 223 177 189
2 23 -4 39 19 61 74 109 81 70 45 54 54 77 58 111 85 76 172 196 153 164 239 311 174 127 171 175 233 176 138 142 124 102 114 98 107 116 127 165 164 149 162 159 172 192 209 234 227
57 70 83 78 104 149 190 241 101 5 -45 -92 -10 33 172 187 150 170 171 238 233 253 263 330 348 168 113 201 199 188 185 175 138 134 154 150 123 130 132 147 154 167 177 187 197 197 200 221 242
87 151 90 96 159 122 62 253 138 -15 -39 -60 54 104 38 127 179 167 217 205 314 299 327 297 304 373 407 280 150 185 159 157 126 172 164 179 186 179 138 144 161 184 182 176 219 208 189 182 190
74 71 22 73 31 240 216 164 162 -23 -84 -25 78 10 30 113 134 145 211 262 254 339 347 352 328 367 380 373 317 230 140 154 162 153 190 173 210 208 138 167 194 188 184 194 202 188 182 189 191
50 31 12 21 46 57 261 140 188 -29 -10 -15 14 64 33 92 159 203 203 312 345 376 398 354 379 352 378 367 328 312 337 286 169 163 188 188 185 213 158 235 245 211 213 217 213 192 185 185 204
44 32 68 4 -13 -9 7 15 172 1 61 66 58 106 199 190 199 241 221 272 361 398 390 376 375 373 378 375 341 299 266 256 272 173 169 170 177 194 190 158 215 224 224 212 201 212 213 209 196
71 56 86 -53 25 -8 194 158 160 -53 15 55 132 122 329 317 328 325 310 268 291 358 431 411 412 406 402 370 348 321 297 289 258 224 194 154 134 165 182 204 185 201 218 224 224 218 223 250 229
124 75 5 137 -23 10 59 203 -43 -42 -18 7 89 223 325 393 553 498 449 378 320 336 380 413 418 401 418 419 390 345 304 251 210 129 143 144 128 110 136 177 173 194 201 227 226 233 213 257 281
45 10 4 -46 113 -14 -0 -5 32 32 -20 19 45 110 225 467 506 639 561 463 404 389 402 401 428 426 405 393 374 332 287 270 229 214 224 247 126 149 150 154 178 202 204 212 237 230 248 267 265
56 -6 44 -8 9 12 38 42 50 45 39 3 26 66 166 214 526 509 570 502 529 507 450 485 409 385 352 293 256 239 238 221 178 188 211 220 227 121 168 165 152 186 214 202 231 224 272 242 241

GFSSGP_con_3kmhel_120.txt.gz
Helicity
40 32 21 25 46 68 72 61 55 16 36 51 55 40 77 68 84 134 2 -16 64 121 149 139 148 154 160 165 151 125 118 114 120 128 135 143 145 145 117 111 112 95 79 77 59 54 52 53 62
62 50 33 74 86 87 59 64 38 74 81 50 23 23 19 83 57 24 39 -22 34 73 117 125 135 164 170 175 155 123 114 120 126 148 149 155 156 140 123 113 107 88 74 77 66 56 50 63 70
44 34 63 100 102 85 81 145 89 55 73 75 66 69 98 86 102 56 27 -16 23 80 86 99 140 171 162 175 148 116 116 122 130 143 146 148 153 137 125 109 92 71 63 67 58 51 52 63 73
61 72 103 111 90 91 119 102 25 9 37 17 22 102 72 52 63 57 -12 -34 9 54 53 110 122 164 163 162 142 114 119 124 144 144 142 141 140 129 117 96 80 57 48 44 42 56 59 63 76
53 104 100 94 89 125 74 44 40 31 43 51 61 38 50 46 66 83 31 -23 -6 43 46 38 92 152 151 152 132 114 114 124 148 143 142 140 132 118 103 78 59 42 35 37 48 55 63 57 75
60 114 92 77 57 97 51 35 60 47 41 15 26 51 38 45 124 114 70 24 -9 24 51 53 80 117 137 139 127 108 114 130 129 124 122 125 117 103 83 66 47 41 44 43 47 50 61 61 74
51 74 67 77 60 67 31 39 48 46 46 52 107 49 60 96 78 54 69 57 -9 27 48 55 72 83 112 123 113 100 110 122 111 108 105 94 95 81 70 58 48 46 55 53 48 51 56 72 70
79 102 71 72 50 49 79 57 46 58 75 102 57 73 146 150 151 56 13 44 16 26 57 50 65 73 67 66 75 81 91 111 92 77 88 69 71 66 60 53 46 54 56 56 60 56 59 71 72
71 114 95 80 82 70 122 92 72 117 70 55 81 100 186 193 111 108 84 27 33 40 44 73 64 81 70 56 46 44 72 97 81 60 68 66 29 38 52 33 66 58 60 56 58 63 67 71 60
72 102 105 183 125 130 196 107 88 49 56 53 60 100 167 164 138 125 163 138 88 49 46 65 75 75 96 76 45 23 35 42 45 35 44 39 20 30 30 66 64 54 62 67 62 68 69 45 39
138 105 149 117 118 124 97 78 95 58 3 49 48 28 29 65 100 114 152 162 122 99 42 54 97 91 89 72 65 63 43 35 32 29 32 23 30 33 28 54 57 52 52 52 61 57 31 34 32
102 83 88 102 143 124 85 96 71 82 57 10 8 -3 -32 -18 37 93 106 164 187 101 57 22 73 102 102 78 50 41 68 67 53 25 35 44 40 59 35 47 59 58 58 60 50 23 21 32 25
48 103 131 107 80 66 65 57 38 62 77 66 40 23 -7 -12 9 32 52 89 150 172 79 26 17 78 110 95 60 43 49 77 71 57 40 57 58 46 49 36 67 51 59 52 43 31 37 41 24
118 56 49 45 34 6 7 36 93 105 96 120 112 101 89 47 26 48 37 32 91 109 166 52 30 26 96 113 82 68 58 59 62 65 69 31 54 37 50 49 51 54 50 43 27 32 41 47 38
55 35 37 8 35 30 12 35 -6 89 153 101 91 95 92 93 71 35 56 52 48 91 115 123 61 24 53 106 101 84 80 75 64 69 71 70 65 63 40 59 41 49 49 61 31 41 47 68 63
34 -7 -46 6 -18 -49 -36 -47 27 61 68 51 44 62 82 91 72 71 34 15 58 66 117 165 81 54 24 96 117 118 106 108 58 56 78 78 79 71 73 70 76 74 97 58 51 55 54 64 72
-25 -66 -17 -32 7 5 -20 -56 -32 -21 3 28 42 36 40 41 58 103 114 72 74 65 66 122 133 85 47 64 119 117 113 104 71 73 79 74 97 96 93 70 66 102 105 72 70 66 51 67 72
22 29 19 28 76 76 -4 -34 -22 23 33 33 37 53 54 32 20 57 102 144 103 136 81 101 195 90 98 91 129 117 114 111 106 88 75 65 108 103 101 98 90 119 112 78 108 80 64 65 70
40 30 13 -1 38 24 -28 -9 -64 -59 -10 36 63 68 69 77 33 23 61 78 64 180 111 117 105 127 144 97 98 95 121 115 151 107 76 60 99 116 113 118 120 131 117 116 105 105 95 99 97
25 34 -4 11 20 3 -7 14 3 45 79 148 87 95 102 101 92 57 29 101 102 158 186 173 112 94 145 147 117 114 127 132 150 111 84 66 78 107 112 138 141 144 134 119 137 149 151 143 171
12 23 8 9 9 6 45 22 112 116 111 33 9 16 89 61 91 91 157 98 98 67 6 212 173 87 119 133 152 123 110 128 117 88 66 72 59 81 102 137 158 156 152 159 156 191 177 182 188
18 67 45 23 25 27 -30 40 -5 168 138 5 -26 54 71 28 73 108 107 131 79 86 20 155 214 244 127 144 163 177 170 179 110 77 75 88 80 61 78 99 145 169 176 151 184 189 196 191 208
67 37 36 14 7 30 -45 97 110 208 38 -82 -32 26 51 61 48 54 70 96 105 95 78 188 261 295 343 173 173 235 125 139 90 75 72 97 114 113 91 99 113 128 165 162 188 229 228 239 216
30 45 38 31 26 3 129 45 154 105 -37 -102 -22 41 18 37 39 81 86 113 162 187 221 241 354 409 463 502 337 148 265 147 125 60 70 104 134 168 164 111 135 163 144 151 212 223 213 228 212
58 45 81 54 39 34 98 55 264 188 57 2 -11 30 -5 27 60 84 122 132 180 234 315 277 394 439 500 490 522 552 527 147 109 64 39 59 120 145 163 144 164 180 175 150 185 209 190 210 185
26 68 95 56 38 -20 91 70 216 132 93 78 71 31 33 27 97 214 283 215 233 285 297 287 350 366 378 429 486 522 455 337 256 193 179 24 42 114 153 148 173 141 157 152 148 196 181 154 176
98 71 130 86 -12 -9 90 156 151 109 82 76 51 25 62 54 159 282 220 277 282 321 342 244 255 306 322 308 370 400 393 336 237 193 177 200 128 130 144 165 181 189 200 179 172 192 203 174 154
43 126 81 88 50 -3 56 185 113 49 14 36 -8 22 94 146 193 363 312 331 357 347 367 308 265 255 313 321 248 252 285 274 254 213 215 201 219 212 148 166 150 141 167 176 192 190 173 187 183
68 73 84 70 16 8 -61 174 90 96 59 41 56 -4 61 103 228 480 431 366 365 354 350 347 358 249 278 301 292 280 261 262 239 249 240 229 205 231 136 123 133 138 142 179 204 197 200 181 229
13 48 -3 51 54 42 -4 153 83 62 31 42 50 20 47 96 111 415 516 462 479 481 457 406 396 362 261 297 312 322 323 338 314 309 309 282 250 256 248 118 127 136 100 110 152 180 208 247 252